<?xml version='1.0' encoding='UTF-8'?><gpx version="1.1" creator="JPX - https://github.com/jenetics/jpx" xmlns="http://www.topografix.com/GPX/1/1"><trk><trkseg><trkpt lat="49.21726536768052" lon="6.4344567040997696"><ele>234.16666666666666</ele><time>2026-04-19T11:39:43Z</time></trkpt><trkpt lat="49.217352091998805" lon="6.434411922872982"><ele>234.33333333333331</ele><time>2026-04-19T11:39:45Z</time></trkpt><trkpt lat="49.21746492329663" lon="6.4344411975112825"><ele>234.5</ele><time>2026-04-19T11:39:47Z</time></trkpt><trkpt lat="49.217527690266856" lon="6.434538828043537"><ele>234.66666666666666</ele><time>2026-04-19T11:39:49Z</time></trkpt><trkpt lat="49.217564717477224" lon="6.4346171239255865"><ele>234.83333333333331</ele><time>2026-04-19T11:39:50Z</time></trkpt><trkpt lat="49.217595858306886" lon="6.4347192924250844"><ele>235.0</ele><time>2026-04-19T11:39:51Z</time></trkpt><trkpt lat="49.21763177415577" lon="6.434833531888133"><ele>234.66666666666666</ele><time>2026-04-19T11:39:52Z</time></trkpt><trkpt lat="49.217663611729144" lon="6.434956223447694"><ele>234.33333333333331</ele><time>2026-04-19T11:39:53Z</time></trkpt><trkpt lat="49.217695697600824" lon="6.435056925528593"><ele>234.0</ele><time>2026-04-19T11:39:53.999Z</time></trkpt><trkpt lat="49.21771908067144" lon="6.435161691247119"><ele>233.66666666666669</ele><time>2026-04-19T11:39:54.999Z</time></trkpt><trkpt lat="49.217735303593486" lon="6.435289281515725"><ele>233.33333333333334</ele><time>2026-04-19T11:39:55.999Z</time></trkpt><trkpt lat="49.217760814967825" lon="6.435406252070602"><ele>233.0</ele><time>2026-04-19T11:39:56.999Z</time></trkpt><trkpt lat="49.21778249946283" lon="6.435507470963993"><ele>232.66666666666669</ele><time>2026-04-19T11:39:57.999Z</time></trkpt><trkpt lat="49.217803066300355" lon="6.435605912724704"><ele>232.33333333333334</ele><time>2026-04-19T11:39:58.999Z</time></trkpt><trkpt lat="49.217830157017424" lon="6.435711498531494"><ele>232.0</ele><time>2026-04-19T11:39:59.999Z</time></trkpt><trkpt lat="49.21785479827918" lon="6.435832660028041"><ele>231.66666666666669</ele><time>2026-04-19T11:40:00.999Z</time></trkpt><trkpt lat="49.217889487791716" lon="6.435956593052919"><ele>231.33333333333334</ele><time>2026-04-19T11:40:01.999Z</time></trkpt><trkpt lat="49.2179071862252" lon="6.436067105704407"><ele>231.0</ele><time>2026-04-19T11:40:02.999Z</time></trkpt><trkpt lat="49.21792847607092" lon="6.436164889233386"><ele>231.0</ele><time>2026-04-19T11:40:03.999Z</time></trkpt><trkpt lat="49.21795202955979" lon="6.436264955867457"><ele>231.0</ele><time>2026-04-19T11:40:04.999Z</time></trkpt><trkpt lat="49.217983511401854" lon="6.4363885895938715"><ele>231.0</ele><time>2026-04-19T11:40:05.999Z</time></trkpt><trkpt lat="49.218019630200864" lon="6.436512856351582"><ele>231.0</ele><time>2026-04-19T11:40:06.999Z</time></trkpt><trkpt lat="49.218062142048126" lon="6.43662972275516"><ele>231.0</ele><time>2026-04-19T11:40:07.999Z</time></trkpt><trkpt lat="49.21813455328306" lon="6.436719694630929"><ele>231.0</ele><time>2026-04-19T11:40:08.999Z</time></trkpt><trkpt lat="49.21822783288228" lon="6.436785143821987"><ele>231.16666666666666</ele><time>2026-04-19T11:40:09.999Z</time></trkpt><trkpt lat="49.21833281798022" lon="6.436790632311391"><ele>231.33333333333331</ele><time>2026-04-19T11:40:10.999Z</time></trkpt><trkpt lat="49.21842540999308" lon="6.436767118298953"><ele>231.5</ele><time>2026-04-19T11:40:11.999Z</time></trkpt><trkpt lat="49.2184928376031" lon="6.436739598918422"><ele>231.66666666666666</ele><time>2026-04-19T11:40:12.999Z</time></trkpt><trkpt lat="49.21856480567462" lon="6.436705957512755"><ele>231.83333333333331</ele><time>2026-04-19T11:40:13.999Z</time></trkpt><trkpt lat="49.21863072879256" lon="6.436703279575241"><ele>232.0</ele><time>2026-04-19T11:40:14.999Z</time></trkpt><trkpt lat="49.21876007655568" lon="6.436837212324398"><ele>232.0</ele><time>2026-04-19T11:40:16.999Z</time></trkpt><trkpt lat="49.21879860079987" lon="6.4369696451305325"><ele>232.0</ele><time>2026-04-19T11:40:17.999Z</time></trkpt><trkpt lat="49.218824867318304" lon="6.437144832868407"><ele>232.0</ele><time>2026-04-19T11:40:18.999Z</time></trkpt><trkpt lat="49.21884266887413" lon="6.437332296298767"><ele>232.0</ele><time>2026-04-19T11:40:19.999Z</time></trkpt><trkpt lat="49.21885734470993" lon="6.437477235742807"><ele>232.0</ele><time>2026-04-19T11:40:20.999Z</time></trkpt><trkpt lat="49.21888589607212" lon="6.437614514965881"><ele>232.0</ele><time>2026-04-19T11:40:21.999Z</time></trkpt><trkpt lat="49.21892962729152" lon="6.43775071479561"><ele>232.0</ele><time>2026-04-19T11:40:22.999Z</time></trkpt><trkpt lat="49.21898463446085" lon="6.437887588873374"><ele>232.0</ele><time>2026-04-19T11:40:23.999Z</time></trkpt><trkpt lat="49.21903006241569" lon="6.4380387792362255"><ele>232.0</ele><time>2026-04-19T11:40:24.999Z</time></trkpt><trkpt lat="49.219088664040235" lon="6.438240134747529"><ele>232.2</ele><time>2026-04-19T11:40:25.999Z</time></trkpt><trkpt lat="49.219148446911156" lon="6.438393285842627"><ele>232.39999999999998</ele><time>2026-04-19T11:40:26.999Z</time></trkpt><trkpt lat="49.21918760127279" lon="6.438529789580661"><ele>232.60000000000002</ele><time>2026-04-19T11:40:27.999Z</time></trkpt><trkpt lat="49.21923019500416" lon="6.438668440130454"><ele>232.8</ele><time>2026-04-19T11:40:28.999Z</time></trkpt><trkpt lat="49.219283396750384" lon="6.43883107215341"><ele>233.0</ele><time>2026-04-19T11:40:29.999Z</time></trkpt><trkpt lat="49.21934411043809" lon="6.438996825381734"><ele>233.0</ele><time>2026-04-19T11:40:30.999Z</time></trkpt><trkpt lat="49.21942331799768" lon="6.43915071485295"><ele>233.0</ele><time>2026-04-19T11:40:31.999Z</time></trkpt><trkpt lat="49.219491159579356" lon="6.439302594081209"><ele>233.0</ele><time>2026-04-19T11:40:32.999Z</time></trkpt><trkpt lat="49.2195539903306" lon="6.439446761190965"><ele>233.0</ele><time>2026-04-19T11:40:33.999Z</time></trkpt><trkpt lat="49.21961915762489" lon="6.439594648975969"><ele>232.5</ele><time>2026-04-19T11:40:34.999Z</time></trkpt><trkpt lat="49.219675316008924" lon="6.439755442452698"><ele>232.0</ele><time>2026-04-19T11:40:35.999Z</time></trkpt><trkpt lat="49.2197186073514" lon="6.439922207217296"><ele>231.5</ele><time>2026-04-19T11:40:36.999Z</time></trkpt><trkpt lat="49.21974766147368" lon="6.4400964227481765"><ele>231.0</ele><time>2026-04-19T11:40:37.999Z</time></trkpt><trkpt lat="49.21977629571017" lon="6.4402777956147705"><ele>230.5</ele><time>2026-04-19T11:40:38.999Z</time></trkpt><trkpt lat="49.21977685444634" lon="6.440472409064249"><ele>230.0</ele><time>2026-04-19T11:40:39.999Z</time></trkpt><trkpt lat="49.219776545931495" lon="6.44064944813939"><ele>229.5</ele><time>2026-04-19T11:40:40.999Z</time></trkpt><trkpt lat="49.21979706641517" lon="6.4408301666021055"><ele>229.0</ele><time>2026-04-19T11:40:41.999Z</time></trkpt><trkpt lat="49.21979672490129" lon="6.4410229215370896"><ele>229.75</ele><time>2026-04-19T11:40:42.999Z</time></trkpt><trkpt lat="49.219838029478744" lon="6.441206295115497"><ele>230.5</ele><time>2026-04-19T11:40:43.999Z</time></trkpt><trkpt lat="49.219884370441996" lon="6.44138317495623"><ele>231.25</ele><time>2026-04-19T11:40:45Z</time></trkpt><trkpt lat="49.219939077514105" lon="6.441553437563495"><ele>232.0</ele><time>2026-04-19T11:40:46Z</time></trkpt><trkpt lat="49.22000688292866" lon="6.441711794053891"><ele>232.25</ele><time>2026-04-19T11:40:47Z</time></trkpt><trkpt lat="49.220055819848746" lon="6.441880948398532"><ele>232.5</ele><time>2026-04-19T11:40:48Z</time></trkpt><trkpt lat="49.22011751991792" lon="6.442041719419147"><ele>232.75</ele><time>2026-04-19T11:40:49Z</time></trkpt><trkpt lat="49.22017900534109" lon="6.442197225301631"><ele>233.0</ele><time>2026-04-19T11:40:50Z</time></trkpt><trkpt lat="49.220242657899185" lon="6.442367014743719"><ele>233.0</ele><time>2026-04-19T11:40:51Z</time></trkpt><trkpt lat="49.22029307862858" lon="6.442531455735923"><ele>233.0</ele><time>2026-04-19T11:40:52Z</time></trkpt><trkpt lat="49.220350249167325" lon="6.442685632226259"><ele>233.0</ele><time>2026-04-19T11:40:53Z</time></trkpt><trkpt lat="49.22040052049996" lon="6.442853673341469"><ele>233.0</ele><time>2026-04-19T11:40:54Z</time></trkpt><trkpt lat="49.2204679510496" lon="6.443003795677319"><ele>232.75</ele><time>2026-04-19T11:40:55Z</time></trkpt><trkpt lat="49.22052462752277" lon="6.443160844648912"><ele>232.5</ele><time>2026-04-19T11:40:56Z</time></trkpt><trkpt lat="49.22058027874281" lon="6.443313821716998"><ele>232.25</ele><time>2026-04-19T11:40:57Z</time></trkpt><trkpt lat="49.22065807145175" lon="6.4435073013631134"><ele>232.0</ele><time>2026-04-19T11:40:58Z</time></trkpt><trkpt lat="49.22073825531008" lon="6.443757229903178"><ele>232.75</ele><time>2026-04-19T11:40:59Z</time></trkpt><trkpt lat="49.22082561327915" lon="6.44396491458519"><ele>233.5</ele><time>2026-04-19T11:41:00Z</time></trkpt><trkpt lat="49.22089950464433" lon="6.444169076472702"><ele>234.25</ele><time>2026-04-19T11:41:01Z</time></trkpt><trkpt lat="49.22095402466918" lon="6.444335326443084"><ele>235.0</ele><time>2026-04-19T11:41:02Z</time></trkpt><trkpt lat="49.22099456474484" lon="6.444505637170421"><ele>234.75</ele><time>2026-04-19T11:41:03Z</time></trkpt><trkpt lat="49.22106297101101" lon="6.444674923177389"><ele>234.5</ele><time>2026-04-19T11:41:04Z</time></trkpt><trkpt lat="49.221123430249854" lon="6.4448457209871375"><ele>234.25</ele><time>2026-04-19T11:41:05Z</time></trkpt><trkpt lat="49.2211669008256" lon="6.445028487169899"><ele>234.0</ele><time>2026-04-19T11:41:06Z</time></trkpt><trkpt lat="49.22123533539613" lon="6.445194315481132"><ele>234.0</ele><time>2026-04-19T11:41:07Z</time></trkpt><trkpt lat="49.22129448478807" lon="6.445371288200762"><ele>233.99999999999997</ele><time>2026-04-19T11:41:08Z</time></trkpt><trkpt lat="49.221351238762864" lon="6.445522712554981"><ele>233.99999999999997</ele><time>2026-04-19T11:41:09Z</time></trkpt><trkpt lat="49.22139310522924" lon="6.445662920361553"><ele>234.0</ele><time>2026-04-19T11:41:10Z</time></trkpt><trkpt lat="49.2214325719434" lon="6.445811796755781"><ele>234.0</ele><time>2026-04-19T11:41:11Z</time></trkpt><trkpt lat="49.22147701362411" lon="6.445983572917324"><ele>235.25</ele><time>2026-04-19T11:41:12Z</time></trkpt><trkpt lat="49.22151877077904" lon="6.446146423869569"><ele>236.5</ele><time>2026-04-19T11:41:13Z</time></trkpt><trkpt lat="49.221542665383154" lon="6.4463125525850735"><ele>237.75</ele><time>2026-04-19T11:41:14Z</time></trkpt><trkpt lat="49.22159598830495" lon="6.446474212713022"><ele>239.0</ele><time>2026-04-19T11:41:15Z</time></trkpt><trkpt lat="49.2216357445163" lon="6.446650172034494"><ele>239.0</ele><time>2026-04-19T11:41:16Z</time></trkpt><trkpt lat="49.22168188066509" lon="6.446821187363892"><ele>239.0</ele><time>2026-04-19T11:41:17Z</time></trkpt><trkpt lat="49.22172310556057" lon="6.44697621713677"><ele>239.0</ele><time>2026-04-19T11:41:18Z</time></trkpt><trkpt lat="49.22176811211731" lon="6.447135560079683"><ele>239.0</ele><time>2026-04-19T11:41:19Z</time></trkpt><trkpt lat="49.22181919083674" lon="6.447294066117226"><ele>238.5</ele><time>2026-04-19T11:41:20Z</time></trkpt><trkpt lat="49.221869916344325" lon="6.447453737371746"><ele>238.0</ele><time>2026-04-19T11:41:21Z</time></trkpt><trkpt lat="49.22192190866795" lon="6.447614436277949"><ele>237.5</ele><time>2026-04-19T11:41:22Z</time></trkpt><trkpt lat="49.22197684626736" lon="6.447779719214382"><ele>237.0</ele><time>2026-04-19T11:41:23Z</time></trkpt><trkpt lat="49.22202548561414" lon="6.4479449214644236"><ele>235.75</ele><time>2026-04-19T11:41:24Z</time></trkpt><trkpt lat="49.222079894921634" lon="6.448112993262527"><ele>234.5</ele><time>2026-04-19T11:41:25Z</time></trkpt><trkpt lat="49.22213684695966" lon="6.448281904490433"><ele>233.25</ele><time>2026-04-19T11:41:26Z</time></trkpt><trkpt lat="49.222193672344446" lon="6.448452690533524"><ele>232.0</ele><time>2026-04-19T11:41:27Z</time></trkpt><trkpt lat="49.22223805183895" lon="6.44862560979538"><ele>232.0</ele><time>2026-04-19T11:41:28Z</time></trkpt><trkpt lat="49.22230779355947" lon="6.448783081299189"><ele>232.0</ele><time>2026-04-19T11:41:29Z</time></trkpt><trkpt lat="49.22234950009799" lon="6.448958971913323"><ele>232.0</ele><time>2026-04-19T11:41:30Z</time></trkpt><trkpt lat="49.22240504101956" lon="6.449128899830662"><ele>232.0</ele><time>2026-04-19T11:41:31Z</time></trkpt><trkpt lat="49.222476882633536" lon="6.449293690103656"><ele>232.5</ele><time>2026-04-19T11:41:32Z</time></trkpt><trkpt lat="49.22253049211437" lon="6.449483035697796"><ele>233.0</ele><time>2026-04-19T11:41:33Z</time></trkpt><trkpt lat="49.222570101917974" lon="6.449677801878194"><ele>233.5</ele><time>2026-04-19T11:41:34Z</time></trkpt><trkpt lat="49.22262988186833" lon="6.449860367043795"><ele>234.0</ele><time>2026-04-19T11:41:35Z</time></trkpt><trkpt lat="49.22266699269886" lon="6.450048319696753"><ele>234.0</ele><time>2026-04-19T11:41:36Z</time></trkpt><trkpt lat="49.22270825862602" lon="6.450213922859451"><ele>234.0</ele><time>2026-04-19T11:41:37Z</time></trkpt><trkpt lat="49.22274479199122" lon="6.4503786955073315"><ele>234.0</ele><time>2026-04-19T11:41:38Z</time></trkpt><trkpt lat="49.22278086252214" lon="6.450547686289434"><ele>234.0</ele><time>2026-04-19T11:41:39Z</time></trkpt><trkpt lat="49.222810833722356" lon="6.4507094626156904"><ele>233.25</ele><time>2026-04-19T11:41:40Z</time></trkpt><trkpt lat="49.22284419721185" lon="6.450869876622941"><ele>232.5</ele><time>2026-04-19T11:41:41Z</time></trkpt><trkpt lat="49.22289015949137" lon="6.451036704530401"><ele>231.75</ele><time>2026-04-19T11:41:42Z</time></trkpt><trkpt lat="49.22293141097559" lon="6.451202595642453"><ele>231.0</ele><time>2026-04-19T11:41:43Z</time></trkpt><trkpt lat="49.222940450895706" lon="6.451369805853386"><ele>230.33333333333334</ele><time>2026-04-19T11:41:44Z</time></trkpt><trkpt lat="49.22296608189722" lon="6.451518553814215"><ele>229.66666666666669</ele><time>2026-04-19T11:41:45Z</time></trkpt><trkpt lat="49.222988780942195" lon="6.4516580266716455"><ele>229.0</ele><time>2026-04-19T11:41:46Z</time></trkpt><trkpt lat="49.22300652927273" lon="6.451788772972898"><ele>228.33333333333334</ele><time>2026-04-19T11:41:47Z</time></trkpt><trkpt lat="49.22302177118331" lon="6.4519124804118855"><ele>227.66666666666669</ele><time>2026-04-19T11:41:48Z</time></trkpt><trkpt lat="49.22303895764032" lon="6.452010049985772"><ele>227.0</ele><time>2026-04-19T11:41:49Z</time></trkpt><trkpt lat="49.22304668223896" lon="6.452106492616549"><ele>227.00000000000003</ele><time>2026-04-19T11:41:50Z</time></trkpt><trkpt lat="49.223057297444655" lon="6.452203343235379"><ele>227.0</ele><time>2026-04-19T11:41:51Z</time></trkpt><trkpt lat="49.223078092066324" lon="6.4523652878055415"><ele>227.0</ele><time>2026-04-19T11:41:53Z</time></trkpt><trkpt lat="49.223094266522054" lon="6.452505933592659"><ele>227.0</ele><time>2026-04-19T11:41:55Z</time></trkpt><trkpt lat="49.2231153151155" lon="6.45267392959521"><ele>227.00000000000003</ele><time>2026-04-19T11:41:57Z</time></trkpt><trkpt lat="49.22311535902323" lon="6.452779583478902"><ele>227.0</ele><time>2026-04-19T11:41:58Z</time></trkpt><trkpt lat="49.22312829969705" lon="6.452891552798894"><ele>226.83333333333334</ele><time>2026-04-19T11:41:59Z</time></trkpt><trkpt lat="49.22314103382308" lon="6.453005924190988"><ele>226.66666666666669</ele><time>2026-04-19T11:41:59.999Z</time></trkpt><trkpt lat="49.223152700963176" lon="6.453110712344364"><ele>226.5</ele><time>2026-04-19T11:42:00.999Z</time></trkpt><trkpt lat="49.22316303894685" lon="6.453206285340954"><ele>226.33333333333331</ele><time>2026-04-19T11:42:01.999Z</time></trkpt><trkpt lat="49.22317544776216" lon="6.453333538392209"><ele>226.16666666666666</ele><time>2026-04-19T11:42:02.999Z</time></trkpt><trkpt lat="49.223187166579486" lon="6.453470826470163"><ele>226.0</ele><time>2026-04-19T11:42:03.999Z</time></trkpt><trkpt lat="49.22319163837578" lon="6.45358193764678"><ele>225.8</ele><time>2026-04-19T11:42:04.999Z</time></trkpt><trkpt lat="49.223186483682746" lon="6.45373919368431"><ele>225.60000000000002</ele><time>2026-04-19T11:42:05.999Z</time></trkpt><trkpt lat="49.22316111751733" lon="6.4538757730328244"><ele>225.4</ele><time>2026-04-19T11:42:06.999Z</time></trkpt><trkpt lat="49.22316381026375" lon="6.45399870679835"><ele>225.2</ele><time>2026-04-19T11:42:07.999Z</time></trkpt><trkpt lat="49.223152948205616" lon="6.4541068845891925"><ele>225.0</ele><time>2026-04-19T11:42:08.999Z</time></trkpt><trkpt lat="49.223134223336395" lon="6.454317117460614"><ele>225.0</ele><time>2026-04-19T11:42:10.999Z</time></trkpt><trkpt lat="49.22312444313485" lon="6.454423857468914"><ele>225.0</ele><time>2026-04-19T11:42:11.999Z</time></trkpt><trkpt lat="49.22310366293611" lon="6.454605460332629"><ele>225.0</ele><time>2026-04-19T11:42:13.999Z</time></trkpt><trkpt lat="49.2230990047805" lon="6.454710271462157"><ele>225.0</ele><time>2026-04-19T11:42:14.999Z</time></trkpt><trkpt lat="49.223110426419765" lon="6.454808728503472"><ele>225.0</ele><time>2026-04-19T11:42:15.999Z</time></trkpt><trkpt lat="49.22309715825422" lon="6.45499094810125"><ele>225.0</ele><time>2026-04-19T11:42:17.999Z</time></trkpt><trkpt lat="49.22309838323281" lon="6.455099880466692"><ele>225.14285714285717</ele><time>2026-04-19T11:42:18.999Z</time></trkpt><trkpt lat="49.223098765995985" lon="6.455211633194037"><ele>225.28571428571428</ele><time>2026-04-19T11:42:19.999Z</time></trkpt><trkpt lat="49.22309876599598" lon="6.455318773925867"><ele>225.42857142857144</ele><time>2026-04-19T11:42:20.999Z</time></trkpt><trkpt lat="49.22311440655178" lon="6.455434133803785"><ele>225.57142857142858</ele><time>2026-04-19T11:42:21.999Z</time></trkpt><trkpt lat="49.22309982315306" lon="6.455544227066915"><ele>225.71428571428572</ele><time>2026-04-19T11:42:22.999Z</time></trkpt><trkpt lat="49.22310067111544" lon="6.4556452648401255"><ele>225.85714285714286</ele><time>2026-04-19T11:42:23.999Z</time></trkpt><trkpt lat="49.22311632205954" lon="6.455743711814451"><ele>226.0</ele><time>2026-04-19T11:42:24.999Z</time></trkpt><trkpt lat="49.223105104260576" lon="6.45586513134501"><ele>225.99999999999997</ele><time>2026-04-19T11:42:25.999Z</time></trkpt><trkpt lat="49.22312499408423" lon="6.455978017638745"><ele>226.0</ele><time>2026-04-19T11:42:26.999Z</time></trkpt><trkpt lat="49.22313194416016" lon="6.4561019341097445"><ele>226.0</ele><time>2026-04-19T11:42:27.999Z</time></trkpt><trkpt lat="49.22314195979843" lon="6.456249421624759"><ele>226.0</ele><time>2026-04-19T11:42:28.999Z</time></trkpt><trkpt lat="49.22315086814863" lon="6.456384727729633"><ele>225.99999999999997</ele><time>2026-04-19T11:42:29.999Z</time></trkpt><trkpt lat="49.22315952480999" lon="6.456496507152058"><ele>226.0</ele><time>2026-04-19T11:42:30.999Z</time></trkpt><trkpt lat="49.22316920400469" lon="6.45660226148136"><ele>225.83333333333331</ele><time>2026-04-19T11:42:31.999Z</time></trkpt><trkpt lat="49.22316132925409" lon="6.456717270457022"><ele>225.66666666666666</ele><time>2026-04-19T11:42:32.999Z</time></trkpt><trkpt lat="49.22317169778538" lon="6.456854089989316"><ele>225.5</ele><time>2026-04-19T11:42:33.999Z</time></trkpt><trkpt lat="49.223192508907914" lon="6.456987269396873"><ele>225.33333333333331</ele><time>2026-04-19T11:42:34.999Z</time></trkpt><trkpt lat="49.22320678944427" lon="6.457117767243319"><ele>225.16666666666666</ele><time>2026-04-19T11:42:35.999Z</time></trkpt><trkpt lat="49.22321858991341" lon="6.457239421558485"><ele>225.0</ele><time>2026-04-19T11:42:36.999Z</time></trkpt><trkpt lat="49.22323044349255" lon="6.457370526815633"><ele>225.33333333333334</ele><time>2026-04-19T11:42:37.999Z</time></trkpt><trkpt lat="49.223228074537495" lon="6.457514813418828"><ele>225.66666666666669</ele><time>2026-04-19T11:42:38.999Z</time></trkpt><trkpt lat="49.22323190834062" lon="6.457633530802966"><ele>226.0</ele><time>2026-04-19T11:42:39.999Z</time></trkpt><trkpt lat="49.22324035502107" lon="6.457731503794108"><ele>226.33333333333334</ele><time>2026-04-19T11:42:40.999Z</time></trkpt><trkpt lat="49.22325175733612" lon="6.457832442879053"><ele>226.66666666666669</ele><time>2026-04-19T11:42:41.999Z</time></trkpt><trkpt lat="49.22326218094651" lon="6.45796204019675"><ele>227.0</ele><time>2026-04-19T11:42:42.999Z</time></trkpt><trkpt lat="49.22327606566998" lon="6.458089265729353"><ele>227.66666666666669</ele><time>2026-04-19T11:42:43.999Z</time></trkpt><trkpt lat="49.22326912084358" lon="6.458201130389375"><ele>228.33333333333334</ele><time>2026-04-19T11:42:44.999Z</time></trkpt><trkpt lat="49.22327839786783" lon="6.458318462894846"><ele>229.0</ele><time>2026-04-19T11:42:45.999Z</time></trkpt><trkpt lat="49.22328839833898" lon="6.458444945274988"><ele>229.66666666666669</ele><time>2026-04-19T11:42:46.999Z</time></trkpt><trkpt lat="49.223309740434004" lon="6.458579409562015"><ele>230.33333333333334</ele><time>2026-04-19T11:42:47.999Z</time></trkpt><trkpt lat="49.22332278664163" lon="6.45872152622363"><ele>231.0</ele><time>2026-04-19T11:42:48.999Z</time></trkpt><trkpt lat="49.22333331241474" lon="6.458850811418687"><ele>231.0</ele><time>2026-04-19T11:42:49.999Z</time></trkpt><trkpt lat="49.223347271294436" lon="6.45899201079804"><ele>231.0</ele><time>2026-04-19T11:42:51Z</time></trkpt><trkpt lat="49.22336086016096" lon="6.459127158295114"><ele>231.0</ele><time>2026-04-19T11:42:52Z</time></trkpt><trkpt lat="49.223363443583885" lon="6.459238785887088"><ele>231.0</ele><time>2026-04-19T11:42:53Z</time></trkpt><trkpt lat="49.223382222564155" lon="6.4593549745841665"><ele>231.0</ele><time>2026-04-19T11:42:54Z</time></trkpt><trkpt lat="49.223396634957076" lon="6.459473560138945"><ele>231.0</ele><time>2026-04-19T11:42:55Z</time></trkpt><trkpt lat="49.22340828292962" lon="6.459587196305617"><ele>230.57142857142856</ele><time>2026-04-19T11:42:56Z</time></trkpt><trkpt lat="49.22342418432217" lon="6.459716582523667"><ele>230.14285714285714</ele><time>2026-04-19T11:42:57Z</time></trkpt><trkpt lat="49.22343824119738" lon="6.459843647280897"><ele>229.71428571428572</ele><time>2026-04-19T11:42:58Z</time></trkpt><trkpt lat="49.2234486682073" lon="6.459940357227237"><ele>229.28571428571428</ele><time>2026-04-19T11:42:59Z</time></trkpt><trkpt lat="49.22346251806473" lon="6.460051362470707"><ele>228.85714285714283</ele><time>2026-04-19T11:43:00Z</time></trkpt><trkpt lat="49.22347433438844" lon="6.460154079422917"><ele>228.42857142857142</ele><time>2026-04-19T11:43:01Z</time></trkpt><trkpt lat="49.22348845291901" lon="6.460251109972675"><ele>228.0</ele><time>2026-04-19T11:43:02Z</time></trkpt><trkpt lat="49.22350577409146" lon="6.460391171318701"><ele>227.2</ele><time>2026-04-19T11:43:04Z</time></trkpt><trkpt lat="49.223529358095846" lon="6.460556317954236"><ele>226.4</ele><time>2026-04-19T11:43:28Z</time></trkpt><trkpt lat="49.22356563202858" lon="6.460709209536904"><ele>225.59999999999997</ele><time>2026-04-19T11:43:30Z</time></trkpt><trkpt lat="49.223607499039" lon="6.460848724909233"><ele>224.79999999999998</ele><time>2026-04-19T11:43:32Z</time></trkpt><trkpt lat="49.223660671230526" lon="6.460950989938106"><ele>224.0</ele><time>2026-04-19T11:43:34Z</time></trkpt><trkpt lat="49.22370680564909" lon="6.461059386139254"><ele>224.0</ele><time>2026-04-19T11:43:36Z</time></trkpt><trkpt lat="49.223752663985024" lon="6.4612052761492285"><ele>223.99999999999997</ele><time>2026-04-19T11:43:38Z</time></trkpt><trkpt lat="49.223816708850855" lon="6.461360193665295"><ele>223.99999999999997</ele><time>2026-04-19T11:43:40Z</time></trkpt><trkpt lat="49.22389109592035" lon="6.461484068819769"><ele>224.0</ele><time>2026-04-19T11:43:42Z</time></trkpt><trkpt lat="49.22392674743003" lon="6.461648833147724"><ele>224.0</ele><time>2026-04-19T11:43:44Z</time></trkpt><trkpt lat="49.22392370179556" lon="6.4618312367101405"><ele>222.75</ele><time>2026-04-19T11:43:46Z</time></trkpt><trkpt lat="49.223905125372546" lon="6.461995289446247"><ele>221.5</ele><time>2026-04-19T11:43:48Z</time></trkpt><trkpt lat="49.2239004740405" lon="6.462152878370292"><ele>220.25</ele><time>2026-04-19T11:43:50Z</time></trkpt><trkpt lat="49.223910103234175" lon="6.462329187094425"><ele>219.0</ele><time>2026-04-19T11:43:52Z</time></trkpt><trkpt lat="49.22391662252033" lon="6.462519141913658"><ele>218.14285714285714</ele><time>2026-04-19T11:43:54Z</time></trkpt><trkpt lat="49.22391912014089" lon="6.462617957227901"><ele>217.28571428571428</ele><time>2026-04-19T11:43:55Z</time></trkpt><trkpt lat="49.223931858581224" lon="6.4628007357580675"><ele>216.42857142857142</ele><time>2026-04-19T11:43:57Z</time></trkpt><trkpt lat="49.22393413495173" lon="6.462901964739226"><ele>215.57142857142856</ele><time>2026-04-19T11:43:58Z</time></trkpt><trkpt lat="49.2239266857036" lon="6.463002748238426"><ele>214.71428571428572</ele><time>2026-04-19T11:43:59Z</time></trkpt><trkpt lat="49.223947981421624" lon="6.463098280573262"><ele>213.85714285714283</ele><time>2026-04-19T11:44:00Z</time></trkpt><trkpt lat="49.223946446865305" lon="6.463196478794098"><ele>213.0</ele><time>2026-04-19T11:44:01Z</time></trkpt><trkpt lat="49.22396148229472" lon="6.46338320206811"><ele>214.0</ele><time>2026-04-19T11:44:03Z</time></trkpt><trkpt lat="49.22398270305323" lon="6.463563044944295"><ele>215.0</ele><time>2026-04-19T11:44:05Z</time></trkpt><trkpt lat="49.224014272535115" lon="6.463724458424268"><ele>216.0</ele><time>2026-04-19T11:44:07Z</time></trkpt><trkpt lat="49.22402014455643" lon="6.46389651209647"><ele>217.0</ele><time>2026-04-19T11:44:09Z</time></trkpt><trkpt lat="49.224053541343864" lon="6.464057662739268"><ele>214.83333333333331</ele><time>2026-04-19T11:44:11Z</time></trkpt><trkpt lat="49.22408330451822" lon="6.4642081977092"><ele>212.66666666666666</ele><time>2026-04-19T11:44:13Z</time></trkpt><trkpt lat="49.22409097708569" lon="6.464305524920656"><ele>210.5</ele><time>2026-04-19T11:44:13.999Z</time></trkpt><trkpt lat="49.22410256970142" lon="6.464404389144364"><ele>208.33333333333331</ele><time>2026-04-19T11:44:14.999Z</time></trkpt><trkpt lat="49.22411481715558" lon="6.464515535848232"><ele>206.16666666666666</ele><time>2026-04-19T11:44:15.999Z</time></trkpt><trkpt lat="49.22412333436607" lon="6.4646542431085345"><ele>204.0</ele><time>2026-04-19T11:44:16.999Z</time></trkpt><trkpt lat="49.224122848914384" lon="6.464809861371711"><ele>203.6</ele><time>2026-04-19T11:44:17.999Z</time></trkpt><trkpt lat="49.224099759224536" lon="6.464960344003787"><ele>203.2</ele><time>2026-04-19T11:44:18.999Z</time></trkpt><trkpt lat="49.22408652279459" lon="6.46509643560584"><ele>202.79999999999998</ele><time>2026-04-19T11:44:19.999Z</time></trkpt><trkpt lat="49.22408472779081" lon="6.465259971834542"><ele>202.39999999999998</ele><time>2026-04-19T11:44:20.999Z</time></trkpt><trkpt lat="49.22405125387829" lon="6.465402060854999"><ele>202.0</ele><time>2026-04-19T11:44:21.999Z</time></trkpt><trkpt lat="49.224042479214056" lon="6.465532292387121"><ele>202.0</ele><time>2026-04-19T11:44:22.999Z</time></trkpt><trkpt lat="49.2240228734935" lon="6.465672287511236"><ele>202.0</ele><time>2026-04-19T11:44:23.999Z</time></trkpt><trkpt lat="49.223981008651414" lon="6.465822311701904"><ele>202.0</ele><time>2026-04-19T11:44:24.999Z</time></trkpt><trkpt lat="49.223964542933246" lon="6.466009710257692"><ele>202.0</ele><time>2026-04-19T11:44:25.999Z</time></trkpt><trkpt lat="49.2239300123032" lon="6.466175524220918"><ele>202.0</ele><time>2026-04-19T11:44:26.999Z</time></trkpt><trkpt lat="49.22390095028265" lon="6.4663166269945815"><ele>201.99999999999997</ele><time>2026-04-19T11:44:27.999Z</time></trkpt><trkpt lat="49.22387973621472" lon="6.46644761188729"><ele>202.0</ele><time>2026-04-19T11:44:28.999Z</time></trkpt><trkpt lat="49.2238621695472" lon="6.466551978507583"><ele>202.0</ele><time>2026-04-19T11:44:29.999Z</time></trkpt><trkpt lat="49.223841414397675" lon="6.466681821704631"><ele>202.0</ele><time>2026-04-19T11:44:30.999Z</time></trkpt><trkpt lat="49.223816841587514" lon="6.466804936443029"><ele>201.99999999999997</ele><time>2026-04-19T11:44:31.999Z</time></trkpt><trkpt lat="49.223789676153366" lon="6.466946137743056"><ele>202.0</ele><time>2026-04-19T11:44:32.999Z</time></trkpt><trkpt lat="49.22376764607152" lon="6.467075021352965"><ele>201.2</ele><time>2026-04-19T11:44:33.999Z</time></trkpt><trkpt lat="49.22374595906674" lon="6.467202303817772"><ele>200.39999999999998</ele><time>2026-04-19T11:44:34.999Z</time></trkpt><trkpt lat="49.22372089563143" lon="6.467348989363028"><ele>199.60000000000002</ele><time>2026-04-19T11:44:35.999Z</time></trkpt><trkpt lat="49.223697288583445" lon="6.4674859173316985"><ele>198.8</ele><time>2026-04-19T11:44:36.999Z</time></trkpt><trkpt lat="49.22367225289037" lon="6.467617777771523"><ele>198.0</ele><time>2026-04-19T11:44:37.999Z</time></trkpt><trkpt lat="49.223649119480925" lon="6.467762392525233"><ele>198.0</ele><time>2026-04-19T11:44:38.999Z</time></trkpt><trkpt lat="49.223629714865936" lon="6.467890894016038"><ele>198.0</ele><time>2026-04-19T11:44:39.999Z</time></trkpt><trkpt lat="49.22360350450399" lon="6.468000227566031"><ele>198.0</ele><time>2026-04-19T11:44:40.999Z</time></trkpt><trkpt lat="49.223584447854236" lon="6.46810928738205"><ele>198.0</ele><time>2026-04-19T11:44:41.999Z</time></trkpt><trkpt lat="49.22355535919258" lon="6.46828367296517"><ele>198.0</ele><time>2026-04-19T11:44:43.999Z</time></trkpt><trkpt lat="49.22353395537255" lon="6.468433411672789"><ele>198.0</ele><time>2026-04-19T11:44:45.999Z</time></trkpt><trkpt lat="49.22352019483346" lon="6.468541185307972"><ele>198.0</ele><time>2026-04-19T11:44:46.999Z</time></trkpt><trkpt lat="49.223528255656234" lon="6.468686018882844"><ele>198.0</ele><time>2026-04-19T11:44:47.999Z</time></trkpt><trkpt lat="49.22349980801809" lon="6.468823401026804"><ele>198.0</ele><time>2026-04-19T11:44:48.999Z</time></trkpt><trkpt lat="49.22350625934891" lon="6.468963406557602"><ele>198.0</ele><time>2026-04-19T11:44:49.999Z</time></trkpt><trkpt lat="49.22349609503656" lon="6.469084030708206"><ele>198.0</ele><time>2026-04-19T11:44:50.999Z</time></trkpt><trkpt lat="49.22348993366597" lon="6.469202084889021"><ele>198.5</ele><time>2026-04-19T11:44:51.999Z</time></trkpt><trkpt lat="49.223480455210336" lon="6.469328319504953"><ele>199.0</ele><time>2026-04-19T11:44:52.999Z</time></trkpt><trkpt lat="49.22347207267357" lon="6.469441037172365"><ele>199.5</ele><time>2026-04-19T11:44:53.999Z</time></trkpt><trkpt lat="49.22342700913886" lon="6.4695817974535625"><ele>200.0</ele><time>2026-04-19T11:44:55.999Z</time></trkpt><trkpt lat="49.22336173569751" lon="6.4695484696808085"><ele>200.5</ele><time>2026-04-19T11:44:57Z</time></trkpt><trkpt lat="49.223290103748646" lon="6.469569765618306"><ele>201.0</ele><time>2026-04-19T11:44:58Z</time></trkpt><trkpt lat="49.22318640338929" lon="6.469627688760421"><ele>200.83333333333334</ele><time>2026-04-19T11:44:59Z</time></trkpt><trkpt lat="49.22308772632274" lon="6.469656394102971"><ele>200.66666666666669</ele><time>2026-04-19T11:45:00Z</time></trkpt><trkpt lat="49.22301481941389" lon="6.469679268657514"><ele>200.5</ele><time>2026-04-19T11:45:01Z</time></trkpt><trkpt lat="49.2229482261312" lon="6.469709234966781"><ele>200.33333333333334</ele><time>2026-04-19T11:45:02Z</time></trkpt><trkpt lat="49.2228680007103" lon="6.469744449985626"><ele>200.16666666666669</ele><time>2026-04-19T11:45:03Z</time></trkpt><trkpt lat="49.22278866848042" lon="6.469754896214523"><ele>200.0</ele><time>2026-04-19T11:45:04Z</time></trkpt><trkpt lat="49.222735297064496" lon="6.46980854835705"><ele>200.0</ele><time>2026-04-19T11:45:05Z</time></trkpt><trkpt lat="49.22261837768894" lon="6.469842630355529"><ele>200.0</ele><time>2026-04-19T11:45:07Z</time></trkpt><trkpt lat="49.22251926697718" lon="6.469873471251958"><ele>200.0</ele><time>2026-04-19T11:45:09Z</time></trkpt><trkpt lat="49.22245679708168" lon="6.469941519701589"><ele>200.0</ele><time>2026-04-19T11:45:11Z</time></trkpt><trkpt lat="49.222471877503956" lon="6.4700664803127435"><ele>200.0</ele><time>2026-04-19T11:45:13Z</time></trkpt><trkpt lat="49.222591854187684" lon="6.4701767159705685"><ele>200.00000000000003</ele><time>2026-04-19T11:45:15Z</time></trkpt><trkpt lat="49.22265626983726" lon="6.470204764445657"><ele>200.0</ele><time>2026-04-19T11:45:16Z</time></trkpt><trkpt lat="49.22272545437736" lon="6.470239901076468"><ele>200.0</ele><time>2026-04-19T11:45:17Z</time></trkpt><trkpt lat="49.22278757406447" lon="6.470293907788006"><ele>200.0</ele><time>2026-04-19T11:45:18Z</time></trkpt><trkpt lat="49.22283787067048" lon="6.470364842611832"><ele>200.0</ele><time>2026-04-19T11:45:19Z</time></trkpt><trkpt lat="49.22283807041109" lon="6.470473622754267"><ele>200.00000000000003</ele><time>2026-04-19T11:45:20Z</time></trkpt><trkpt lat="49.22290970182344" lon="6.470564688302553"><ele>200.0</ele><time>2026-04-19T11:45:21Z</time></trkpt><trkpt lat="49.22298106227753" lon="6.470617849654057"><ele>200.4</ele><time>2026-04-19T11:45:22Z</time></trkpt><trkpt lat="49.22303330637841" lon="6.470686644247972"><ele>200.8</ele><time>2026-04-19T11:45:23Z</time></trkpt><trkpt lat="49.223083819833626" lon="6.470758170789372"><ele>201.2</ele><time>2026-04-19T11:45:24Z</time></trkpt><trkpt lat="49.22317007368692" lon="6.470890721835886"><ele>201.6</ele><time>2026-04-19T11:45:26Z</time></trkpt><trkpt lat="49.22322136428366" lon="6.470961821844253"><ele>202.0</ele><time>2026-04-19T11:45:27Z</time></trkpt><trkpt lat="49.22331547352998" lon="6.471105013331663"><ele>201.99999999999997</ele><time>2026-04-19T11:45:29Z</time></trkpt><trkpt lat="49.22335708553563" lon="6.471189672490364"><ele>202.0</ele><time>2026-04-19T11:45:30Z</time></trkpt><trkpt lat="49.22340755878923" lon="6.471310280609424"><ele>202.0</ele><time>2026-04-19T11:45:32Z</time></trkpt><trkpt lat="49.22345266565823" lon="6.4714351980896705"><ele>202.0</ele><time>2026-04-19T11:57:26Z</time></trkpt><trkpt lat="49.22350443886118" lon="6.471516237400197"><ele>201.99999999999997</ele><time>2026-04-19T11:57:28Z</time></trkpt><trkpt lat="49.223573528034365" lon="6.471663297208062"><ele>202.0</ele><time>2026-04-19T11:57:30Z</time></trkpt><trkpt lat="49.22363296936424" lon="6.471811140583074"><ele>201.66666666666666</ele><time>2026-04-19T11:57:32Z</time></trkpt><trkpt lat="49.223665879342796" lon="6.471903936571812"><ele>201.33333333333331</ele><time>2026-04-19T11:57:33Z</time></trkpt><trkpt lat="49.223697546301985" lon="6.472014535874825"><ele>201.0</ele><time>2026-04-19T11:57:34Z</time></trkpt><trkpt lat="49.22371570943731" lon="6.472119629969434"><ele>200.66666666666669</ele><time>2026-04-19T11:57:35Z</time></trkpt><trkpt lat="49.22373068901048" lon="6.4722430832069096"><ele>200.33333333333334</ele><time>2026-04-19T11:57:36Z</time></trkpt><trkpt lat="49.22374240846246" lon="6.472368187307249"><ele>200.0</ele><time>2026-04-19T11:57:37Z</time></trkpt><trkpt lat="49.22374702788402" lon="6.472491100427909"><ele>199.83333333333334</ele><time>2026-04-19T11:57:38Z</time></trkpt><trkpt lat="49.22374516592597" lon="6.4726132756085315"><ele>199.66666666666669</ele><time>2026-04-19T11:57:39Z</time></trkpt><trkpt lat="49.22373796246067" lon="6.472728268374819"><ele>199.5</ele><time>2026-04-19T11:57:40Z</time></trkpt><trkpt lat="49.2237421180931" lon="6.472859514447705"><ele>199.33333333333331</ele><time>2026-04-19T11:57:41Z</time></trkpt><trkpt lat="49.22373641275824" lon="6.472972254707587"><ele>199.16666666666666</ele><time>2026-04-19T11:57:42Z</time></trkpt><trkpt lat="49.22373077742044" lon="6.4730867019554985"><ele>199.0</ele><time>2026-04-19T11:57:43Z</time></trkpt><trkpt lat="49.223727576261645" lon="6.4732006410590115"><ele>198.66666666666666</ele><time>2026-04-19T11:57:44Z</time></trkpt><trkpt lat="49.22374271555075" lon="6.473319199737425"><ele>198.33333333333331</ele><time>2026-04-19T11:57:45Z</time></trkpt><trkpt lat="49.22374902559363" lon="6.473440148540699"><ele>198.0</ele><time>2026-04-19T11:57:46Z</time></trkpt><trkpt lat="49.22375784754458" lon="6.473565039356616"><ele>197.66666666666669</ele><time>2026-04-19T11:57:47Z</time></trkpt><trkpt lat="49.22378147158324" lon="6.473685041731772"><ele>197.33333333333334</ele><time>2026-04-19T11:57:48Z</time></trkpt><trkpt lat="49.223775679392524" lon="6.473787315231051"><ele>197.0</ele><time>2026-04-19T11:57:49Z</time></trkpt><trkpt lat="49.22377470552738" lon="6.4740230138868755"><ele>197.00000000000003</ele><time>2026-04-19T11:57:51Z</time></trkpt><trkpt lat="49.223760677873564" lon="6.474134589982019"><ele>197.0</ele><time>2026-04-19T11:57:52Z</time></trkpt><trkpt lat="49.2237548547682" lon="6.474259537135815"><ele>197.0</ele><time>2026-04-19T11:57:53Z</time></trkpt><trkpt lat="49.22375209958304" lon="6.474386990907471"><ele>197.0</ele><time>2026-04-19T11:57:54Z</time></trkpt><trkpt lat="49.22374923671668" lon="6.474518641862143"><ele>197.00000000000003</ele><time>2026-04-19T11:57:55Z</time></trkpt><trkpt lat="49.22374322790183" lon="6.474666474929914"><ele>197.0</ele><time>2026-04-19T11:57:56Z</time></trkpt><trkpt lat="49.22376590520938" lon="6.474850071534208"><ele>197.39999999999998</ele><time>2026-04-19T11:57:57Z</time></trkpt><trkpt lat="49.22381574622508" lon="6.475013697307498"><ele>197.79999999999998</ele><time>2026-04-19T11:57:58Z</time></trkpt><trkpt lat="49.22384435103094" lon="6.475177327745307"><ele>198.2</ele><time>2026-04-19T11:57:59Z</time></trkpt><trkpt lat="49.223819784404434" lon="6.475337714603022"><ele>198.6</ele><time>2026-04-19T11:58:00Z</time></trkpt><trkpt lat="49.22380650611266" lon="6.475505694464207"><ele>199.0</ele><time>2026-04-19T11:58:01Z</time></trkpt><trkpt lat="49.22378813187067" lon="6.475688294921233"><ele>199.0</ele><time>2026-04-19T11:58:02Z</time></trkpt><trkpt lat="49.22375810971533" lon="6.475875052764804"><ele>199.0</ele><time>2026-04-19T11:58:03Z</time></trkpt><trkpt lat="49.22373647064769" lon="6.476073248337694"><ele>199.0</ele><time>2026-04-19T11:58:04Z</time></trkpt><trkpt lat="49.22370221969034" lon="6.476252932590512"><ele>199.0</ele><time>2026-04-19T11:58:05Z</time></trkpt><trkpt lat="49.223702183443706" lon="6.476421014132432"><ele>198.79999999999998</ele><time>2026-04-19T11:58:06Z</time></trkpt><trkpt lat="49.223691601459414" lon="6.476564095320637"><ele>198.6</ele><time>2026-04-19T11:58:07Z</time></trkpt><trkpt lat="49.22368811343811" lon="6.4767181657538"><ele>198.4</ele><time>2026-04-19T11:58:08Z</time></trkpt><trkpt lat="49.223670437380704" lon="6.4768722890624275"><ele>198.2</ele><time>2026-04-19T11:58:09Z</time></trkpt><trkpt lat="49.223657388681865" lon="6.477042816332508"><ele>198.0</ele><time>2026-04-19T11:58:10Z</time></trkpt><trkpt lat="49.22364296006855" lon="6.477197614486348"><ele>198.0</ele><time>2026-04-19T11:58:11Z</time></trkpt><trkpt lat="49.22363064601662" lon="6.477353688639286"><ele>198.0</ele><time>2026-04-19T11:58:12Z</time></trkpt><trkpt lat="49.22361327867871" lon="6.477527153780605"><ele>198.0</ele><time>2026-04-19T11:58:13Z</time></trkpt><trkpt lat="49.223597944550505" lon="6.477692674040811"><ele>198.0</ele><time>2026-04-19T11:58:14Z</time></trkpt><trkpt lat="49.22357020342235" lon="6.477854347369254"><ele>198.0</ele><time>2026-04-19T11:58:15Z</time></trkpt><trkpt lat="49.223562114958995" lon="6.4780146692889735"><ele>198.33333333333334</ele><time>2026-04-19T11:58:16Z</time></trkpt><trkpt lat="49.22355672958993" lon="6.478158614142161"><ele>198.66666666666669</ele><time>2026-04-19T11:58:17Z</time></trkpt><trkpt lat="49.22354779152938" lon="6.478283140241955"><ele>199.0</ele><time>2026-04-19T11:58:18Z</time></trkpt><trkpt lat="49.22352152392197" lon="6.478376648330045"><ele>199.33333333333334</ele><time>2026-04-19T11:58:19Z</time></trkpt><trkpt lat="49.223503531060814" lon="6.478476923131364"><ele>199.66666666666669</ele><time>2026-04-19T11:58:20Z</time></trkpt><trkpt lat="49.22342501866453" lon="6.478462333193796"><ele>200.0</ele><time>2026-04-19T11:58:23Z</time></trkpt><trkpt lat="49.22329748032159" lon="6.478500045159228"><ele>200.0</ele><time>2026-04-19T11:58:25Z</time></trkpt><trkpt lat="49.2232130566488" lon="6.478509423785229"><ele>200.0</ele><time>2026-04-19T11:58:26Z</time></trkpt><trkpt lat="49.223133779336436" lon="6.478533778093188"><ele>200.0</ele><time>2026-04-19T11:58:27Z</time></trkpt><trkpt lat="49.2230622161188" lon="6.47854535502107"><ele>200.0</ele><time>2026-04-19T11:58:28Z</time></trkpt><trkpt lat="49.223032143825094" lon="6.47868383859798"><ele>200.0</ele><time>2026-04-19T11:58:29Z</time></trkpt><trkpt lat="49.22292042940971" lon="6.478794912130236"><ele>199.83333333333334</ele><time>2026-04-19T11:58:31Z</time></trkpt><trkpt lat="49.22284396177619" lon="6.478794915767836"><ele>199.66666666666669</ele><time>2026-04-19T11:58:32Z</time></trkpt><trkpt lat="49.222760957004574" lon="6.478822414089642"><ele>199.5</ele><time>2026-04-19T11:58:33Z</time></trkpt><trkpt lat="49.22269295633341" lon="6.4788695243548835"><ele>199.33333333333331</ele><time>2026-04-19T11:58:34Z</time></trkpt><trkpt lat="49.22264625514669" lon="6.478945761623084"><ele>199.16666666666666</ele><time>2026-04-19T11:58:35Z</time></trkpt><trkpt lat="49.222606211571026" lon="6.479077185434048"><ele>199.0</ele><time>2026-04-19T11:58:37Z</time></trkpt><trkpt lat="49.22259069943814" lon="6.479172529260201"><ele>199.0</ele><time>2026-04-19T11:58:39Z</time></trkpt><trkpt lat="49.22274447700539" lon="6.479247010751138"><ele>199.0</ele><time>2026-04-19T11:58:40Z</time></trkpt><trkpt lat="49.222828029834936" lon="6.479299932655719"><ele>199.0</ele><time>2026-04-19T11:58:41Z</time></trkpt><trkpt lat="49.22289085316411" lon="6.479380562039954"><ele>199.0</ele><time>2026-04-19T11:58:42Z</time></trkpt><trkpt lat="49.222919649679945" lon="6.479478933593135"><ele>199.0</ele><time>2026-04-19T11:58:43Z</time></trkpt><trkpt lat="49.222886175234606" lon="6.479594432742117"><ele>199.2</ele><time>2026-04-19T11:58:44Z</time></trkpt><trkpt lat="49.2228948306058" lon="6.479737528304328"><ele>199.39999999999998</ele><time>2026-04-19T11:58:45Z</time></trkpt><trkpt lat="49.222883634904285" lon="6.479891022273646"><ele>199.6</ele><time>2026-04-19T11:58:46Z</time></trkpt><trkpt lat="49.22288027558046" lon="6.480056548079984"><ele>199.8</ele><time>2026-04-19T11:58:47Z</time></trkpt><trkpt lat="49.22287954682774" lon="6.480225194474195"><ele>200.0</ele><time>2026-04-19T11:58:48Z</time></trkpt><trkpt lat="49.22289262279999" lon="6.480405646559319"><ele>200.4</ele><time>2026-04-19T11:58:49Z</time></trkpt><trkpt lat="49.222926803326345" lon="6.48058866149541"><ele>200.8</ele><time>2026-04-19T11:58:50Z</time></trkpt><trkpt lat="49.222967103498895" lon="6.480754989733422"><ele>201.2</ele><time>2026-04-19T11:58:51Z</time></trkpt><trkpt lat="49.22299911512738" lon="6.480891180860564"><ele>201.6</ele><time>2026-04-19T11:58:52Z</time></trkpt><trkpt lat="49.22302631003587" lon="6.481037776707481"><ele>202.0</ele><time>2026-04-19T11:58:53Z</time></trkpt><trkpt lat="49.223062547419495" lon="6.481185017699686"><ele>202.0</ele><time>2026-04-19T11:58:54Z</time></trkpt><trkpt lat="49.223110302419975" lon="6.481339279504638"><ele>202.0</ele><time>2026-04-19T11:58:55Z</time></trkpt><trkpt lat="49.22313671851706" lon="6.481497151017514"><ele>202.0</ele><time>2026-04-19T11:58:56Z</time></trkpt><trkpt lat="49.223144255895676" lon="6.481659352706853"><ele>202.0</ele><time>2026-04-19T11:58:57Z</time></trkpt><trkpt lat="49.223154071909505" lon="6.481809613975606"><ele>202.0</ele><time>2026-04-19T11:58:58Z</time></trkpt><trkpt lat="49.22317002287249" lon="6.481961369059266"><ele>202.2</ele><time>2026-04-19T11:58:59Z</time></trkpt><trkpt lat="49.223184614233446" lon="6.482110772482309"><ele>202.39999999999998</ele><time>2026-04-19T11:59:00Z</time></trkpt><trkpt lat="49.22317142038174" lon="6.482264184794582"><ele>202.60000000000002</ele><time>2026-04-19T11:59:01Z</time></trkpt><trkpt lat="49.223124940275056" lon="6.482408609915363"><ele>202.8</ele><time>2026-04-19T11:59:02Z</time></trkpt><trkpt lat="49.223073068196264" lon="6.482576958470793"><ele>203.0</ele><time>2026-04-19T11:59:03Z</time></trkpt><trkpt lat="49.223037713882434" lon="6.482761578365519"><ele>203.25</ele><time>2026-04-19T11:59:04Z</time></trkpt><trkpt lat="49.22299957919284" lon="6.4829620748745596"><ele>203.5</ele><time>2026-04-19T11:59:05Z</time></trkpt><trkpt lat="49.22295668333434" lon="6.483161319162286"><ele>203.75</ele><time>2026-04-19T11:59:06Z</time></trkpt><trkpt lat="49.22291418966824" lon="6.483349796005768"><ele>204.0</ele><time>2026-04-19T11:59:07Z</time></trkpt><trkpt lat="49.22287541033696" lon="6.483538761305606"><ele>204.0</ele><time>2026-04-19T11:59:08Z</time></trkpt><trkpt lat="49.222851437970476" lon="6.483733609946918"><ele>204.0</ele><time>2026-04-19T11:59:09Z</time></trkpt><trkpt lat="49.22283979009476" lon="6.483933272986589"><ele>204.0</ele><time>2026-04-19T11:59:10Z</time></trkpt><trkpt lat="49.2228348464344" lon="6.484134058710476"><ele>204.0</ele><time>2026-04-19T11:59:11Z</time></trkpt><trkpt lat="49.22282632029872" lon="6.484333393291798"><ele>204.5</ele><time>2026-04-19T11:59:12Z</time></trkpt><trkpt lat="49.22281463739101" lon="6.484536423219077"><ele>205.0</ele><time>2026-04-19T11:59:13Z</time></trkpt><trkpt lat="49.22280331170659" lon="6.484744848231162"><ele>205.5</ele><time>2026-04-19T11:59:14Z</time></trkpt><trkpt lat="49.222777599660844" lon="6.484954968817257"><ele>206.0</ele><time>2026-04-19T11:59:15Z</time></trkpt><trkpt lat="49.22276446286876" lon="6.485160162741652"><ele>206.0</ele><time>2026-04-19T11:59:16Z</time></trkpt><trkpt lat="49.22274823440848" lon="6.485364851099758"><ele>206.0</ele><time>2026-04-19T11:59:17Z</time></trkpt><trkpt lat="49.22273609359614" lon="6.485557256377643"><ele>206.0</ele><time>2026-04-19T11:59:18Z</time></trkpt><trkpt lat="49.222712645594534" lon="6.485745273991794"><ele>206.0</ele><time>2026-04-19T11:59:19Z</time></trkpt><trkpt lat="49.22269228980937" lon="6.485930728391748"><ele>206.5</ele><time>2026-04-19T11:59:20Z</time></trkpt><trkpt lat="49.22267760240265" lon="6.486123961969547"><ele>207.0</ele><time>2026-04-19T11:59:21Z</time></trkpt><trkpt lat="49.222664178356176" lon="6.486317402009927"><ele>207.5</ele><time>2026-04-19T11:59:22Z</time></trkpt><trkpt lat="49.22265277619984" lon="6.486507140470195"><ele>208.0</ele><time>2026-04-19T11:59:23Z</time></trkpt><trkpt lat="49.222642757956" lon="6.486676027768452"><ele>207.99999999999997</ele><time>2026-04-19T11:59:24Z</time></trkpt><trkpt lat="49.22263305552166" lon="6.486829538110278"><ele>208.0</ele><time>2026-04-19T11:59:25Z</time></trkpt><trkpt lat="49.222625464386866" lon="6.486973488970842"><ele>208.0</ele><time>2026-04-19T11:59:26Z</time></trkpt><trkpt lat="49.22261946018495" lon="6.487098028269458"><ele>208.0</ele><time>2026-04-19T11:59:27Z</time></trkpt><trkpt lat="49.22261378858202" lon="6.48720741537268"><ele>207.99999999999997</ele><time>2026-04-19T11:59:28Z</time></trkpt><trkpt lat="49.22259921902729" lon="6.487329585306143"><ele>208.0</ele><time>2026-04-19T11:59:30Z</time></trkpt><trkpt lat="49.22257610394345" lon="6.487446635135304"><ele>208.2</ele><time>2026-04-19T11:59:56Z</time></trkpt><trkpt lat="49.2226840293331" lon="6.487565379610945"><ele>208.4</ele><time>2026-04-19T11:59:59Z</time></trkpt><trkpt lat="49.22275952196772" lon="6.487580689359124"><ele>208.6</ele><time>2026-04-19T12:00:00Z</time></trkpt><trkpt lat="49.22290296909585" lon="6.487613799775666"><ele>208.79999999999998</ele><time>2026-04-19T12:00:02Z</time></trkpt><trkpt lat="49.22299614943312" lon="6.487641005574373"><ele>209.0</ele><time>2026-04-19T12:00:03Z</time></trkpt><trkpt lat="49.223070830162996" lon="6.487670353819477"><ele>209.0</ele><time>2026-04-19T12:00:04Z</time></trkpt><trkpt lat="49.22314189051721" lon="6.487691599453265"><ele>209.0</ele><time>2026-04-19T12:00:05Z</time></trkpt><trkpt lat="49.22321229017353" lon="6.487770767223606"><ele>209.0</ele><time>2026-04-19T12:00:07Z</time></trkpt><trkpt lat="49.2231781300024" lon="6.487969380977824"><ele>209.0</ele><time>2026-04-19T12:00:09Z</time></trkpt><trkpt lat="49.22315990107503" lon="6.488142887335269"><ele>209.0</ele><time>2026-04-19T12:00:10Z</time></trkpt><trkpt lat="49.22312972802818" lon="6.488337690857306"><ele>209.0</ele><time>2026-04-19T12:00:11Z</time></trkpt><trkpt lat="49.22310078829698" lon="6.488554435610863"><ele>209.0</ele><time>2026-04-19T12:00:12Z</time></trkpt><trkpt lat="49.223069186729866" lon="6.488802591813726"><ele>209.0</ele><time>2026-04-19T12:00:13Z</time></trkpt><trkpt lat="49.22303642538879" lon="6.489028590777776"><ele>209.79999999999998</ele><time>2026-04-19T12:00:14Z</time></trkpt><trkpt lat="49.22300985608664" lon="6.4892188019443005"><ele>210.6</ele><time>2026-04-19T12:00:15Z</time></trkpt><trkpt lat="49.222994670435206" lon="6.489390452984645"><ele>211.4</ele><time>2026-04-19T12:00:16Z</time></trkpt><trkpt lat="49.222991075929926" lon="6.489532022591748"><ele>212.2</ele><time>2026-04-19T12:00:17Z</time></trkpt><trkpt lat="49.22300328803374" lon="6.489653204760112"><ele>213.0</ele><time>2026-04-19T12:00:18Z</time></trkpt><trkpt lat="49.2230324111356" lon="6.489761153725769"><ele>214.2</ele><time>2026-04-19T12:00:19Z</time></trkpt><trkpt lat="49.22308188104652" lon="6.489872448924052"><ele>215.4</ele><time>2026-04-19T12:00:20Z</time></trkpt><trkpt lat="49.22314093557006" lon="6.490009765159142"><ele>216.59999999999997</ele><time>2026-04-19T12:00:21Z</time></trkpt><trkpt lat="49.223190456611135" lon="6.490140104720592"><ele>217.79999999999998</ele><time>2026-04-19T12:00:22Z</time></trkpt><trkpt lat="49.22324474412807" lon="6.49027155156109"><ele>219.0</ele><time>2026-04-19T12:00:23Z</time></trkpt><trkpt lat="49.22330357261567" lon="6.490403453595589"><ele>220.39999999999998</ele><time>2026-04-19T12:00:24Z</time></trkpt><trkpt lat="49.22335647955646" lon="6.490543994230235"><ele>221.79999999999998</ele><time>2026-04-19T12:00:25Z</time></trkpt><trkpt lat="49.2234001445469" lon="6.4906797743279485"><ele>223.20000000000002</ele><time>2026-04-19T12:00:26Z</time></trkpt><trkpt lat="49.22340966429383" lon="6.490800174593115"><ele>224.60000000000002</ele><time>2026-04-19T12:00:27Z</time></trkpt><trkpt lat="49.22335895465404" lon="6.490899302482424"><ele>226.0</ele><time>2026-04-19T12:00:28Z</time></trkpt><trkpt lat="49.22331860653134" lon="6.491041356171843"><ele>226.0</ele><time>2026-04-19T12:00:29Z</time></trkpt><trkpt lat="49.2232610156619" lon="6.4912023090176145"><ele>226.0</ele><time>2026-04-19T12:00:30Z</time></trkpt><trkpt lat="49.22317006527657" lon="6.491368634022646"><ele>226.0</ele><time>2026-04-19T12:00:31Z</time></trkpt><trkpt lat="49.22308254494921" lon="6.491544231919426"><ele>226.0</ele><time>2026-04-19T12:00:32Z</time></trkpt><trkpt lat="49.223001435021004" lon="6.491721427776491"><ele>226.60000000000002</ele><time>2026-04-19T12:00:33Z</time></trkpt><trkpt lat="49.22293683354646" lon="6.491871228726258"><ele>227.20000000000002</ele><time>2026-04-19T12:00:34Z</time></trkpt><trkpt lat="49.22288653798734" lon="6.492016748839888"><ele>227.79999999999998</ele><time>2026-04-19T12:00:35Z</time></trkpt><trkpt lat="49.222854607328216" lon="6.492165162080853"><ele>228.39999999999998</ele><time>2026-04-19T12:00:36Z</time></trkpt><trkpt lat="49.22283541724442" lon="6.492323507809763"><ele>229.0</ele><time>2026-04-19T12:00:37Z</time></trkpt><trkpt lat="49.22281139791428" lon="6.492495616554631"><ele>230.2</ele><time>2026-04-19T12:00:38Z</time></trkpt><trkpt lat="49.222779134361204" lon="6.492668760470632"><ele>231.39999999999998</ele><time>2026-04-19T12:00:39Z</time></trkpt><trkpt lat="49.22274434232286" lon="6.49283097333666"><ele>232.6</ele><time>2026-04-19T12:00:40Z</time></trkpt><trkpt lat="49.22271144381061" lon="6.492981950300024"><ele>233.8</ele><time>2026-04-19T12:00:41Z</time></trkpt><trkpt lat="49.22267354093102" lon="6.493133958705713"><ele>235.0</ele><time>2026-04-19T12:00:42Z</time></trkpt><trkpt lat="49.222641672464924" lon="6.493288714729237"><ele>236.0</ele><time>2026-04-19T12:00:43Z</time></trkpt><trkpt lat="49.222608506796696" lon="6.4934395071989"><ele>237.0</ele><time>2026-04-19T12:00:44Z</time></trkpt><trkpt lat="49.22256871625137" lon="6.4935975716250205"><ele>238.0</ele><time>2026-04-19T12:00:45Z</time></trkpt><trkpt lat="49.22253086792004" lon="6.493756122241597"><ele>239.0</ele><time>2026-04-19T12:00:46Z</time></trkpt><trkpt lat="49.2224958351192" lon="6.4939116126484855"><ele>240.0</ele><time>2026-04-19T12:00:47Z</time></trkpt><trkpt lat="49.2224583964788" lon="6.49406764180999"><ele>240.4</ele><time>2026-04-19T12:00:48Z</time></trkpt><trkpt lat="49.222465614966254" lon="6.494247566565756"><ele>240.8</ele><time>2026-04-19T12:00:49Z</time></trkpt><trkpt lat="49.22248663646836" lon="6.494412354526284"><ele>241.2</ele><time>2026-04-19T12:00:50Z</time></trkpt><trkpt lat="49.22250399009128" lon="6.494556857214001"><ele>241.6</ele><time>2026-04-19T12:00:51Z</time></trkpt><trkpt lat="49.222532155209954" lon="6.494711899775133"><ele>242.0</ele><time>2026-04-19T12:00:52Z</time></trkpt><trkpt lat="49.222557409273556" lon="6.494874852867175"><ele>242.2</ele><time>2026-04-19T12:00:53Z</time></trkpt><trkpt lat="49.22258636883858" lon="6.495042286562744"><ele>242.39999999999998</ele><time>2026-04-19T12:00:54Z</time></trkpt><trkpt lat="49.22262064634015" lon="6.495209344146261"><ele>242.60000000000002</ele><time>2026-04-19T12:00:55Z</time></trkpt><trkpt lat="49.22265968869904" lon="6.495371891825976"><ele>242.8</ele><time>2026-04-19T12:00:56Z</time></trkpt><trkpt lat="49.22270139315722" lon="6.495516305608306"><ele>243.0</ele><time>2026-04-19T12:00:57Z</time></trkpt><trkpt lat="49.22273483489034" lon="6.495664826759395"><ele>243.0</ele><time>2026-04-19T12:00:58Z</time></trkpt><trkpt lat="49.22278113293469" lon="6.495817781026918"><ele>243.0</ele><time>2026-04-19T12:00:59Z</time></trkpt><trkpt lat="49.222833516380845" lon="6.495974170520214"><ele>243.0</ele><time>2026-04-19T12:01:00Z</time></trkpt><trkpt lat="49.222889187163275" lon="6.496135065288752"><ele>243.0</ele><time>2026-04-19T12:01:01Z</time></trkpt><trkpt lat="49.222944315895916" lon="6.496292615884852"><ele>242.5</ele><time>2026-04-19T12:01:02Z</time></trkpt><trkpt lat="49.223007025878104" lon="6.496445727486083"><ele>242.0</ele><time>2026-04-19T12:01:03Z</time></trkpt><trkpt lat="49.223073681536654" lon="6.496595701806879"><ele>241.5</ele><time>2026-04-19T12:01:04Z</time></trkpt><trkpt lat="49.223136158742484" lon="6.496748835376597"><ele>241.0</ele><time>2026-04-19T12:01:05Z</time></trkpt><trkpt lat="49.22320065728741" lon="6.496903091502012"><ele>242.25</ele><time>2026-04-19T12:01:06Z</time></trkpt><trkpt lat="49.22326553556665" lon="6.497054006875225"><ele>243.5</ele><time>2026-04-19T12:01:07Z</time></trkpt><trkpt lat="49.22334437909572" lon="6.4971922488209195"><ele>244.75</ele><time>2026-04-19T12:01:08Z</time></trkpt><trkpt lat="49.22340885846644" lon="6.497342917613748"><ele>246.0</ele><time>2026-04-19T12:01:09Z</time></trkpt><trkpt lat="49.22347408823526" lon="6.497498668080668"><ele>246.0</ele><time>2026-04-19T12:01:10Z</time></trkpt><trkpt lat="49.22353021308274" lon="6.4976570994872285"><ele>246.0</ele><time>2026-04-19T12:01:11Z</time></trkpt><trkpt lat="49.22360856163463" lon="6.497786963552009"><ele>246.0</ele><time>2026-04-19T12:01:12Z</time></trkpt><trkpt lat="49.22366444887342" lon="6.497947325821234"><ele>246.0</ele><time>2026-04-19T12:01:13Z</time></trkpt><trkpt lat="49.22374796501663" lon="6.498060756401679"><ele>245.4</ele><time>2026-04-19T12:01:14Z</time></trkpt><trkpt lat="49.22383839036819" lon="6.498182586656532"><ele>244.8</ele><time>2026-04-19T12:01:15Z</time></trkpt><trkpt lat="49.22389519375408" lon="6.4983307294080115"><ele>244.20000000000002</ele><time>2026-04-19T12:01:16Z</time></trkpt><trkpt lat="49.22395662257442" lon="6.49846502243184"><ele>243.60000000000002</ele><time>2026-04-19T12:01:17Z</time></trkpt><trkpt lat="49.224009042068204" lon="6.498611933577827"><ele>243.0</ele><time>2026-04-19T12:01:18Z</time></trkpt><trkpt lat="49.22405506551014" lon="6.498780743251672"><ele>244.75</ele><time>2026-04-19T12:01:19Z</time></trkpt><trkpt lat="49.2240846550557" lon="6.498959386818291"><ele>246.5</ele><time>2026-04-19T12:01:20Z</time></trkpt><trkpt lat="49.2241044903159" lon="6.499150194983588"><ele>248.25</ele><time>2026-04-19T12:01:21Z</time></trkpt><trkpt lat="49.224114200487485" lon="6.499335445436688"><ele>250.0</ele><time>2026-04-19T12:01:22Z</time></trkpt><trkpt lat="49.22411259192053" lon="6.499520233469429"><ele>251.25</ele><time>2026-04-19T12:01:23Z</time></trkpt><trkpt lat="49.2240996389172" lon="6.4997001283831715"><ele>252.5</ele><time>2026-04-19T12:01:24Z</time></trkpt><trkpt lat="49.22407990337969" lon="6.499885671510891"><ele>253.75</ele><time>2026-04-19T12:01:25Z</time></trkpt><trkpt lat="49.22404848715993" lon="6.500071557003503"><ele>255.0</ele><time>2026-04-19T12:01:26Z</time></trkpt><trkpt lat="49.22403235918028" lon="6.500259246051795"><ele>255.0</ele><time>2026-04-19T12:01:27Z</time></trkpt><trkpt lat="49.22400533851792" lon="6.500443405506156"><ele>255.0</ele><time>2026-04-19T12:01:28Z</time></trkpt><trkpt lat="49.22398546431529" lon="6.500629846950742"><ele>255.0</ele><time>2026-04-19T12:01:29Z</time></trkpt><trkpt lat="49.223996063999294" lon="6.500814302796015"><ele>255.0</ele><time>2026-04-19T12:01:30Z</time></trkpt><trkpt lat="49.22400698505308" lon="6.500997921810311"><ele>255.0</ele><time>2026-04-19T12:01:31Z</time></trkpt><trkpt lat="49.224022615776725" lon="6.501180656856567"><ele>255.0</ele><time>2026-04-19T12:01:32Z</time></trkpt><trkpt lat="49.22405113154694" lon="6.5013676886310545"><ele>255.0</ele><time>2026-04-19T12:01:33Z</time></trkpt><trkpt lat="49.224085805943886" lon="6.5015435573946325"><ele>255.0</ele><time>2026-04-19T12:01:34Z</time></trkpt><trkpt lat="49.22412314582266" lon="6.501709206027835"><ele>254.75</ele><time>2026-04-19T12:01:35Z</time></trkpt><trkpt lat="49.22416863246344" lon="6.501870263956974"><ele>254.5</ele><time>2026-04-19T12:01:36Z</time></trkpt><trkpt lat="49.22422929029183" lon="6.502017624286907"><ele>254.25</ele><time>2026-04-19T12:01:37Z</time></trkpt><trkpt lat="49.224293469814036" lon="6.502166913446664"><ele>254.0</ele><time>2026-04-19T12:01:38Z</time></trkpt><trkpt lat="49.224345150040165" lon="6.50232560652754"><ele>253.5</ele><time>2026-04-19T12:01:39Z</time></trkpt><trkpt lat="49.224410278224624" lon="6.502478942954133"><ele>253.0</ele><time>2026-04-19T12:01:40Z</time></trkpt><trkpt lat="49.22448838835613" lon="6.502617472116435"><ele>252.5</ele><time>2026-04-19T12:01:41Z</time></trkpt><trkpt lat="49.22455080645794" lon="6.502771455544453"><ele>252.0</ele><time>2026-04-19T12:01:42Z</time></trkpt><trkpt lat="49.22460607677557" lon="6.5029189214366285"><ele>252.0</ele><time>2026-04-19T12:01:43Z</time></trkpt><trkpt lat="49.22462827909593" lon="6.503089086214075"><ele>252.0</ele><time>2026-04-19T12:01:44Z</time></trkpt><trkpt lat="49.224651019578836" lon="6.503246768401826"><ele>252.0</ele><time>2026-04-19T12:01:45Z</time></trkpt><trkpt lat="49.22464913223519" lon="6.50342037608005"><ele>252.0</ele><time>2026-04-19T12:01:46Z</time></trkpt><trkpt lat="49.22466987354679" lon="6.503595927208476"><ele>252.0</ele><time>2026-04-19T12:01:47Z</time></trkpt><trkpt lat="49.22472743847659" lon="6.50376232761834"><ele>252.25</ele><time>2026-04-19T12:01:48Z</time></trkpt><trkpt lat="49.22478540636567" lon="6.50392962511547"><ele>252.5</ele><time>2026-04-19T12:01:49Z</time></trkpt><trkpt lat="49.22481115325423" lon="6.504102036832481"><ele>252.75</ele><time>2026-04-19T12:01:50Z</time></trkpt><trkpt lat="49.224822684501255" lon="6.5042564698896195"><ele>253.0</ele><time>2026-04-19T12:01:51Z</time></trkpt><trkpt lat="49.224822666101886" lon="6.504435744348516"><ele>256.25</ele><time>2026-04-19T12:01:52Z</time></trkpt><trkpt lat="49.224822333569826" lon="6.504640933897443"><ele>259.5</ele><time>2026-04-19T12:01:53Z</time></trkpt><trkpt lat="49.2248378512684" lon="6.504836060089725"><ele>262.75</ele><time>2026-04-19T12:01:54Z</time></trkpt><trkpt lat="49.22485946335641" lon="6.505027163857449"><ele>266.0</ele><time>2026-04-19T12:01:55Z</time></trkpt><trkpt lat="49.224875757460445" lon="6.5052147944283"><ele>266.0</ele><time>2026-04-19T12:01:56Z</time></trkpt><trkpt lat="49.22488776934368" lon="6.505396421308163"><ele>266.0</ele><time>2026-04-19T12:01:57Z</time></trkpt><trkpt lat="49.22488546743336" lon="6.505579595322541"><ele>266.0</ele><time>2026-04-19T12:01:58Z</time></trkpt><trkpt lat="49.22489022410282" lon="6.505769454572925"><ele>266.0</ele><time>2026-04-19T12:01:59Z</time></trkpt><trkpt lat="49.224880582607334" lon="6.505949701709181"><ele>266.25</ele><time>2026-04-19T12:02:00Z</time></trkpt><trkpt lat="49.22485780054927" lon="6.506111531325652"><ele>266.5</ele><time>2026-04-19T12:02:01Z</time></trkpt><trkpt lat="49.22482598574981" lon="6.506275422121232"><ele>266.75</ele><time>2026-04-19T12:02:02Z</time></trkpt><trkpt lat="49.224787617256524" lon="6.506449496974374"><ele>267.0</ele><time>2026-04-19T12:02:03Z</time></trkpt><trkpt lat="49.2247606802389" lon="6.506638801390931"><ele>265.5</ele><time>2026-04-19T12:02:04Z</time></trkpt><trkpt lat="49.224721184057756" lon="6.506818688609927"><ele>264.0</ele><time>2026-04-19T12:02:05Z</time></trkpt><trkpt lat="49.22466651838997" lon="6.506987812237956"><ele>262.5</ele><time>2026-04-19T12:02:06Z</time></trkpt><trkpt lat="49.224627813483146" lon="6.507158662819882"><ele>261.0</ele><time>2026-04-19T12:02:07Z</time></trkpt><trkpt lat="49.224594901198046" lon="6.507298567820177"><ele>261.0</ele><time>2026-04-19T12:02:08Z</time></trkpt><trkpt lat="49.22458074855314" lon="6.50743040988035"><ele>261.0</ele><time>2026-04-19T12:02:09Z</time></trkpt><trkpt lat="49.224549012298574" lon="6.50754595108347"><ele>261.0</ele><time>2026-04-19T12:02:10Z</time></trkpt><trkpt lat="49.22451303276595" lon="6.507644092145867"><ele>261.0</ele><time>2026-04-19T12:02:11Z</time></trkpt><trkpt lat="49.224491060940984" lon="6.50780462448695"><ele>261.0</ele><time>2026-04-19T12:02:13Z</time></trkpt><trkpt lat="49.22448549887888" lon="6.507935240165706"><ele>261.0</ele><time>2026-04-19T12:02:15Z</time></trkpt><trkpt lat="49.2245712723973" lon="6.507989791841391"><ele>262.0</ele><time>2026-04-19T12:02:17Z</time></trkpt><trkpt lat="49.22466193788186" lon="6.507990014097135"><ele>263.0</ele><time>2026-04-19T12:02:19Z</time></trkpt><trkpt lat="49.22472947345729" lon="6.50798693649477"><ele>264.0</ele><time>2026-04-19T12:02:22Z</time></trkpt><trkpt lat="49.22483215873036" lon="6.508008993221981"><ele>265.0</ele><time>2026-04-19T12:02:44Z</time></trkpt><trkpt lat="49.22492973811215" lon="6.508031818526539"><ele>266.0</ele><time>2026-04-19T12:02:46Z</time></trkpt><trkpt lat="49.22501230513744" lon="6.50809756815588"><ele>267.0</ele><time>2026-04-19T12:02:48Z</time></trkpt><trkpt lat="49.22506070797397" lon="6.508172369339609"><ele>268.0</ele><time>2026-04-19T12:02:50Z</time></trkpt><trkpt lat="49.22512438521203" lon="6.5082281359029635"><ele>269.0</ele><time>2026-04-19T12:02:53Z</time></trkpt><trkpt lat="49.22515298055339" lon="6.508378465716255"><ele>270.0</ele><time>2026-04-19T12:02:56Z</time></trkpt><trkpt lat="49.22507312283964" lon="6.508577843957771"><ele>271.0</ele><time>2026-04-19T12:02:58Z</time></trkpt><trkpt lat="49.2250361609196" lon="6.508701782200924"><ele>270.3333333333333</ele><time>2026-04-19T12:02:59Z</time></trkpt><trkpt lat="49.22501903988788" lon="6.508813002971571"><ele>269.66666666666663</ele><time>2026-04-19T12:03:00Z</time></trkpt><trkpt lat="49.22499852060744" lon="6.508917452340365"><ele>269.0</ele><time>2026-04-19T12:03:01Z</time></trkpt><trkpt lat="49.22499721164212" lon="6.50903125489943"><ele>268.3333333333333</ele><time>2026-04-19T12:03:02Z</time></trkpt><trkpt lat="49.22501216592083" lon="6.509166867045981"><ele>267.6666666666667</ele><time>2026-04-19T12:03:03Z</time></trkpt><trkpt lat="49.2250375221682" lon="6.509280496245817"><ele>267.0</ele><time>2026-04-19T12:03:04Z</time></trkpt><trkpt lat="49.22506826187376" lon="6.5093984161254586"><ele>267.0</ele><time>2026-04-19T12:03:05Z</time></trkpt><trkpt lat="49.225096547949114" lon="6.5095185371334185"><ele>267.0</ele><time>2026-04-19T12:03:06Z</time></trkpt><trkpt lat="49.2251043143033" lon="6.509636705803657"><ele>267.0</ele><time>2026-04-19T12:03:07Z</time></trkpt><trkpt lat="49.22511761055456" lon="6.509765259149719"><ele>267.0</ele><time>2026-04-19T12:03:08Z</time></trkpt><trkpt lat="49.22513203017408" lon="6.509894174796046"><ele>267.0</ele><time>2026-04-19T12:03:09Z</time></trkpt><trkpt lat="49.22515458982258" lon="6.509993792728465"><ele>267.0</ele><time>2026-04-19T12:03:10Z</time></trkpt><trkpt lat="49.225179520252496" lon="6.510109511636487"><ele>266.5</ele><time>2026-04-19T12:03:11Z</time></trkpt><trkpt lat="49.225219809255734" lon="6.51023834745748"><ele>266.0</ele><time>2026-04-19T12:03:12Z</time></trkpt><trkpt lat="49.22526802750729" lon="6.510374778862564"><ele>265.5</ele><time>2026-04-19T12:03:13Z</time></trkpt><trkpt lat="49.22531808527544" lon="6.510460400959623"><ele>265.0</ele><time>2026-04-19T12:03:14Z</time></trkpt><trkpt lat="49.22537543119534" lon="6.510552120339801"><ele>264.5</ele><time>2026-04-19T12:03:15Z</time></trkpt><trkpt lat="49.22542533509739" lon="6.510639280848286"><ele>264.0</ele><time>2026-04-19T12:03:16Z</time></trkpt><trkpt lat="49.22547286347588" lon="6.510728917647164"><ele>263.8333333333333</ele><time>2026-04-19T12:03:17Z</time></trkpt><trkpt lat="49.22549998767718" lon="6.5108277992116035"><ele>263.6666666666667</ele><time>2026-04-19T12:03:18Z</time></trkpt><trkpt lat="49.225536666524576" lon="6.510913952995441"><ele>263.5</ele><time>2026-04-19T12:03:19Z</time></trkpt><trkpt lat="49.22556231523443" lon="6.5110064273269375"><ele>263.33333333333337</ele><time>2026-04-19T12:03:20Z</time></trkpt><trkpt lat="49.22560060137601" lon="6.511126289745944"><ele>263.1666666666667</ele><time>2026-04-19T12:03:21Z</time></trkpt><trkpt lat="49.225615866601764" lon="6.5112425306204065"><ele>263.0</ele><time>2026-04-19T12:03:22Z</time></trkpt><trkpt lat="49.22561395706532" lon="6.511384365338203"><ele>262.6666666666667</ele><time>2026-04-19T12:03:23Z</time></trkpt><trkpt lat="49.225636813941456" lon="6.511525554808303"><ele>262.33333333333337</ele><time>2026-04-19T12:03:24Z</time></trkpt><trkpt lat="49.2256427149075" lon="6.511665822687779"><ele>262.0</ele><time>2026-04-19T12:03:25Z</time></trkpt><trkpt lat="49.22566894643825" lon="6.511791751337703"><ele>261.6666666666667</ele><time>2026-04-19T12:03:26Z</time></trkpt><trkpt lat="49.2256936148779" lon="6.511912115519036"><ele>261.3333333333333</ele><time>2026-04-19T12:03:27Z</time></trkpt><trkpt lat="49.22572901380836" lon="6.512031883805916"><ele>261.0</ele><time>2026-04-19T12:03:28Z</time></trkpt><trkpt lat="49.225755734575976" lon="6.512154269568221"><ele>262.0</ele><time>2026-04-19T12:03:29Z</time></trkpt><trkpt lat="49.22578448022148" lon="6.512270805769566"><ele>263.0</ele><time>2026-04-19T12:03:30Z</time></trkpt><trkpt lat="49.22581813800465" lon="6.5124019433717795"><ele>264.0</ele><time>2026-04-19T12:03:31Z</time></trkpt><trkpt lat="49.22584428172299" lon="6.51251545674737"><ele>265.0</ele><time>2026-04-19T12:03:32Z</time></trkpt><trkpt lat="49.22587859319244" lon="6.512635030674537"><ele>266.0</ele><time>2026-04-19T12:03:33Z</time></trkpt><trkpt lat="49.22590942914391" lon="6.5127512308698545"><ele>267.0</ele><time>2026-04-19T12:03:34Z</time></trkpt><trkpt lat="49.22593769715505" lon="6.512856888845596"><ele>266.42857142857144</ele><time>2026-04-19T12:03:35Z</time></trkpt><trkpt lat="49.22596543733741" lon="6.512955052172242"><ele>265.8571428571429</ele><time>2026-04-19T12:03:36Z</time></trkpt><trkpt lat="49.22599304875589" lon="6.513044065049923"><ele>265.2857142857143</ele><time>2026-04-19T12:03:37Z</time></trkpt><trkpt lat="49.22600617038276" lon="6.513139236382513"><ele>264.7142857142857</ele><time>2026-04-19T12:03:38Z</time></trkpt><trkpt lat="49.22604829119156" lon="6.51328651889859"><ele>264.1428571428571</ele><time>2026-04-19T12:03:40Z</time></trkpt><trkpt lat="49.22607488302865" lon="6.513382680165108"><ele>263.57142857142856</ele><time>2026-04-19T12:03:42Z</time></trkpt><trkpt lat="49.226100718047" lon="6.513477936621627"><ele>263.0</ele><time>2026-04-19T12:04:06Z</time></trkpt><trkpt lat="49.22614344605376" lon="6.513635479245659"><ele>263.0</ele><time>2026-04-19T12:04:08Z</time></trkpt><trkpt lat="49.226181729726555" lon="6.5137231032480285"><ele>263.0</ele><time>2026-04-19T12:04:09Z</time></trkpt><trkpt lat="49.22619790137692" lon="6.513829433429091"><ele>263.0</ele><time>2026-04-19T12:04:10Z</time></trkpt><trkpt lat="49.2262074065631" lon="6.513924873972847"><ele>263.0</ele><time>2026-04-19T12:04:11Z</time></trkpt><trkpt lat="49.22621201040893" lon="6.514035310074206"><ele>263.0</ele><time>2026-04-19T12:04:12Z</time></trkpt><trkpt lat="49.226205733229136" lon="6.514146608085367"><ele>263.0</ele><time>2026-04-19T12:04:13Z</time></trkpt><trkpt lat="49.22619107330432" lon="6.514248206377585"><ele>263.0</ele><time>2026-04-19T12:04:14Z</time></trkpt><trkpt lat="49.22617211263942" lon="6.514371378189197"><ele>261.25</ele><time>2026-04-19T12:04:15Z</time></trkpt><trkpt lat="49.22612057176102" lon="6.5145410224611"><ele>259.5</ele><time>2026-04-19T12:04:16Z</time></trkpt><trkpt lat="49.22607206504382" lon="6.514708481186355"><ele>257.75</ele><time>2026-04-19T12:04:17Z</time></trkpt><trkpt lat="49.22602947269303" lon="6.514894534744847"><ele>256.0</ele><time>2026-04-19T12:04:18Z</time></trkpt><trkpt lat="49.22598057474012" lon="6.515065608004201"><ele>255.20000000000002</ele><time>2026-04-19T12:04:19Z</time></trkpt><trkpt lat="49.22593577112047" lon="6.515228546374393"><ele>254.40000000000003</ele><time>2026-04-19T12:04:20Z</time></trkpt><trkpt lat="49.22589561436192" lon="6.515373426588582"><ele>253.6</ele><time>2026-04-19T12:04:21Z</time></trkpt><trkpt lat="49.22585790087284" lon="6.5155336485311635"><ele>252.8</ele><time>2026-04-19T12:04:22Z</time></trkpt><trkpt lat="49.225812982779985" lon="6.515691398735541"><ele>252.0</ele><time>2026-04-19T12:04:23Z</time></trkpt><trkpt lat="49.2257828571275" lon="6.5158511548966604"><ele>251.2</ele><time>2026-04-19T12:04:24Z</time></trkpt><trkpt lat="49.22576977711206" lon="6.516015955663632"><ele>250.39999999999998</ele><time>2026-04-19T12:04:25Z</time></trkpt><trkpt lat="49.2257595756259" lon="6.516178118288849"><ele>249.60000000000002</ele><time>2026-04-19T12:04:26Z</time></trkpt><trkpt lat="49.225749658000076" lon="6.516332443031642"><ele>248.8</ele><time>2026-04-19T12:04:27Z</time></trkpt><trkpt lat="49.22572317301854" lon="6.516493080451849"><ele>248.0</ele><time>2026-04-19T12:04:28Z</time></trkpt><trkpt lat="49.225704309495384" lon="6.516643572330133"><ele>246.8</ele><time>2026-04-19T12:04:29Z</time></trkpt><trkpt lat="49.22567490436511" lon="6.516796079328628"><ele>245.60000000000002</ele><time>2026-04-19T12:04:30Z</time></trkpt><trkpt lat="49.22562837983985" lon="6.516942596027934"><ele>244.39999999999998</ele><time>2026-04-19T12:04:31Z</time></trkpt><trkpt lat="49.22557336290501" lon="6.517102718697455"><ele>243.2</ele><time>2026-04-19T12:04:32Z</time></trkpt><trkpt lat="49.22553584790212" lon="6.517255373212719"><ele>242.0</ele><time>2026-04-19T12:04:33Z</time></trkpt><trkpt lat="49.22547698465971" lon="6.5173876321216335"><ele>240.6</ele><time>2026-04-19T12:04:34Z</time></trkpt><trkpt lat="49.22542724007178" lon="6.517539352861356"><ele>239.2</ele><time>2026-04-19T12:04:35Z</time></trkpt><trkpt lat="49.22537761447986" lon="6.517682531542239"><ele>237.8</ele><time>2026-04-19T12:04:36Z</time></trkpt><trkpt lat="49.2253183058245" lon="6.517792089743234"><ele>236.4</ele><time>2026-04-19T12:04:37Z</time></trkpt><trkpt lat="49.2252604567271" lon="6.5178902335967726"><ele>235.0</ele><time>2026-04-19T12:04:38Z</time></trkpt><trkpt lat="49.22520158881448" lon="6.517979009861316"><ele>234.99999999999997</ele><time>2026-04-19T12:04:39Z</time></trkpt><trkpt lat="49.225133967579936" lon="6.518059109268186"><ele>235.0</ele><time>2026-04-19T12:04:41Z</time></trkpt><trkpt lat="49.22508088095279" lon="6.518111530471625"><ele>235.0</ele><time>2026-04-19T12:05:05Z</time></trkpt><trkpt lat="49.22501391767196" lon="6.518140805135328"><ele>235.0</ele><time>2026-04-19T12:05:06Z</time></trkpt><trkpt lat="49.22495195354846" lon="6.518181826939912"><ele>234.99999999999997</ele><time>2026-04-19T12:05:07Z</time></trkpt><trkpt lat="49.224800726948224" lon="6.518214849345841"><ele>235.0</ele><time>2026-04-19T12:05:09Z</time></trkpt><trkpt lat="49.224696695549994" lon="6.5182105291154935"><ele>234.6</ele><time>2026-04-19T12:05:10Z</time></trkpt><trkpt lat="49.22458349897434" lon="6.518215946669574"><ele>234.2</ele><time>2026-04-19T12:05:11Z</time></trkpt><trkpt lat="49.224467028685375" lon="6.518221520899703"><ele>233.8</ele><time>2026-04-19T12:05:12Z</time></trkpt><trkpt lat="49.22436664810854" lon="6.518226324975388"><ele>233.4</ele><time>2026-04-19T12:05:13Z</time></trkpt><trkpt lat="49.22427914822174" lon="6.5182373192238385"><ele>233.0</ele><time>2026-04-19T12:05:14Z</time></trkpt><trkpt lat="49.22417762434078" lon="6.518250905781371"><ele>233.0</ele><time>2026-04-19T12:05:15Z</time></trkpt><trkpt lat="49.224070459073516" lon="6.518248076928983"><ele>233.0</ele><time>2026-04-19T12:05:16Z</time></trkpt><trkpt lat="49.22397615343074" lon="6.518257932206962"><ele>233.0</ele><time>2026-04-19T12:05:17Z</time></trkpt><trkpt lat="49.223864673642524" lon="6.518243096785791"><ele>233.0</ele><time>2026-04-19T12:05:18Z</time></trkpt><trkpt lat="49.22376072156871" lon="6.518253544084333"><ele>233.0</ele><time>2026-04-19T12:05:19Z</time></trkpt><trkpt lat="49.2236507011998" lon="6.518317919349"><ele>232.0</ele><time>2026-04-19T12:05:20Z</time></trkpt><trkpt lat="49.22354409344697" lon="6.518366867213677"><ele>231.0</ele><time>2026-04-19T12:05:21Z</time></trkpt><trkpt lat="49.22343946465559" lon="6.518419216859538"><ele>230.0</ele><time>2026-04-19T12:05:22Z</time></trkpt><trkpt lat="49.22333363142114" lon="6.518478435491171"><ele>229.0</ele><time>2026-04-19T12:05:23Z</time></trkpt><trkpt lat="49.22322516131464" lon="6.5185256908921545"><ele>228.0</ele><time>2026-04-19T12:05:24Z</time></trkpt><trkpt lat="49.223116557007025" lon="6.518575368372135"><ele>228.2</ele><time>2026-04-19T12:05:25Z</time></trkpt><trkpt lat="49.22301348904797" lon="6.518625201325243"><ele>228.4</ele><time>2026-04-19T12:05:26Z</time></trkpt><trkpt lat="49.22291432824742" lon="6.518675205883513"><ele>228.59999999999997</ele><time>2026-04-19T12:05:27Z</time></trkpt><trkpt lat="49.222813315802256" lon="6.518725453183321"><ele>228.79999999999998</ele><time>2026-04-19T12:05:28Z</time></trkpt><trkpt lat="49.22270546142111" lon="6.5187692211925805"><ele>229.0</ele><time>2026-04-19T12:05:29Z</time></trkpt><trkpt lat="49.222594499472365" lon="6.51881702063569"><ele>229.0</ele><time>2026-04-19T12:05:30Z</time></trkpt><trkpt lat="49.22248334715189" lon="6.518867904244728"><ele>229.0</ele><time>2026-04-19T12:05:31Z</time></trkpt><trkpt lat="49.22236772847907" lon="6.51891555745027"><ele>229.0</ele><time>2026-04-19T12:05:32Z</time></trkpt><trkpt lat="49.22225160540249" lon="6.518966425190207"><ele>229.0</ele><time>2026-04-19T12:05:33Z</time></trkpt><trkpt lat="49.222138745902804" lon="6.519019204364292"><ele>227.25</ele><time>2026-04-19T12:05:34Z</time></trkpt><trkpt lat="49.222021972633314" lon="6.519071898435511"><ele>225.5</ele><time>2026-04-19T12:05:35Z</time></trkpt><trkpt lat="49.22190965877618" lon="6.519121977326128"><ele>223.75</ele><time>2026-04-19T12:05:36Z</time></trkpt><trkpt lat="49.22179092897426" lon="6.519178534920213"><ele>222.0</ele><time>2026-04-19T12:05:37Z</time></trkpt><trkpt lat="49.22166913448125" lon="6.519241045582424"><ele>222.0</ele><time>2026-04-19T12:05:38Z</time></trkpt><trkpt lat="49.22155132889388" lon="6.519292400991702"><ele>222.0</ele><time>2026-04-19T12:05:39Z</time></trkpt><trkpt lat="49.22143751371825" lon="6.519338451590063"><ele>222.0</ele><time>2026-04-19T12:05:40Z</time></trkpt><trkpt lat="49.221331453959614" lon="6.519377670962982"><ele>222.0</ele><time>2026-04-19T12:05:41Z</time></trkpt><trkpt lat="49.22121699044781" lon="6.519419452778751"><ele>221.2</ele><time>2026-04-19T12:05:42Z</time></trkpt><trkpt lat="49.2211027844728" lon="6.519477513376534"><ele>220.39999999999998</ele><time>2026-04-19T12:05:43Z</time></trkpt><trkpt lat="49.220993032837946" lon="6.519524252496541"><ele>219.60000000000002</ele><time>2026-04-19T12:05:44Z</time></trkpt><trkpt lat="49.22088014724138" lon="6.519546182207031"><ele>218.8</ele><time>2026-04-19T12:05:45Z</time></trkpt><trkpt lat="49.22078389822868" lon="6.519556967781274"><ele>218.0</ele><time>2026-04-19T12:05:46Z</time></trkpt><trkpt lat="49.22067990992707" lon="6.519548749578426"><ele>217.2</ele><time>2026-04-19T12:05:47Z</time></trkpt><trkpt lat="49.22058000212697" lon="6.519531168523565"><ele>216.4</ele><time>2026-04-19T12:05:48Z</time></trkpt><trkpt lat="49.22046866364812" lon="6.519512656187328"><ele>215.59999999999997</ele><time>2026-04-19T12:05:49Z</time></trkpt><trkpt lat="49.22036522771419" lon="6.519489525613292"><ele>214.79999999999998</ele><time>2026-04-19T12:05:50Z</time></trkpt><trkpt lat="49.22026225795621" lon="6.519467239116264"><ele>214.0</ele><time>2026-04-19T12:05:51Z</time></trkpt><trkpt lat="49.22016309628563" lon="6.519484321502826"><ele>214.0</ele><time>2026-04-19T12:05:52Z</time></trkpt><trkpt lat="49.220058720171345" lon="6.519539247699916"><ele>213.99999999999997</ele><time>2026-04-19T12:05:53Z</time></trkpt><trkpt lat="49.219990004656054" lon="6.519643390506"><ele>213.99999999999997</ele><time>2026-04-19T12:05:54Z</time></trkpt><trkpt lat="49.21990634651405" lon="6.519755103500519"><ele>214.0</ele><time>2026-04-19T12:05:55Z</time></trkpt><trkpt lat="49.21982520935068" lon="6.519881163386502"><ele>214.0</ele><time>2026-04-19T12:05:56Z</time></trkpt><trkpt lat="49.21974945594101" lon="6.52002019474604"><ele>213.6</ele><time>2026-04-19T12:05:57Z</time></trkpt><trkpt lat="49.21967246713339" lon="6.520151890204069"><ele>213.2</ele><time>2026-04-19T12:05:58Z</time></trkpt><trkpt lat="49.21959805698424" lon="6.520264961021907"><ele>212.79999999999998</ele><time>2026-04-19T12:05:59Z</time></trkpt><trkpt lat="49.21952185062003" lon="6.520379115769538"><ele>212.39999999999998</ele><time>2026-04-19T12:06:00Z</time></trkpt><trkpt lat="49.219450979445156" lon="6.520486366364194"><ele>212.0</ele><time>2026-04-19T12:06:01Z</time></trkpt><trkpt lat="49.21937873984338" lon="6.520576608440117"><ele>212.0</ele><time>2026-04-19T12:06:02Z</time></trkpt><trkpt lat="49.21929428609985" lon="6.520656298147444"><ele>212.0</ele><time>2026-04-19T12:06:03Z</time></trkpt><trkpt lat="49.21922772248423" lon="6.520750146055137"><ele>212.0</ele><time>2026-04-19T12:06:04Z</time></trkpt><trkpt lat="49.21916728607644" lon="6.520839137189996"><ele>212.0</ele><time>2026-04-19T12:06:05Z</time></trkpt><trkpt lat="49.21909886870135" lon="6.520924510875488"><ele>212.0</ele><time>2026-04-19T12:06:06Z</time></trkpt><trkpt lat="49.21903373905249" lon="6.521025973639849"><ele>212.6</ele><time>2026-04-19T12:06:07Z</time></trkpt><trkpt lat="49.21896193712337" lon="6.521116992202536"><ele>213.2</ele><time>2026-04-19T12:06:08Z</time></trkpt><trkpt lat="49.21887885276671" lon="6.52119145965363"><ele>213.8</ele><time>2026-04-19T12:06:09Z</time></trkpt><trkpt lat="49.21878745668782" lon="6.521270188632505"><ele>214.4</ele><time>2026-04-19T12:06:10Z</time></trkpt><trkpt lat="49.21870028633019" lon="6.521297574845031"><ele>215.0</ele><time>2026-04-19T12:06:11Z</time></trkpt><trkpt lat="49.21863016873281" lon="6.521331082408197"><ele>215.50000000000003</ele><time>2026-04-19T12:06:12Z</time></trkpt><trkpt lat="49.21860361076097" lon="6.521488433323965"><ele>216.0</ele><time>2026-04-19T12:06:13Z</time></trkpt><trkpt lat="49.21855093061407" lon="6.5215872830496"><ele>216.5</ele><time>2026-04-19T12:06:15Z</time></trkpt><trkpt lat="49.21850995850519" lon="6.521662694723882"><ele>217.0</ele><time>2026-04-19T12:06:17Z</time></trkpt><trkpt lat="49.21854535978284" lon="6.521797351740534"><ele>217.50000000000003</ele><time>2026-04-19T12:06:18Z</time></trkpt><trkpt lat="49.218590226017575" lon="6.521911194340688"><ele>218.0</ele><time>2026-04-19T12:06:19Z</time></trkpt><trkpt lat="49.2186352982653" lon="6.522015169202325"><ele>218.4</ele><time>2026-04-19T12:06:20Z</time></trkpt><trkpt lat="49.2186625446877" lon="6.522104108215643"><ele>218.8</ele><time>2026-04-19T12:06:21Z</time></trkpt><trkpt lat="49.21871160332371" lon="6.522278256185021"><ele>219.2</ele><time>2026-04-19T12:06:23Z</time></trkpt><trkpt lat="49.21876856870193" lon="6.5224487269568705"><ele>219.6</ele><time>2026-04-19T12:06:25Z</time></trkpt><trkpt lat="49.21880634769518" lon="6.5225543949487035"><ele>220.0</ele><time>2026-04-19T12:06:26Z</time></trkpt><trkpt lat="49.21884534703945" lon="6.522661791094531"><ele>219.99999999999997</ele><time>2026-04-19T12:06:27Z</time></trkpt><trkpt lat="49.21888244010091" lon="6.522752373172337"><ele>220.0</ele><time>2026-04-19T12:06:28Z</time></trkpt><trkpt lat="49.21892113594422" lon="6.52283555884283"><ele>220.0</ele><time>2026-04-19T12:06:29Z</time></trkpt><trkpt lat="49.21896576387903" lon="6.522933899120849"><ele>220.0</ele><time>2026-04-19T12:06:30Z</time></trkpt><trkpt lat="49.219017360178185" lon="6.5230356490200565"><ele>219.99999999999997</ele><time>2026-04-19T12:06:31Z</time></trkpt><trkpt lat="49.219071373557775" lon="6.523143053522569"><ele>220.0</ele><time>2026-04-19T12:06:32Z</time></trkpt><trkpt lat="49.21912382775877" lon="6.523256946150688"><ele>219.2</ele><time>2026-04-19T12:06:33Z</time></trkpt><trkpt lat="49.21917064372682" lon="6.523358367860308"><ele>218.4</ele><time>2026-04-19T12:06:34Z</time></trkpt><trkpt lat="49.21921341829734" lon="6.523476987945097"><ele>217.60000000000002</ele><time>2026-04-19T12:06:35Z</time></trkpt><trkpt lat="49.21925142307525" lon="6.5236050404650126"><ele>216.8</ele><time>2026-04-19T12:06:36Z</time></trkpt><trkpt lat="49.21929069326633" lon="6.523743299751126"><ele>216.0</ele><time>2026-04-19T12:06:37Z</time></trkpt><trkpt lat="49.21933164122225" lon="6.523874772761581"><ele>216.0</ele><time>2026-04-19T12:06:38Z</time></trkpt><trkpt lat="49.219372080631274" lon="6.523993557155896"><ele>216.00000000000003</ele><time>2026-04-19T12:06:39Z</time></trkpt><trkpt lat="49.21942328133607" lon="6.524102972313544"><ele>216.00000000000003</ele><time>2026-04-19T12:06:40Z</time></trkpt><trkpt lat="49.21947985455344" lon="6.524207788931901"><ele>216.0</ele><time>2026-04-19T12:06:41Z</time></trkpt><trkpt lat="49.219543483544385" lon="6.524313175564495"><ele>216.0</ele><time>2026-04-19T12:06:42Z</time></trkpt><trkpt lat="49.21961878543863" lon="6.524406514682045"><ele>216.0</ele><time>2026-04-19T12:06:43Z</time></trkpt><trkpt lat="49.21969683623778" lon="6.524501110176085"><ele>216.00000000000003</ele><time>2026-04-19T12:06:44Z</time></trkpt><trkpt lat="49.21980263893839" lon="6.524533803090827"><ele>216.00000000000003</ele><time>2026-04-19T12:06:45Z</time></trkpt><trkpt lat="49.219890462458984" lon="6.524601228368989"><ele>216.0</ele><time>2026-04-19T12:06:46Z</time></trkpt><trkpt lat="49.21995695490682" lon="6.524693662734881"><ele>216.0</ele><time>2026-04-19T12:06:47Z</time></trkpt><trkpt lat="49.21999264852063" lon="6.524814461941999"><ele>216.0</ele><time>2026-04-19T12:06:48Z</time></trkpt><trkpt lat="49.21999021811561" lon="6.524954608526918"><ele>216.00000000000003</ele><time>2026-04-19T12:06:49Z</time></trkpt><trkpt lat="49.220018200872204" lon="6.525085215350402"><ele>216.00000000000003</ele><time>2026-04-19T12:06:50Z</time></trkpt><trkpt lat="49.22004021338015" lon="6.525221634418297"><ele>216.0</ele><time>2026-04-19T12:06:51Z</time></trkpt><trkpt lat="49.22007357184246" lon="6.525366206955987"><ele>216.0</ele><time>2026-04-19T12:06:52Z</time></trkpt><trkpt lat="49.22012749523624" lon="6.525492383774088"><ele>216.0</ele><time>2026-04-19T12:06:53Z</time></trkpt><trkpt lat="49.22018963065416" lon="6.525622326038981"><ele>216.00000000000003</ele><time>2026-04-19T12:06:54Z</time></trkpt><trkpt lat="49.2202553655693" lon="6.52574567798378"><ele>216.00000000000003</ele><time>2026-04-19T12:06:55Z</time></trkpt><trkpt lat="49.22031029692993" lon="6.525867100400125"><ele>216.0</ele><time>2026-04-19T12:06:56Z</time></trkpt><trkpt lat="49.22035910250081" lon="6.525989231009944"><ele>216.0</ele><time>2026-04-19T12:06:57Z</time></trkpt><trkpt lat="49.22040492614486" lon="6.526123098742886"><ele>216.33333333333334</ele><time>2026-04-19T12:06:58Z</time></trkpt><trkpt lat="49.22043833145356" lon="6.526251703169006"><ele>216.66666666666669</ele><time>2026-04-19T12:06:59Z</time></trkpt><trkpt lat="49.2204496775312" lon="6.526377317517449"><ele>217.0</ele><time>2026-04-19T12:07:00Z</time></trkpt><trkpt lat="49.220426326051985" lon="6.52648831754948"><ele>217.33333333333334</ele><time>2026-04-19T12:07:01Z</time></trkpt><trkpt lat="49.220361557224145" lon="6.526578757533893"><ele>217.66666666666669</ele><time>2026-04-19T12:07:02Z</time></trkpt><trkpt lat="49.220365075475335" lon="6.526709996874841"><ele>218.0</ele><time>2026-04-19T12:07:03Z</time></trkpt><trkpt lat="49.22039067382014" lon="6.526851112597443"><ele>218.0</ele><time>2026-04-19T12:07:04Z</time></trkpt><trkpt lat="49.220451991904575" lon="6.526976167729122"><ele>218.0</ele><time>2026-04-19T12:07:05Z</time></trkpt><trkpt lat="49.22052997411802" lon="6.52709756020187"><ele>218.0</ele><time>2026-04-19T12:07:06Z</time></trkpt><trkpt lat="49.22057884856242" lon="6.527244839519288"><ele>218.0</ele><time>2026-04-19T12:07:07Z</time></trkpt><trkpt lat="49.220643065723365" lon="6.527380867384924"><ele>218.0</ele><time>2026-04-19T12:07:08Z</time></trkpt><trkpt lat="49.220714012076634" lon="6.527493056623155"><ele>218.00000000000003</ele><time>2026-04-19T12:07:09Z</time></trkpt><trkpt lat="49.22077042496226" lon="6.52761188692562"><ele>218.0</ele><time>2026-04-19T12:07:10Z</time></trkpt><trkpt lat="49.220830730909015" lon="6.527708761595773"><ele>218.0</ele><time>2026-04-19T12:07:11Z</time></trkpt><trkpt lat="49.22088325294118" lon="6.527807563100798"><ele>218.0</ele><time>2026-04-19T12:07:12Z</time></trkpt><trkpt lat="49.2209365282762" lon="6.527903436213173"><ele>218.00000000000003</ele><time>2026-04-19T12:07:13Z</time></trkpt><trkpt lat="49.22098585487753" lon="6.527996000105268"><ele>218.0</ele><time>2026-04-19T12:07:14Z</time></trkpt><trkpt lat="49.22103519445721" lon="6.528081737600857"><ele>218.00000000000003</ele><time>2026-04-19T12:07:15Z</time></trkpt><trkpt lat="49.22108194014943" lon="6.528160995946815"><ele>218.0</ele><time>2026-04-19T12:07:16Z</time></trkpt><trkpt lat="49.22113595783972" lon="6.528268983316768"><ele>218.0</ele><time>2026-04-19T12:07:17Z</time></trkpt><trkpt lat="49.22117581312758" lon="6.528382891883928"><ele>218.0</ele><time>2026-04-19T12:07:18Z</time></trkpt><trkpt lat="49.221205000029634" lon="6.528498559605427"><ele>218.00000000000003</ele><time>2026-04-19T12:07:19Z</time></trkpt><trkpt lat="49.22123237634734" lon="6.528607603700654"><ele>218.0</ele><time>2026-04-19T12:07:20Z</time></trkpt><trkpt lat="49.22125603797578" lon="6.5287209832846065"><ele>218.0</ele><time>2026-04-19T12:07:22Z</time></trkpt><trkpt lat="49.22136746741606" lon="6.528712295970599"><ele>218.0</ele><time>2026-04-19T12:07:27Z</time></trkpt><trkpt lat="49.221463136112256" lon="6.528564645100856"><ele>218.0</ele><time>2026-04-19T12:07:29Z</time></trkpt><trkpt lat="49.22151510942469" lon="6.5284940635636435"><ele>218.0</ele><time>2026-04-19T12:07:30Z</time></trkpt><trkpt lat="49.22156773185245" lon="6.528438314735495"><ele>218.0</ele><time>2026-04-19T12:07:31Z</time></trkpt><trkpt lat="49.221660299736236" lon="6.528324122912366"><ele>217.8</ele><time>2026-04-19T12:07:33Z</time></trkpt><trkpt lat="49.22169341614518" lon="6.528234393385271"><ele>217.60000000000002</ele><time>2026-04-19T12:07:36Z</time></trkpt><trkpt lat="49.22176426523168" lon="6.528497494194016"><ele>217.39999999999998</ele><time>2026-04-19T12:07:39Z</time></trkpt><trkpt lat="49.221794959903356" lon="6.528595423173366"><ele>217.2</ele><time>2026-04-19T12:07:40Z</time></trkpt><trkpt lat="49.22183503727964" lon="6.528723285878137"><ele>217.0</ele><time>2026-04-19T12:07:41Z</time></trkpt><trkpt lat="49.22188698977858" lon="6.52888903492592"><ele>217.0</ele><time>2026-04-19T12:07:42Z</time></trkpt><trkpt lat="49.22208245779714" lon="6.528931097734938"><ele>217.0</ele><time>2026-04-19T12:07:43Z</time></trkpt><trkpt lat="49.222175915108316" lon="6.529061905445327"><ele>217.0</ele><time>2026-04-19T12:07:44Z</time></trkpt><trkpt lat="49.2222794880299" lon="6.529190073348825"><ele>216.25</ele><time>2026-04-19T12:07:45Z</time></trkpt><trkpt lat="49.22238079698144" lon="6.529307704090967"><ele>215.5</ele><time>2026-04-19T12:07:46Z</time></trkpt><trkpt lat="49.22248804357208" lon="6.529427582110357"><ele>214.75</ele><time>2026-04-19T12:07:47Z</time></trkpt><trkpt lat="49.22260352426304" lon="6.529553211364483"><ele>214.0</ele><time>2026-04-19T12:07:48Z</time></trkpt><trkpt lat="49.22272106761678" lon="6.52967983527559"><ele>214.0</ele><time>2026-04-19T12:07:49Z</time></trkpt><trkpt lat="49.22283925747605" lon="6.5298176306638025"><ele>214.0</ele><time>2026-04-19T12:07:50Z</time></trkpt><trkpt lat="49.2229446020022" lon="6.529959222479579"><ele>214.0</ele><time>2026-04-19T12:07:51Z</time></trkpt><trkpt lat="49.223043440079195" lon="6.53010531976403"><ele>214.0</ele><time>2026-04-19T12:07:52Z</time></trkpt><trkpt lat="49.22313164574085" lon="6.530244615754147"><ele>213.75</ele><time>2026-04-19T12:07:53Z</time></trkpt><trkpt lat="49.22321674113552" lon="6.530377243067468"><ele>213.5</ele><time>2026-04-19T12:07:54Z</time></trkpt><trkpt lat="49.22329796890791" lon="6.530501610998005"><ele>213.25</ele><time>2026-04-19T12:07:55Z</time></trkpt><trkpt lat="49.22336950266869" lon="6.530646370091807"><ele>213.0</ele><time>2026-04-19T12:07:56Z</time></trkpt><trkpt lat="49.2234216712776" lon="6.5308052481300924"><ele>213.0</ele><time>2026-04-19T12:07:57Z</time></trkpt><trkpt lat="49.22344996597085" lon="6.530970066640745"><ele>213.0</ele><time>2026-04-19T12:07:58Z</time></trkpt><trkpt lat="49.22345737877157" lon="6.531136227320558"><ele>213.0</ele><time>2026-04-19T12:07:59Z</time></trkpt><trkpt lat="49.22344338403981" lon="6.531304126921975"><ele>213.0</ele><time>2026-04-19T12:08:00Z</time></trkpt><trkpt lat="49.223434193386794" lon="6.531475535261285"><ele>213.0</ele><time>2026-04-19T12:08:01Z</time></trkpt><trkpt lat="49.22346039225267" lon="6.531641564555134"><ele>213.2</ele><time>2026-04-19T12:08:02Z</time></trkpt><trkpt lat="49.22351221339519" lon="6.531795889376719"><ele>213.4</ele><time>2026-04-19T12:08:03Z</time></trkpt><trkpt lat="49.22356076745908" lon="6.531952479713155"><ele>213.59999999999997</ele><time>2026-04-19T12:08:04Z</time></trkpt><trkpt lat="49.22360835996313" lon="6.532099399687877"><ele>213.79999999999998</ele><time>2026-04-19T12:08:05Z</time></trkpt><trkpt lat="49.22366272066458" lon="6.53221880399583"><ele>214.0</ele><time>2026-04-19T12:08:06Z</time></trkpt><trkpt lat="49.22373123844291" lon="6.53230572659198"><ele>214.0</ele><time>2026-04-19T12:08:07Z</time></trkpt><trkpt lat="49.223818545374236" lon="6.532352493594141"><ele>213.99999999999997</ele><time>2026-04-19T12:08:08Z</time></trkpt><trkpt lat="49.2239289340986" lon="6.532384563741374"><ele>213.99999999999997</ele><time>2026-04-19T12:08:09Z</time></trkpt><trkpt lat="49.224036865463816" lon="6.532412359843539"><ele>214.0</ele><time>2026-04-19T12:08:10Z</time></trkpt><trkpt lat="49.224136314893755" lon="6.532457985942478"><ele>214.0</ele><time>2026-04-19T12:08:11Z</time></trkpt><trkpt lat="49.224211012121124" lon="6.532545497701274"><ele>213.75</ele><time>2026-04-19T12:08:12Z</time></trkpt><trkpt lat="49.22428372623151" lon="6.532693171086996"><ele>213.5</ele><time>2026-04-19T12:08:13Z</time></trkpt><trkpt lat="49.22436634734465" lon="6.532866361948484"><ele>213.25</ele><time>2026-04-19T12:08:14Z</time></trkpt><trkpt lat="49.22444502927386" lon="6.533022786286224"><ele>213.0</ele><time>2026-04-19T12:08:15Z</time></trkpt><trkpt lat="49.224500798623104" lon="6.5331460964687516"><ele>213.75</ele><time>2026-04-19T12:08:16Z</time></trkpt><trkpt lat="49.224533571392996" lon="6.533278382770774"><ele>214.5</ele><time>2026-04-19T12:08:17Z</time></trkpt><trkpt lat="49.22454283144833" lon="6.533433544317676"><ele>215.25</ele><time>2026-04-19T12:08:18Z</time></trkpt><trkpt lat="49.224538800593656" lon="6.5336240152826175"><ele>216.0</ele><time>2026-04-19T12:08:19Z</time></trkpt><trkpt lat="49.22452660603687" lon="6.533829455636592"><ele>216.5</ele><time>2026-04-19T12:08:20Z</time></trkpt><trkpt lat="49.224512990536695" lon="6.534035976933334"><ele>217.0</ele><time>2026-04-19T12:08:21Z</time></trkpt><trkpt lat="49.2245024222812" lon="6.534231839808284"><ele>217.5</ele><time>2026-04-19T12:08:22Z</time></trkpt><trkpt lat="49.22450097838032" lon="6.534416692616721"><ele>218.0</ele><time>2026-04-19T12:08:23Z</time></trkpt><trkpt lat="49.224509033439894" lon="6.534578364458656"><ele>218.0</ele><time>2026-04-19T12:08:24Z</time></trkpt><trkpt lat="49.22451733174981" lon="6.534735708295741"><ele>218.0</ele><time>2026-04-19T12:08:25Z</time></trkpt><trkpt lat="49.22452883002362" lon="6.5348972037617035"><ele>218.0</ele><time>2026-04-19T12:08:26Z</time></trkpt><trkpt lat="49.22454819446747" lon="6.535071094555447"><ele>218.0</ele><time>2026-04-19T12:08:27Z</time></trkpt><trkpt lat="49.2245685945364" lon="6.53524609226375"><ele>218.0</ele><time>2026-04-19T12:08:28Z</time></trkpt><trkpt lat="49.224589615675804" lon="6.535406842932626"><ele>218.0</ele><time>2026-04-19T12:08:29Z</time></trkpt><trkpt lat="49.22461265259453" lon="6.535556687621637"><ele>218.0</ele><time>2026-04-19T12:08:30Z</time></trkpt><trkpt lat="49.22463829266446" lon="6.535707076323191"><ele>218.0</ele><time>2026-04-19T12:08:31Z</time></trkpt><trkpt lat="49.224666418769296" lon="6.535865712970875"><ele>218.0</ele><time>2026-04-19T12:08:32Z</time></trkpt><trkpt lat="49.22469398706574" lon="6.5360032707360425"><ele>218.0</ele><time>2026-04-19T12:08:33Z</time></trkpt><trkpt lat="49.224720314808074" lon="6.536153483880865"><ele>218.0</ele><time>2026-04-19T12:08:34Z</time></trkpt><trkpt lat="49.224748644435785" lon="6.536307675185527"><ele>218.0</ele><time>2026-04-19T12:08:35Z</time></trkpt><trkpt lat="49.22477377378681" lon="6.536452934588518"><ele>218.0</ele><time>2026-04-19T12:08:36Z</time></trkpt><trkpt lat="49.22479975451513" lon="6.536600501241672"><ele>218.0</ele><time>2026-04-19T12:08:37Z</time></trkpt><trkpt lat="49.22481979358289" lon="6.536758310783908"><ele>218.0</ele><time>2026-04-19T12:08:38Z</time></trkpt><trkpt lat="49.22484086100796" lon="6.536918059428412"><ele>218.8</ele><time>2026-04-19T12:08:39Z</time></trkpt><trkpt lat="49.224866612992145" lon="6.537053850744356"><ele>219.60000000000002</ele><time>2026-04-19T12:08:40Z</time></trkpt><trkpt lat="49.2248967506902" lon="6.537209434169972"><ele>220.39999999999998</ele><time>2026-04-19T12:08:41Z</time></trkpt><trkpt lat="49.224922454770144" lon="6.537353455735339"><ele>221.2</ele><time>2026-04-19T12:08:42Z</time></trkpt><trkpt lat="49.224946148775366" lon="6.537485690493796"><ele>222.0</ele><time>2026-04-19T12:08:43Z</time></trkpt><trkpt lat="49.22497502059399" lon="6.537633765338577"><ele>222.0</ele><time>2026-04-19T12:08:44Z</time></trkpt><trkpt lat="49.22500681557122" lon="6.537763242892871"><ele>222.0</ele><time>2026-04-19T12:08:45Z</time></trkpt><trkpt lat="49.225046544042605" lon="6.5379079698431655"><ele>222.0</ele><time>2026-04-19T12:08:46Z</time></trkpt><trkpt lat="49.22508476435168" lon="6.538043610110271"><ele>222.0</ele><time>2026-04-19T12:08:47Z</time></trkpt><trkpt lat="49.22511526702079" lon="6.53817178809077"><ele>222.0</ele><time>2026-04-19T12:08:48Z</time></trkpt><trkpt lat="49.22514333457115" lon="6.538311049821651"><ele>223.0</ele><time>2026-04-19T12:08:49Z</time></trkpt><trkpt lat="49.22515550371054" lon="6.538442382837912"><ele>224.0</ele><time>2026-04-19T12:08:50Z</time></trkpt><trkpt lat="49.22515836846361" lon="6.538589010251353"><ele>225.0</ele><time>2026-04-19T12:08:51Z</time></trkpt><trkpt lat="49.2251442523884" lon="6.538731224973323"><ele>226.0</ele><time>2026-04-19T12:08:52Z</time></trkpt><trkpt lat="49.22513151477662" lon="6.538864617119338"><ele>227.0</ele><time>2026-04-19T12:08:53Z</time></trkpt><trkpt lat="49.22512175673877" lon="6.539005604291129"><ele>227.33333333333334</ele><time>2026-04-19T12:08:54Z</time></trkpt><trkpt lat="49.22510899370557" lon="6.539143181964503"><ele>227.66666666666669</ele><time>2026-04-19T12:08:55Z</time></trkpt><trkpt lat="49.225098265697724" lon="6.539267276331943"><ele>228.0</ele><time>2026-04-19T12:08:56Z</time></trkpt><trkpt lat="49.22508867632132" lon="6.539389969767587"><ele>228.33333333333331</ele><time>2026-04-19T12:08:57Z</time></trkpt><trkpt lat="49.22507763874489" lon="6.5394953272565886"><ele>228.66666666666666</ele><time>2026-04-19T12:08:58Z</time></trkpt><trkpt lat="49.225068349055576" lon="6.539607295566091"><ele>229.0</ele><time>2026-04-19T12:08:59Z</time></trkpt><trkpt lat="49.225058748688596" lon="6.5397148963547265"><ele>229.33333333333331</ele><time>2026-04-19T12:09:00Z</time></trkpt><trkpt lat="49.225049832336495" lon="6.539814551196516"><ele>229.66666666666666</ele><time>2026-04-19T12:09:01Z</time></trkpt><trkpt lat="49.225040885716794" lon="6.539946759381732"><ele>230.0</ele><time>2026-04-19T12:09:03Z</time></trkpt><trkpt lat="49.22506906859003" lon="6.540065104566972"><ele>230.33333333333331</ele><time>2026-04-19T12:09:05Z</time></trkpt><trkpt lat="49.22511545311434" lon="6.540210874186333"><ele>230.66666666666666</ele><time>2026-04-19T12:09:07Z</time></trkpt><trkpt lat="49.22514113101018" lon="6.540304084449311"><ele>231.0</ele><time>2026-04-19T12:09:08Z</time></trkpt><trkpt lat="49.22517314159257" lon="6.5403974558144125"><ele>231.28571428571428</ele><time>2026-04-19T12:09:09Z</time></trkpt><trkpt lat="49.225207796568014" lon="6.540500014646033"><ele>231.57142857142856</ele><time>2026-04-19T12:09:10Z</time></trkpt><trkpt lat="49.22523769457018" lon="6.540592712688752"><ele>231.85714285714286</ele><time>2026-04-19T12:09:11Z</time></trkpt><trkpt lat="49.225265109949746" lon="6.540682446800193"><ele>232.14285714285714</ele><time>2026-04-19T12:09:12Z</time></trkpt><trkpt lat="49.2252969150069" lon="6.540783088068008"><ele>232.42857142857142</ele><time>2026-04-19T12:09:13Z</time></trkpt><trkpt lat="49.22532826892182" lon="6.540883581079874"><ele>232.71428571428572</ele><time>2026-04-19T12:09:14Z</time></trkpt><trkpt lat="49.225359268450646" lon="6.540980839274545"><ele>233.0</ele><time>2026-04-19T12:09:15Z</time></trkpt><trkpt lat="49.22539288590409" lon="6.541084833034189"><ele>233.0</ele><time>2026-04-19T12:09:16Z</time></trkpt><trkpt lat="49.22542642721039" lon="6.541190406245701"><ele>233.0</ele><time>2026-04-19T12:09:17Z</time></trkpt><trkpt lat="49.22545758883859" lon="6.54129275768127"><ele>233.0</ele><time>2026-04-19T12:09:18Z</time></trkpt><trkpt lat="49.22549152964692" lon="6.541402366713224"><ele>233.0</ele><time>2026-04-19T12:09:19Z</time></trkpt><trkpt lat="49.2255244566832" lon="6.541511736478659"><ele>233.0</ele><time>2026-04-19T12:09:20Z</time></trkpt><trkpt lat="49.22555391309159" lon="6.541608886565703"><ele>233.0</ele><time>2026-04-19T12:09:21Z</time></trkpt><trkpt lat="49.22558079363706" lon="6.541696562158092"><ele>233.0</ele><time>2026-04-19T12:09:22Z</time></trkpt><trkpt lat="49.2256077175455" lon="6.541789307335572"><ele>233.16666666666669</ele><time>2026-04-19T12:09:23Z</time></trkpt><trkpt lat="49.225635884727375" lon="6.541889537888816"><ele>233.33333333333334</ele><time>2026-04-19T12:09:24Z</time></trkpt><trkpt lat="49.22566119142391" lon="6.541995377212924"><ele>233.5</ele><time>2026-04-19T12:09:25Z</time></trkpt><trkpt lat="49.22568701844277" lon="6.542098443812996"><ele>233.66666666666669</ele><time>2026-04-19T12:09:26Z</time></trkpt><trkpt lat="49.225714070902" lon="6.542202895653553"><ele>233.83333333333334</ele><time>2026-04-19T12:09:27Z</time></trkpt><trkpt lat="49.22573545318537" lon="6.542319038218753"><ele>234.0</ele><time>2026-04-19T12:09:28Z</time></trkpt><trkpt lat="49.22575659918406" lon="6.542439154004486"><ele>234.0</ele><time>2026-04-19T12:09:29Z</time></trkpt><trkpt lat="49.225785701022794" lon="6.542560581488545"><ele>234.0</ele><time>2026-04-19T12:09:30Z</time></trkpt><trkpt lat="49.22581591044837" lon="6.542677090916021"><ele>234.0</ele><time>2026-04-19T12:09:31Z</time></trkpt><trkpt lat="49.22584928006669" lon="6.542791999127719"><ele>234.0</ele><time>2026-04-19T12:09:32Z</time></trkpt><trkpt lat="49.22588579871333" lon="6.542930512856485"><ele>234.0</ele><time>2026-04-19T12:09:33Z</time></trkpt><trkpt lat="49.22591788646171" lon="6.543044845810876"><ele>234.0</ele><time>2026-04-19T12:09:34Z</time></trkpt><trkpt lat="49.2259436294858" lon="6.543149057539245"><ele>234.33333333333334</ele><time>2026-04-19T12:09:35Z</time></trkpt><trkpt lat="49.225974561654354" lon="6.543264865945088"><ele>234.66666666666669</ele><time>2026-04-19T12:09:36Z</time></trkpt><trkpt lat="49.22601116260148" lon="6.543388576592892"><ele>235.0</ele><time>2026-04-19T12:09:37Z</time></trkpt><trkpt lat="49.22605102604975" lon="6.5435140642146"><ele>235.33333333333334</ele><time>2026-04-19T12:09:38Z</time></trkpt><trkpt lat="49.22608581755424" lon="6.543632921817591"><ele>235.66666666666669</ele><time>2026-04-19T12:09:39Z</time></trkpt><trkpt lat="49.226118220163436" lon="6.54374412362971"><ele>236.0</ele><time>2026-04-19T12:09:40Z</time></trkpt><trkpt lat="49.22615332099587" lon="6.543858248744916"><ele>236.16666666666669</ele><time>2026-04-19T12:09:41Z</time></trkpt><trkpt lat="49.22618121350306" lon="6.5439564381445345"><ele>236.33333333333334</ele><time>2026-04-19T12:09:42Z</time></trkpt><trkpt lat="49.22620830886467" lon="6.544096537123865"><ele>236.5</ele><time>2026-04-19T12:09:44Z</time></trkpt><trkpt lat="49.22612729069405" lon="6.544203175967236"><ele>236.66666666666669</ele><time>2026-04-19T12:09:47Z</time></trkpt><trkpt lat="49.2260491037736" lon="6.544247830576099"><ele>236.83333333333334</ele><time>2026-04-19T12:09:49Z</time></trkpt><trkpt lat="49.22598172584511" lon="6.544288189655226"><ele>237.0</ele><time>2026-04-19T12:09:52Z</time></trkpt><trkpt lat="49.22591870925686" lon="6.544336299505848"><ele>236.99999999999997</ele><time>2026-04-19T12:10:36Z</time></trkpt><trkpt lat="49.22585193665936" lon="6.544383469184968"><ele>237.0</ele><time>2026-04-19T12:10:38Z</time></trkpt><trkpt lat="49.22577828539886" lon="6.544421632750058"><ele>236.99999999999997</ele><time>2026-04-19T12:10:40Z</time></trkpt><trkpt lat="49.22570663375367" lon="6.544464504806682"><ele>236.99999999999997</ele><time>2026-04-19T12:10:42Z</time></trkpt><trkpt lat="49.22564274014099" lon="6.544506832723872"><ele>237.0</ele><time>2026-04-19T12:10:44Z</time></trkpt><trkpt lat="49.22557928783461" lon="6.544566412019677"><ele>236.99999999999997</ele><time>2026-04-19T12:10:46Z</time></trkpt><trkpt lat="49.225522256646784" lon="6.544620807068067"><ele>236.99999999999997</ele><time>2026-04-19T12:10:48Z</time></trkpt><trkpt lat="49.225454953085055" lon="6.544688192476543"><ele>236.33333333333334</ele><time>2026-04-19T12:10:50Z</time></trkpt><trkpt lat="49.22538857556716" lon="6.544752717188185"><ele>235.66666666666669</ele><time>2026-04-19T12:10:52Z</time></trkpt><trkpt lat="49.22530858173392" lon="6.544807311183255"><ele>235.0</ele><time>2026-04-19T12:10:54Z</time></trkpt><trkpt lat="49.2252288368527" lon="6.544882720101712"><ele>234.33333333333334</ele><time>2026-04-19T12:10:56Z</time></trkpt><trkpt lat="49.22513775243626" lon="6.544972604180571"><ele>233.66666666666669</ele><time>2026-04-19T12:10:58Z</time></trkpt><trkpt lat="49.22508350340084" lon="6.545024596590042"><ele>233.0</ele><time>2026-04-19T12:10:59Z</time></trkpt><trkpt lat="49.22498287836004" lon="6.545115194254546"><ele>233.0</ele><time>2026-04-19T12:11:01Z</time></trkpt><trkpt lat="49.22485756585238" lon="6.545190512660928"><ele>233.0</ele><time>2026-04-19T12:11:03Z</time></trkpt><trkpt lat="49.22478430467976" lon="6.54523831985352"><ele>233.0</ele><time>2026-04-19T12:11:04Z</time></trkpt><trkpt lat="49.22471334205155" lon="6.54529250035923"><ele>233.0</ele><time>2026-04-19T12:11:05Z</time></trkpt><trkpt lat="49.22461643117643" lon="6.545371004505895"><ele>233.0</ele><time>2026-04-19T12:11:07Z</time></trkpt><trkpt lat="49.22453979074216" lon="6.545442833455946"><ele>233.2</ele><time>2026-04-19T12:11:09Z</time></trkpt><trkpt lat="49.224463430328306" lon="6.54552070472499"><ele>233.4</ele><time>2026-04-19T12:11:35Z</time></trkpt><trkpt lat="49.22438225684778" lon="6.545627770731225"><ele>233.59999999999997</ele><time>2026-04-19T12:11:37Z</time></trkpt><trkpt lat="49.22430134082881" lon="6.545717644942638"><ele>233.79999999999998</ele><time>2026-04-19T12:11:39Z</time></trkpt><trkpt lat="49.22423172869036" lon="6.545839928326064"><ele>234.0</ele><time>2026-04-19T12:11:41Z</time></trkpt><trkpt lat="49.22418181768693" lon="6.545903559768735"><ele>234.0</ele><time>2026-04-19T12:11:42Z</time></trkpt><trkpt lat="49.22411658992521" lon="6.545955797709545"><ele>234.00000000000003</ele><time>2026-04-19T12:11:43Z</time></trkpt><trkpt lat="49.22406110804206" lon="6.546009244747511"><ele>234.0</ele><time>2026-04-19T12:11:44Z</time></trkpt><trkpt lat="49.224011367662634" lon="6.5460728477107395"><ele>234.0</ele><time>2026-04-19T12:11:45Z</time></trkpt><trkpt lat="49.223957789467754" lon="6.546140517247182"><ele>234.00000000000003</ele><time>2026-04-19T12:11:46Z</time></trkpt><trkpt lat="49.22390751710284" lon="6.546199479462561"><ele>234.0</ele><time>2026-04-19T12:11:47Z</time></trkpt><trkpt lat="49.223857683562386" lon="6.546261923641568"><ele>234.0</ele><time>2026-04-19T12:11:48Z</time></trkpt><trkpt lat="49.223802719865716" lon="6.54633466470981"><ele>234.66666666666666</ele><time>2026-04-19T12:11:49Z</time></trkpt><trkpt lat="49.223748834823624" lon="6.54640989446527"><ele>235.33333333333331</ele><time>2026-04-19T12:11:50Z</time></trkpt><trkpt lat="49.2236964037073" lon="6.546485862801348"><ele>236.0</ele><time>2026-04-19T12:11:51Z</time></trkpt><trkpt lat="49.22360642410955" lon="6.546626782750099"><ele>236.66666666666666</ele><time>2026-04-19T12:11:53Z</time></trkpt><trkpt lat="49.223549018411745" lon="6.546726198351101"><ele>237.33333333333331</ele><time>2026-04-19T12:11:54Z</time></trkpt><trkpt lat="49.22349399701167" lon="6.546814240234884"><ele>238.0</ele><time>2026-04-19T12:11:55Z</time></trkpt><trkpt lat="49.22343889028786" lon="6.546882230916058"><ele>237.99999999999997</ele><time>2026-04-19T12:11:56Z</time></trkpt><trkpt lat="49.22334692899505" lon="6.547008304079282"><ele>238.0</ele><time>2026-04-19T12:11:58Z</time></trkpt><trkpt lat="49.22329490010638" lon="6.547073306804157"><ele>238.0</ele><time>2026-04-19T12:11:59Z</time></trkpt><trkpt lat="49.22324679864083" lon="6.547138455628294"><ele>238.0</ele><time>2026-04-19T12:12:00Z</time></trkpt><trkpt lat="49.223193252168244" lon="6.547212455490596"><ele>237.99999999999997</ele><time>2026-04-19T12:12:01Z</time></trkpt><trkpt lat="49.22313910271967" lon="6.5473006295349325"><ele>238.0</ele><time>2026-04-19T12:12:02Z</time></trkpt><trkpt lat="49.22309194235913" lon="6.547387759835949"><ele>237.16666666666666</ele><time>2026-04-19T12:12:03Z</time></trkpt><trkpt lat="49.22304600669927" lon="6.547478388805206"><ele>236.33333333333331</ele><time>2026-04-19T12:12:04Z</time></trkpt><trkpt lat="49.22300136643919" lon="6.5475885483331195"><ele>235.5</ele><time>2026-04-19T12:12:05Z</time></trkpt><trkpt lat="49.2229589218016" lon="6.547696183131861"><ele>234.66666666666669</ele><time>2026-04-19T12:12:06Z</time></trkpt><trkpt lat="49.22291661148236" lon="6.547805460903741"><ele>233.83333333333334</ele><time>2026-04-19T12:12:07Z</time></trkpt><trkpt lat="49.22287811630974" lon="6.547904301582978"><ele>233.0</ele><time>2026-04-19T12:12:08Z</time></trkpt><trkpt lat="49.2228351583473" lon="6.548011926333713"><ele>233.00000000000003</ele><time>2026-04-19T12:12:09Z</time></trkpt><trkpt lat="49.22279644411131" lon="6.548111164617561"><ele>233.0</ele><time>2026-04-19T12:12:10Z</time></trkpt><trkpt lat="49.22274441587374" lon="6.54821945018527"><ele>233.0</ele><time>2026-04-19T12:12:11Z</time></trkpt><trkpt lat="49.22269010209829" lon="6.548289602598599"><ele>233.0</ele><time>2026-04-19T12:12:12Z</time></trkpt><trkpt lat="49.22263103390964" lon="6.548368750785132"><ele>233.00000000000003</ele><time>2026-04-19T12:12:13Z</time></trkpt><trkpt lat="49.22256552103577" lon="6.548453222577914"><ele>233.0</ele><time>2026-04-19T12:12:14Z</time></trkpt><trkpt lat="49.222502366782905" lon="6.548536370516321"><ele>233.0</ele><time>2026-04-19T12:12:15Z</time></trkpt><trkpt lat="49.22241641918137" lon="6.548650317809742"><ele>233.0</ele><time>2026-04-19T12:12:17Z</time></trkpt><trkpt lat="49.222368209376405" lon="6.548716746739911"><ele>233.0</ele><time>2026-04-19T12:12:18Z</time></trkpt><trkpt lat="49.22226314936768" lon="6.5488392221556335"><ele>233.0</ele><time>2026-04-19T12:12:20Z</time></trkpt><trkpt lat="49.222203031157804" lon="6.548918003662797"><ele>233.0</ele><time>2026-04-19T12:12:21Z</time></trkpt><trkpt lat="49.22214770826109" lon="6.549001525317289"><ele>233.83333333333334</ele><time>2026-04-19T12:12:22Z</time></trkpt><trkpt lat="49.222096130134496" lon="6.549079653868176"><ele>234.66666666666669</ele><time>2026-04-19T12:12:23Z</time></trkpt><trkpt lat="49.22205458066344" lon="6.549159853577907"><ele>235.5</ele><time>2026-04-19T12:12:24Z</time></trkpt><trkpt lat="49.2220181941822" lon="6.5492485196090415"><ele>236.33333333333331</ele><time>2026-04-19T12:12:25Z</time></trkpt><trkpt lat="49.22194599758161" lon="6.549414527586879"><ele>237.16666666666666</ele><time>2026-04-19T12:12:27Z</time></trkpt><trkpt lat="49.22191125749187" lon="6.549515687039666"><ele>238.0</ele><time>2026-04-19T12:12:28Z</time></trkpt><trkpt lat="49.22186993246694" lon="6.549624558073976"><ele>238.66666666666666</ele><time>2026-04-19T12:12:29Z</time></trkpt><trkpt lat="49.22181623792041" lon="6.549764478654954"><ele>239.33333333333331</ele><time>2026-04-19T12:12:31Z</time></trkpt><trkpt lat="49.22177230942847" lon="6.549861924344184"><ele>240.0</ele><time>2026-04-19T12:12:33Z</time></trkpt><trkpt lat="49.22171541513675" lon="6.5499476310509674"><ele>240.66666666666669</ele><time>2026-04-19T12:12:37Z</time></trkpt><trkpt lat="49.22164628724601" lon="6.550055978644541"><ele>241.33333333333334</ele><time>2026-04-19T12:12:39Z</time></trkpt><trkpt lat="49.22159410956002" lon="6.5501209728144"><ele>242.0</ele><time>2026-04-19T12:12:40Z</time></trkpt><trkpt lat="49.22153932485552" lon="6.550201934617723"><ele>242.00000000000003</ele><time>2026-04-19T12:12:41Z</time></trkpt><trkpt lat="49.221474529671355" lon="6.550275498995213"><ele>242.0</ele><time>2026-04-19T12:12:42Z</time></trkpt><trkpt lat="49.221409079338116" lon="6.550332342710548"><ele>242.0</ele><time>2026-04-19T12:12:43Z</time></trkpt><trkpt lat="49.22132909456252" lon="6.550402306895171"><ele>242.0</ele><time>2026-04-19T12:12:44Z</time></trkpt><trkpt lat="49.221243492811006" lon="6.550462010334339"><ele>242.00000000000003</ele><time>2026-04-19T12:12:45Z</time></trkpt><trkpt lat="49.22116719002998" lon="6.550487860456062"><ele>242.0</ele><time>2026-04-19T12:12:46Z</time></trkpt><trkpt lat="49.221084744940555" lon="6.550477644310675"><ele>242.50000000000003</ele><time>2026-04-19T12:12:47Z</time></trkpt><trkpt lat="49.2210068538756" lon="6.550458966294636"><ele>243.0</ele><time>2026-04-19T12:12:48Z</time></trkpt><trkpt lat="49.22092598388348" lon="6.550463644431395"><ele>243.5</ele><time>2026-04-19T12:12:49Z</time></trkpt><trkpt lat="49.220842295059455" lon="6.550506975630963"><ele>244.0</ele><time>2026-04-19T12:12:50Z</time></trkpt><trkpt lat="49.22077192603059" lon="6.550567019657442"><ele>244.50000000000003</ele><time>2026-04-19T12:12:51Z</time></trkpt><trkpt lat="49.220709179694005" lon="6.550611787807521"><ele>245.0</ele><time>2026-04-19T12:12:52Z</time></trkpt><trkpt lat="49.2206453397183" lon="6.550669939401667"><ele>245.00000000000003</ele><time>2026-04-19T12:12:53Z</time></trkpt><trkpt lat="49.22058219311711" lon="6.550733123320168"><ele>245.0</ele><time>2026-04-19T12:12:54Z</time></trkpt><trkpt lat="49.22051771160085" lon="6.550795666816657"><ele>245.0</ele><time>2026-04-19T12:12:55Z</time></trkpt><trkpt lat="49.22043930236829" lon="6.550882258137305"><ele>245.0</ele><time>2026-04-19T12:12:56Z</time></trkpt><trkpt lat="49.22035934137313" lon="6.550980338270239"><ele>245.00000000000003</ele><time>2026-04-19T12:12:57Z</time></trkpt><trkpt lat="49.22028960086855" lon="6.551070877737117"><ele>245.0</ele><time>2026-04-19T12:12:58Z</time></trkpt><trkpt lat="49.22022203737014" lon="6.551167854871842"><ele>246.6</ele><time>2026-04-19T12:12:59Z</time></trkpt><trkpt lat="49.22016461764797" lon="6.551255465407425"><ele>248.2</ele><time>2026-04-19T12:13:00Z</time></trkpt><trkpt lat="49.22007915325315" lon="6.551391847436039"><ele>249.8</ele><time>2026-04-19T12:13:02Z</time></trkpt><trkpt lat="49.22003726953913" lon="6.551477452838219"><ele>251.4</ele><time>2026-04-19T12:13:05Z</time></trkpt><trkpt lat="49.219976998291564" lon="6.551525774879745"><ele>253.0</ele><time>2026-04-19T12:13:27Z</time></trkpt><trkpt lat="49.21988265954011" lon="6.551398943784539"><ele>253.0</ele><time>2026-04-19T12:13:29Z</time></trkpt><trkpt lat="49.2198680994346" lon="6.551256158625895"><ele>253.0</ele><time>2026-04-19T12:13:30Z</time></trkpt><trkpt lat="49.21979663291781" lon="6.551144144931876"><ele>253.0</ele><time>2026-04-19T12:13:31Z</time></trkpt><trkpt lat="49.21974495460854" lon="6.550990244538877"><ele>253.0</ele><time>2026-04-19T12:13:32Z</time></trkpt><trkpt lat="49.21965596469468" lon="6.55084002569746"><ele>253.0</ele><time>2026-04-19T12:13:33Z</time></trkpt><trkpt lat="49.219577822848485" lon="6.550652528928585"><ele>251.0</ele><time>2026-04-19T12:13:34Z</time></trkpt><trkpt lat="49.21948882872445" lon="6.55046071771313"><ele>249.0</ele><time>2026-04-19T12:13:35Z</time></trkpt><trkpt lat="49.21938647236543" lon="6.5502510401915375"><ele>247.0</ele><time>2026-04-19T12:13:36Z</time></trkpt><trkpt lat="49.21928376454246" lon="6.550032824922221"><ele>244.66666666666666</ele><time>2026-04-19T12:13:37Z</time></trkpt><trkpt lat="49.21918421314829" lon="6.549826508024538"><ele>242.33333333333331</ele><time>2026-04-19T12:13:38Z</time></trkpt><trkpt lat="49.21908418328807" lon="6.549612853346801"><ele>240.0</ele><time>2026-04-19T12:13:39Z</time></trkpt><trkpt lat="49.218979201817525" lon="6.549388684343626"><ele>239.33333333333331</ele><time>2026-04-19T12:13:40Z</time></trkpt><trkpt lat="49.2188711010512" lon="6.5491620949683895"><ele>238.66666666666666</ele><time>2026-04-19T12:13:41Z</time></trkpt><trkpt lat="49.21875808233633" lon="6.548929452791608"><ele>238.0</ele><time>2026-04-19T12:13:42Z</time></trkpt><trkpt lat="49.21863692575672" lon="6.548700159323683"><ele>237.0</ele><time>2026-04-19T12:13:43Z</time></trkpt><trkpt lat="49.218513465577466" lon="6.548494714274956"><ele>236.0</ele><time>2026-04-19T12:13:44Z</time></trkpt><trkpt lat="49.21837939403465" lon="6.548286374716252"><ele>235.0</ele><time>2026-04-19T12:13:45Z</time></trkpt><trkpt lat="49.218239943460624" lon="6.548077791459694"><ele>235.0</ele><time>2026-04-19T12:13:46Z</time></trkpt><trkpt lat="49.21808802800975" lon="6.547886232118307"><ele>235.0</ele><time>2026-04-19T12:13:47Z</time></trkpt><trkpt lat="49.21792878146072" lon="6.547713937119344"><ele>235.0</ele><time>2026-04-19T12:13:48Z</time></trkpt><trkpt lat="49.21776117336725" lon="6.547552542265911"><ele>235.0</ele><time>2026-04-19T12:13:49Z</time></trkpt><trkpt lat="49.217595223184375" lon="6.547403740899065"><ele>235.0</ele><time>2026-04-19T12:13:50Z</time></trkpt><trkpt lat="49.21741577970625" lon="6.547258319165724"><ele>235.0</ele><time>2026-04-19T12:13:51Z</time></trkpt><trkpt lat="49.217236494738835" lon="6.547122825933198"><ele>236.0</ele><time>2026-04-19T12:13:52Z</time></trkpt><trkpt lat="49.2170466105783" lon="6.5469867013889465"><ele>237.0</ele><time>2026-04-19T12:13:53Z</time></trkpt><trkpt lat="49.2168596120566" lon="6.546852250137423"><ele>238.0</ele><time>2026-04-19T12:13:54Z</time></trkpt><trkpt lat="49.21666779426554" lon="6.546716144223272"><ele>239.0</ele><time>2026-04-19T12:13:55Z</time></trkpt><trkpt lat="49.21647460990253" lon="6.54657725774373"><ele>240.0</ele><time>2026-04-19T12:13:56Z</time></trkpt><trkpt lat="49.216281213588374" lon="6.546439385813001"><ele>241.0</ele><time>2026-04-19T12:13:57Z</time></trkpt><trkpt lat="49.216092444703236" lon="6.546302104334353"><ele>241.0</ele><time>2026-04-19T12:13:58Z</time></trkpt><trkpt lat="49.215896028792564" lon="6.546163182813362"><ele>241.0</ele><time>2026-04-19T12:13:59Z</time></trkpt><trkpt lat="49.21570961898991" lon="6.546029240939158"><ele>241.0</ele><time>2026-04-19T12:14:00Z</time></trkpt><trkpt lat="49.21551558311003" lon="6.545892361098913"><ele>241.0</ele><time>2026-04-19T12:14:01Z</time></trkpt><trkpt lat="49.215328470786154" lon="6.545757650442156"><ele>241.0</ele><time>2026-04-19T12:14:02Z</time></trkpt><trkpt lat="49.21513662685274" lon="6.545619439752197"><ele>241.0</ele><time>2026-04-19T12:14:03Z</time></trkpt><trkpt lat="49.21494494615128" lon="6.545485229973319"><ele>242.0</ele><time>2026-04-19T12:14:04Z</time></trkpt><trkpt lat="49.21475861025835" lon="6.545327407766124"><ele>243.0</ele><time>2026-04-19T12:14:05Z</time></trkpt><trkpt lat="49.214567960380236" lon="6.545191002485185"><ele>244.0</ele><time>2026-04-19T12:14:06Z</time></trkpt><trkpt lat="49.21437544268207" lon="6.5450776173704694"><ele>244.0</ele><time>2026-04-19T12:14:07Z</time></trkpt><trkpt lat="49.214190051214395" lon="6.544939181580792"><ele>244.0</ele><time>2026-04-19T12:14:08Z</time></trkpt><trkpt lat="49.214003394507756" lon="6.544806216009904"><ele>244.0</ele><time>2026-04-19T12:14:09Z</time></trkpt><trkpt lat="49.213822005686794" lon="6.544677344332088"><ele>245.33333333333331</ele><time>2026-04-19T12:14:10Z</time></trkpt><trkpt lat="49.21364116563472" lon="6.544550814390984"><ele>246.66666666666669</ele><time>2026-04-19T12:14:11Z</time></trkpt><trkpt lat="49.213457868292295" lon="6.544422701464618"><ele>248.0</ele><time>2026-04-19T12:14:12Z</time></trkpt><trkpt lat="49.21327273043445" lon="6.544293212166652"><ele>249.33333333333334</ele><time>2026-04-19T12:14:13Z</time></trkpt><trkpt lat="49.213092414943844" lon="6.544164491172157"><ele>250.66666666666669</ele><time>2026-04-19T12:14:14Z</time></trkpt><trkpt lat="49.21290590266178" lon="6.544028769860791"><ele>252.0</ele><time>2026-04-19T12:14:15Z</time></trkpt><trkpt lat="49.21272627460109" lon="6.543896621174203"><ele>252.0</ele><time>2026-04-19T12:14:16Z</time></trkpt><trkpt lat="49.21255284236378" lon="6.543768434956732"><ele>252.0</ele><time>2026-04-19T12:14:17Z</time></trkpt><trkpt lat="49.21239168047317" lon="6.543652586989851"><ele>252.0</ele><time>2026-04-19T12:14:18Z</time></trkpt><trkpt lat="49.21224458192583" lon="6.543553998550127"><ele>252.0</ele><time>2026-04-19T12:14:19Z</time></trkpt><trkpt lat="49.21211550872209" lon="6.543436805499186"><ele>252.0</ele><time>2026-04-19T12:14:20Z</time></trkpt><trkpt lat="49.21200106301619" lon="6.543352510808601"><ele>252.0</ele><time>2026-04-19T12:14:21Z</time></trkpt><trkpt lat="49.211907805315555" lon="6.543283803908975"><ele>252.0</ele><time>2026-04-19T12:14:22Z</time></trkpt><trkpt lat="49.211831583945404" lon="6.543226856558319"><ele>252.0</ele><time>2026-04-19T12:14:23Z</time></trkpt><trkpt lat="49.21177088539113" lon="6.543181467046123"><ele>252.0</ele><time>2026-04-19T12:14:24Z</time></trkpt><trkpt lat="49.2116322892083" lon="6.543354695874794"><ele>252.0</ele><time>2026-04-19T12:14:26Z</time></trkpt><trkpt lat="49.21153990949114" lon="6.543438584373881"><ele>252.0</ele><time>2026-04-19T12:14:27Z</time></trkpt><trkpt lat="49.211427280557835" lon="6.543487497005211"><ele>252.33333333333331</ele><time>2026-04-19T12:14:28Z</time></trkpt><trkpt lat="49.211293519077856" lon="6.543596063492691"><ele>252.66666666666666</ele><time>2026-04-19T12:14:29Z</time></trkpt><trkpt lat="49.21112172050661" lon="6.543711053332612"><ele>253.0</ele><time>2026-04-19T12:14:30Z</time></trkpt><trkpt lat="49.21095351651822" lon="6.54384387458579"><ele>253.66666666666666</ele><time>2026-04-19T12:14:31Z</time></trkpt><trkpt lat="49.210788629298264" lon="6.543972147688151"><ele>254.33333333333331</ele><time>2026-04-19T12:14:32Z</time></trkpt><trkpt lat="49.21063275615151" lon="6.54408082658581"><ele>255.0</ele><time>2026-04-19T12:14:33Z</time></trkpt><trkpt lat="49.210506573668695" lon="6.5441786256264525"><ele>255.75</ele><time>2026-04-19T12:14:34Z</time></trkpt><trkpt lat="49.21038670429871" lon="6.544271066528603"><ele>256.5</ele><time>2026-04-19T12:14:35Z</time></trkpt><trkpt lat="49.21026233045606" lon="6.544361266298928"><ele>257.25</ele><time>2026-04-19T12:14:36Z</time></trkpt><trkpt lat="49.21013533182772" lon="6.544459165872061"><ele>258.0</ele><time>2026-04-19T12:14:37Z</time></trkpt><trkpt lat="49.210010889932825" lon="6.544534648350397"><ele>258.75</ele><time>2026-04-19T12:14:38Z</time></trkpt><trkpt lat="49.209887612164486" lon="6.544629223375352"><ele>259.5</ele><time>2026-04-19T12:14:39Z</time></trkpt><trkpt lat="49.209756823679335" lon="6.544729560398855"><ele>260.25</ele><time>2026-04-19T12:14:40Z</time></trkpt><trkpt lat="49.209631714134005" lon="6.544859265066892"><ele>261.0</ele><time>2026-04-19T12:14:41Z</time></trkpt><trkpt lat="49.209499649106604" lon="6.544962904032796"><ele>261.25</ele><time>2026-04-19T12:14:42Z</time></trkpt><trkpt lat="49.20936716462773" lon="6.54505871005503"><ele>261.5</ele><time>2026-04-19T12:14:43Z</time></trkpt><trkpt lat="49.20924295388942" lon="6.5451963346123305"><ele>261.75</ele><time>2026-04-19T12:14:44Z</time></trkpt><trkpt lat="49.20912698311072" lon="6.5453252964419"><ele>262.0</ele><time>2026-04-19T12:14:45Z</time></trkpt><trkpt lat="49.20899772294113" lon="6.545426576793846"><ele>263.75</ele><time>2026-04-19T12:14:46Z</time></trkpt><trkpt lat="49.20887051109234" lon="6.545529147626376"><ele>265.5</ele><time>2026-04-19T12:14:47Z</time></trkpt><trkpt lat="49.20874444731919" lon="6.545634864029984"><ele>267.25</ele><time>2026-04-19T12:14:48Z</time></trkpt><trkpt lat="49.20863578581629" lon="6.545732386521376"><ele>269.0</ele><time>2026-04-19T12:14:49Z</time></trkpt><trkpt lat="49.20853750550839" lon="6.545819855636609"><ele>269.0</ele><time>2026-04-19T12:14:50Z</time></trkpt><trkpt lat="49.20844470561101" lon="6.54590194553849"><ele>269.0</ele><time>2026-04-19T12:14:51Z</time></trkpt><trkpt lat="49.208365464157374" lon="6.545976605336675"><ele>269.0</ele><time>2026-04-19T12:14:52Z</time></trkpt><trkpt lat="49.20829853075536" lon="6.54606280952594"><ele>269.0</ele><time>2026-04-19T12:14:53Z</time></trkpt><trkpt lat="49.20824713770643" lon="6.5461882134570315"><ele>269.0</ele><time>2026-04-19T12:14:54Z</time></trkpt><trkpt lat="49.20820701130154" lon="6.546359220008053"><ele>269.25</ele><time>2026-04-19T12:14:55Z</time></trkpt><trkpt lat="49.20817460170824" lon="6.5465486906935295"><ele>269.5</ele><time>2026-04-19T12:14:56Z</time></trkpt><trkpt lat="49.208144287198365" lon="6.546736970020977"><ele>269.75</ele><time>2026-04-19T12:14:57Z</time></trkpt><trkpt lat="49.208113724990206" lon="6.546924948742751"><ele>270.0</ele><time>2026-04-19T12:14:58Z</time></trkpt><trkpt lat="49.20807756791888" lon="6.547106470123583"><ele>270.5</ele><time>2026-04-19T12:14:59Z</time></trkpt><trkpt lat="49.20803880306971" lon="6.547278918990139"><ele>271.0</ele><time>2026-04-19T12:15:00Z</time></trkpt><trkpt lat="49.20798825399233" lon="6.547429953544287"><ele>271.5</ele><time>2026-04-19T12:15:01Z</time></trkpt><trkpt lat="49.207929683329326" lon="6.547576840564207"><ele>272.0</ele><time>2026-04-19T12:15:02Z</time></trkpt><trkpt lat="49.207875144583" lon="6.547725698409408"><ele>272.25</ele><time>2026-04-19T12:15:03Z</time></trkpt><trkpt lat="49.20781409683464" lon="6.547882080102489"><ele>272.5</ele><time>2026-04-19T12:15:04Z</time></trkpt><trkpt lat="49.207745528186" lon="6.548045372660717"><ele>272.75</ele><time>2026-04-19T12:15:05Z</time></trkpt><trkpt lat="49.20767292405544" lon="6.548195014484838"><ele>273.0</ele><time>2026-04-19T12:15:06Z</time></trkpt><trkpt lat="49.20759440546768" lon="6.548331509294333"><ele>273.0</ele><time>2026-04-19T12:15:07Z</time></trkpt><trkpt lat="49.207515096487505" lon="6.548488602597189"><ele>273.0</ele><time>2026-04-19T12:15:08Z</time></trkpt><trkpt lat="49.20743711098468" lon="6.548649197186622"><ele>273.0</ele><time>2026-04-19T12:15:09Z</time></trkpt><trkpt lat="49.20735093298067" lon="6.5487996195843765"><ele>273.0</ele><time>2026-04-19T12:15:10Z</time></trkpt><trkpt lat="49.20726629755462" lon="6.548946583965759"><ele>274.2</ele><time>2026-04-19T12:15:11Z</time></trkpt><trkpt lat="49.20718362870688" lon="6.549083583394142"><ele>275.4</ele><time>2026-04-19T12:15:12Z</time></trkpt><trkpt lat="49.20711209840254" lon="6.549196520746298"><ele>276.59999999999997</ele><time>2026-04-19T12:15:13Z</time></trkpt><trkpt lat="49.20705682386756" lon="6.549306767696596"><ele>277.8</ele><time>2026-04-19T12:15:14Z</time></trkpt><trkpt lat="49.20701028310205" lon="6.549436206990648"><ele>279.0</ele><time>2026-04-19T12:15:15Z</time></trkpt><trkpt lat="49.20696961542099" lon="6.549588931627755"><ele>279.5</ele><time>2026-04-19T12:15:16Z</time></trkpt><trkpt lat="49.20692451574609" lon="6.549751667970422"><ele>280.0</ele><time>2026-04-19T12:15:17Z</time></trkpt><trkpt lat="49.20688438610173" lon="6.54990906723137"><ele>280.5</ele><time>2026-04-19T12:15:18Z</time></trkpt><trkpt lat="49.20684923295719" lon="6.550066055082155"><ele>281.0</ele><time>2026-04-19T12:15:19Z</time></trkpt><trkpt lat="49.206814044493306" lon="6.550234552512426"><ele>281.6</ele><time>2026-04-19T12:15:20Z</time></trkpt><trkpt lat="49.20678042419931" lon="6.5503955826108085"><ele>282.20000000000005</ele><time>2026-04-19T12:15:21Z</time></trkpt><trkpt lat="49.206754503913146" lon="6.550540022456314"><ele>282.79999999999995</ele><time>2026-04-19T12:15:22Z</time></trkpt><trkpt lat="49.206733987062854" lon="6.550666783691745"><ele>283.4</ele><time>2026-04-19T12:15:23Z</time></trkpt><trkpt lat="49.20670284474651" lon="6.550814281621371"><ele>284.0</ele><time>2026-04-19T12:15:24Z</time></trkpt><trkpt lat="49.20666643576075" lon="6.550954647461209"><ele>284.0</ele><time>2026-04-19T12:15:25Z</time></trkpt><trkpt lat="49.20663051453676" lon="6.551108307325973"><ele>284.0</ele><time>2026-04-19T12:15:26Z</time></trkpt><trkpt lat="49.206589807025765" lon="6.551252286434273"><ele>284.0</ele><time>2026-04-19T12:15:27Z</time></trkpt><trkpt lat="49.206545843970204" lon="6.551388400264651"><ele>284.0</ele><time>2026-04-19T12:15:28Z</time></trkpt><trkpt lat="49.20649865617397" lon="6.551536537194675"><ele>284.0</ele><time>2026-04-19T12:15:29Z</time></trkpt><trkpt lat="49.20644728623979" lon="6.551693534914759"><ele>284.59999999999997</ele><time>2026-04-19T12:15:30Z</time></trkpt><trkpt lat="49.20639354659093" lon="6.551848644608128"><ele>285.2</ele><time>2026-04-19T12:15:31Z</time></trkpt><trkpt lat="49.20634570228761" lon="6.551996922293108"><ele>285.79999999999995</ele><time>2026-04-19T12:15:32Z</time></trkpt><trkpt lat="49.20629670032792" lon="6.552142654317102"><ele>286.4</ele><time>2026-04-19T12:15:33Z</time></trkpt><trkpt lat="49.2062467500961" lon="6.55229563980682"><ele>287.0</ele><time>2026-04-19T12:15:34Z</time></trkpt><trkpt lat="49.206196978577694" lon="6.5524467738326315"><ele>287.6</ele><time>2026-04-19T12:15:35Z</time></trkpt><trkpt lat="49.206156512362696" lon="6.55257274522951"><ele>288.2</ele><time>2026-04-19T12:15:36Z</time></trkpt><trkpt lat="49.2061229359588" lon="6.552673004002459"><ele>288.8</ele><time>2026-04-19T12:15:37Z</time></trkpt><trkpt lat="49.20606901126394" lon="6.552807968347445"><ele>289.4</ele><time>2026-04-19T12:15:39Z</time></trkpt><trkpt lat="49.20610139167078" lon="6.5529988717351575"><ele>290.0</ele><time>2026-04-19T12:15:42Z</time></trkpt><trkpt lat="49.206146660328926" lon="6.553103888758235"><ele>290.4</ele><time>2026-04-19T12:15:43Z</time></trkpt><trkpt lat="49.20619715358501" lon="6.553221850194518"><ele>290.8</ele><time>2026-04-19T12:15:44Z</time></trkpt><trkpt lat="49.20624958956929" lon="6.553357783724227"><ele>291.2</ele><time>2026-04-19T12:15:45Z</time></trkpt><trkpt lat="49.206288069435345" lon="6.553483726609376"><ele>291.6</ele><time>2026-04-19T12:15:46Z</time></trkpt><trkpt lat="49.20632689874995" lon="6.553636508266764"><ele>292.0</ele><time>2026-04-19T12:15:47Z</time></trkpt><trkpt lat="49.20637644249854" lon="6.553815846349452"><ele>292.0</ele><time>2026-04-19T12:15:48Z</time></trkpt><trkpt lat="49.20642800985185" lon="6.5539621493826035"><ele>292.0</ele><time>2026-04-19T12:15:49Z</time></trkpt><trkpt lat="49.206473085283434" lon="6.554065474530099"><ele>292.0</ele><time>2026-04-19T12:15:50Z</time></trkpt><trkpt lat="49.20651070499064" lon="6.554154030608794"><ele>292.0</ele><time>2026-04-19T12:15:51Z</time></trkpt><trkpt lat="49.206548272246636" lon="6.554249802735753"><ele>292.0</ele><time>2026-04-19T12:15:52Z</time></trkpt><trkpt lat="49.20660084028904" lon="6.554396217164456"><ele>292.0</ele><time>2026-04-19T12:15:54Z</time></trkpt><trkpt lat="49.20659358029161" lon="6.55454301280225"><ele>292.16666666666663</ele><time>2026-04-19T12:15:56Z</time></trkpt><trkpt lat="49.20653180033059" lon="6.554695076176752"><ele>292.3333333333333</ele><time>2026-04-19T12:15:58Z</time></trkpt><trkpt lat="49.20648556723834" lon="6.554788558756994"><ele>292.5</ele><time>2026-04-19T12:15:59Z</time></trkpt><trkpt lat="49.206440753898825" lon="6.55487696094399"><ele>292.6666666666667</ele><time>2026-04-19T12:16:00Z</time></trkpt><trkpt lat="49.20638009033985" lon="6.554985728489241"><ele>292.83333333333337</ele><time>2026-04-19T12:16:01Z</time></trkpt><trkpt lat="49.20632912240586" lon="6.555083926824175"><ele>293.0</ele><time>2026-04-19T12:16:02Z</time></trkpt><trkpt lat="49.20627642332674" lon="6.5551814331092"><ele>293.0</ele><time>2026-04-19T12:16:03Z</time></trkpt><trkpt lat="49.206221294409566" lon="6.555289568146369"><ele>293.0</ele><time>2026-04-19T12:16:04Z</time></trkpt><trkpt lat="49.20617553942701" lon="6.555385055096377"><ele>293.0</ele><time>2026-04-19T12:16:05Z</time></trkpt><trkpt lat="49.206124221317594" lon="6.555485528951945"><ele>293.0</ele><time>2026-04-19T12:16:06Z</time></trkpt><trkpt lat="49.206070878743766" lon="6.5555845022157015"><ele>293.0</ele><time>2026-04-19T12:16:07Z</time></trkpt><trkpt lat="49.20601664808428" lon="6.555694159236684"><ele>293.0</ele><time>2026-04-19T12:16:08Z</time></trkpt><trkpt lat="49.205958081271405" lon="6.555805971083783"><ele>292.6</ele><time>2026-04-19T12:16:09Z</time></trkpt><trkpt lat="49.205894706190165" lon="6.555927513153264"><ele>292.20000000000005</ele><time>2026-04-19T12:16:10Z</time></trkpt><trkpt lat="49.20583511952824" lon="6.5560351886184565"><ele>291.8</ele><time>2026-04-19T12:16:11Z</time></trkpt><trkpt lat="49.20577875630885" lon="6.55613717733238"><ele>291.40000000000003</ele><time>2026-04-19T12:16:12Z</time></trkpt><trkpt lat="49.20572436009252" lon="6.556245914276213"><ele>291.0</ele><time>2026-04-19T12:16:13Z</time></trkpt><trkpt lat="49.20566204165464" lon="6.556368211954022"><ele>290.2</ele><time>2026-04-19T12:16:14Z</time></trkpt><trkpt lat="49.205603410079135" lon="6.55648383646004"><ele>289.40000000000003</ele><time>2026-04-19T12:16:15Z</time></trkpt><trkpt lat="49.20554417567404" lon="6.55660087731093"><ele>288.6</ele><time>2026-04-19T12:16:16Z</time></trkpt><trkpt lat="49.20548084393547" lon="6.556725836226241"><ele>287.8</ele><time>2026-04-19T12:16:17Z</time></trkpt><trkpt lat="49.205415840760004" lon="6.556858368466282"><ele>287.0</ele><time>2026-04-19T12:16:18Z</time></trkpt><trkpt lat="49.20535017216984" lon="6.556991186736055"><ele>286.6</ele><time>2026-04-19T12:16:19Z</time></trkpt><trkpt lat="49.205293649278715" lon="6.557114546340619"><ele>286.2</ele><time>2026-04-19T12:16:20Z</time></trkpt><trkpt lat="49.205232813303034" lon="6.557248214569562"><ele>285.8</ele><time>2026-04-19T12:16:21Z</time></trkpt><trkpt lat="49.20517695721386" lon="6.557377598166663"><ele>285.4</ele><time>2026-04-19T12:16:22Z</time></trkpt><trkpt lat="49.20510407888154" lon="6.55752021617076"><ele>285.0</ele><time>2026-04-19T12:16:23Z</time></trkpt><trkpt lat="49.205032398761446" lon="6.5576477434882765"><ele>285.0</ele><time>2026-04-19T12:16:24Z</time></trkpt><trkpt lat="49.20495819992503" lon="6.5577836044140225"><ele>285.0</ele><time>2026-04-19T12:16:25Z</time></trkpt><trkpt lat="49.20488178090472" lon="6.557918328659589"><ele>285.0</ele><time>2026-04-19T12:16:26Z</time></trkpt><trkpt lat="49.20480716861087" lon="6.558054364390269"><ele>285.0</ele><time>2026-04-19T12:16:27Z</time></trkpt><trkpt lat="49.2047343668381" lon="6.5581813901986585"><ele>285.75</ele><time>2026-04-19T12:16:28Z</time></trkpt><trkpt lat="49.20466156414055" lon="6.5583202052996254"><ele>286.5</ele><time>2026-04-19T12:16:29Z</time></trkpt><trkpt lat="49.204590987498236" lon="6.558466528382898"><ele>287.25</ele><time>2026-04-19T12:16:30Z</time></trkpt><trkpt lat="49.20453097198265" lon="6.558622889202166"><ele>288.0</ele><time>2026-04-19T12:16:31Z</time></trkpt><trkpt lat="49.20448123436276" lon="6.558783794508609"><ele>288.25</ele><time>2026-04-19T12:16:32Z</time></trkpt><trkpt lat="49.20443314370819" lon="6.558943689070318"><ele>288.5</ele><time>2026-04-19T12:16:33Z</time></trkpt><trkpt lat="49.20438836380055" lon="6.559121111532328"><ele>288.75</ele><time>2026-04-19T12:16:34Z</time></trkpt><trkpt lat="49.20434059746716" lon="6.55929145441158"><ele>289.0</ele><time>2026-04-19T12:16:35Z</time></trkpt><trkpt lat="49.20429298952618" lon="6.559462784825182"><ele>289.75</ele><time>2026-04-19T12:16:36Z</time></trkpt><trkpt lat="49.20423992516528" lon="6.559628595505585"><ele>290.5</ele><time>2026-04-19T12:16:37Z</time></trkpt><trkpt lat="49.20418241847975" lon="6.559789134515497"><ele>291.25</ele><time>2026-04-19T12:16:38Z</time></trkpt><trkpt lat="49.20412108090143" lon="6.559935108406511"><ele>292.0</ele><time>2026-04-19T12:16:39Z</time></trkpt><trkpt lat="49.20405691391479" lon="6.560087515464961"><ele>292.5</ele><time>2026-04-19T12:16:40Z</time></trkpt><trkpt lat="49.203975705326286" lon="6.5602334060132"><ele>293.0</ele><time>2026-04-19T12:16:41Z</time></trkpt><trkpt lat="49.2038922057468" lon="6.5603692626249455"><ele>293.5</ele><time>2026-04-19T12:16:42Z</time></trkpt><trkpt lat="49.20381271272386" lon="6.560513804003926"><ele>294.0</ele><time>2026-04-19T12:16:43Z</time></trkpt><trkpt lat="49.20373122037307" lon="6.560669235285644"><ele>294.5</ele><time>2026-04-19T12:16:44Z</time></trkpt><trkpt lat="49.203653382285594" lon="6.560812758653959"><ele>295.0</ele><time>2026-04-19T12:16:45Z</time></trkpt><trkpt lat="49.203586102527474" lon="6.5609603408434625"><ele>295.5</ele><time>2026-04-19T12:16:46Z</time></trkpt><trkpt lat="49.20351688132681" lon="6.56110639371776"><ele>296.0</ele><time>2026-04-19T12:16:47Z</time></trkpt><trkpt lat="49.20345023476035" lon="6.5612538007788155"><ele>296.25</ele><time>2026-04-19T12:16:48Z</time></trkpt><trkpt lat="49.203379950721505" lon="6.56141133938584"><ele>296.5</ele><time>2026-04-19T12:16:49Z</time></trkpt><trkpt lat="49.20330281004885" lon="6.561560375091656"><ele>296.75</ele><time>2026-04-19T12:16:50Z</time></trkpt><trkpt lat="49.2032275786119" lon="6.561716684351044"><ele>297.0</ele><time>2026-04-19T12:16:51Z</time></trkpt><trkpt lat="49.20314823975704" lon="6.561866402354969"><ele>297.0</ele><time>2026-04-19T12:16:52Z</time></trkpt><trkpt lat="49.20306839443916" lon="6.562009414616702"><ele>297.0</ele><time>2026-04-19T12:16:53Z</time></trkpt><trkpt lat="49.20298032743054" lon="6.56215697616893"><ele>297.0</ele><time>2026-04-19T12:16:54Z</time></trkpt><trkpt lat="49.2028768639871" lon="6.562305950741682"><ele>297.0</ele><time>2026-04-19T12:16:55Z</time></trkpt><trkpt lat="49.202768394280135" lon="6.562448949496684"><ele>298.0</ele><time>2026-04-19T12:16:56Z</time></trkpt><trkpt lat="49.202667141144865" lon="6.56258324195181"><ele>299.0</ele><time>2026-04-19T12:16:57Z</time></trkpt><trkpt lat="49.202567417467044" lon="6.562721038317154"><ele>300.0</ele><time>2026-04-19T12:16:58Z</time></trkpt><trkpt lat="49.202457651334804" lon="6.5628609460888905"><ele>301.0</ele><time>2026-04-19T12:16:59Z</time></trkpt><trkpt lat="49.20234791324378" lon="6.563003215514867"><ele>301.75</ele><time>2026-04-19T12:17:00Z</time></trkpt><trkpt lat="49.20223424407588" lon="6.563151163255148"><ele>302.5</ele><time>2026-04-19T12:17:01Z</time></trkpt><trkpt lat="49.20212324351488" lon="6.5632957886402155"><ele>303.25</ele><time>2026-04-19T12:17:02Z</time></trkpt><trkpt lat="49.20201698149448" lon="6.563435133212363"><ele>304.0</ele><time>2026-04-19T12:17:03Z</time></trkpt><trkpt lat="49.20191682628046" lon="6.563561598530717"><ele>304.0</ele><time>2026-04-19T12:17:04Z</time></trkpt><trkpt lat="49.20183190183451" lon="6.563668348304293"><ele>304.0</ele><time>2026-04-19T12:17:05Z</time></trkpt><trkpt lat="49.20176220275925" lon="6.56377124668746"><ele>304.0</ele><time>2026-04-19T12:17:06Z</time></trkpt><trkpt lat="49.20170399643983" lon="6.563905849836219"><ele>304.0</ele><time>2026-04-19T12:17:07Z</time></trkpt><trkpt lat="49.20165412538497" lon="6.564060068244595"><ele>304.0</ele><time>2026-04-19T12:17:08Z</time></trkpt><trkpt lat="49.201629299845756" lon="6.56423705009745"><ele>304.75</ele><time>2026-04-19T12:17:09Z</time></trkpt><trkpt lat="49.2016301806668" lon="6.564424088902318"><ele>305.5</ele><time>2026-04-19T12:17:10Z</time></trkpt><trkpt lat="49.2016298787662" lon="6.564654875652886"><ele>306.25</ele><time>2026-04-19T12:17:11Z</time></trkpt><trkpt lat="49.20162321580888" lon="6.564886437352942"><ele>307.0</ele><time>2026-04-19T12:17:12Z</time></trkpt><trkpt lat="49.201617460946615" lon="6.565111092080193"><ele>307.25</ele><time>2026-04-19T12:17:13Z</time></trkpt><trkpt lat="49.20161150677189" lon="6.565323886994145"><ele>307.5</ele><time>2026-04-19T12:17:14Z</time></trkpt><trkpt lat="49.201599817681505" lon="6.565547828607729"><ele>307.75</ele><time>2026-04-19T12:17:15Z</time></trkpt><trkpt lat="49.20159188085414" lon="6.565768221370343"><ele>308.0</ele><time>2026-04-19T12:17:16Z</time></trkpt><trkpt lat="49.20158372295544" lon="6.565992466938336"><ele>309.0</ele><time>2026-04-19T12:17:17Z</time></trkpt><trkpt lat="49.20157607059932" lon="6.56620447536089"><ele>310.0</ele><time>2026-04-19T12:17:18Z</time></trkpt><trkpt lat="49.20156689874067" lon="6.566419029799309"><ele>311.0</ele><time>2026-04-19T12:17:19Z</time></trkpt><trkpt lat="49.20155482669863" lon="6.566629506078581"><ele>312.0</ele><time>2026-04-19T12:17:20Z</time></trkpt><trkpt lat="49.20154714126175" lon="6.566855305897607"><ele>312.5</ele><time>2026-04-19T12:17:21Z</time></trkpt><trkpt lat="49.20154131394679" lon="6.567086565651824"><ele>313.0</ele><time>2026-04-19T12:17:22Z</time></trkpt><trkpt lat="49.20153039978422" lon="6.567314893447011"><ele>313.5</ele><time>2026-04-19T12:17:23Z</time></trkpt><trkpt lat="49.20151441934939" lon="6.567512737936523"><ele>314.0</ele><time>2026-04-19T12:17:24Z</time></trkpt><trkpt lat="49.20148770650533" lon="6.567651489699844"><ele>314.25</ele><time>2026-04-19T12:17:25Z</time></trkpt><trkpt lat="49.20143388938158" lon="6.567762340115577"><ele>314.5</ele><time>2026-04-19T12:17:26Z</time></trkpt><trkpt lat="49.201343501050175" lon="6.567832850866057"><ele>314.75</ele><time>2026-04-19T12:17:27Z</time></trkpt><trkpt lat="49.20122138013607" lon="6.567830590668145"><ele>315.0</ele><time>2026-04-19T12:17:28Z</time></trkpt><trkpt lat="49.20109101096547" lon="6.567913119845839"><ele>315.75</ele><time>2026-04-19T12:17:29Z</time></trkpt><trkpt lat="49.20096819634778" lon="6.56798481012397"><ele>316.5</ele><time>2026-04-19T12:17:30Z</time></trkpt><trkpt lat="49.20085959418584" lon="6.568099770282165"><ele>317.25</ele><time>2026-04-19T12:17:31Z</time></trkpt><trkpt lat="49.20079482477692" lon="6.568244473879354"><ele>318.0</ele><time>2026-04-19T12:17:32Z</time></trkpt><trkpt lat="49.20076008629526" lon="6.568424526652987"><ele>318.0</ele><time>2026-04-19T12:17:33Z</time></trkpt><trkpt lat="49.200736725221695" lon="6.56865163125723"><ele>318.0</ele><time>2026-04-19T12:17:34Z</time></trkpt><trkpt lat="49.200695890553206" lon="6.568931390539656"><ele>318.0</ele><time>2026-04-19T12:17:35Z</time></trkpt><trkpt lat="49.20063812606385" lon="6.5692031247969105"><ele>318.75</ele><time>2026-04-19T12:17:36Z</time></trkpt><trkpt lat="49.200591671031816" lon="6.569431558316601"><ele>319.5</ele><time>2026-04-19T12:17:37Z</time></trkpt><trkpt lat="49.200558918047534" lon="6.569638795907121"><ele>320.25</ele><time>2026-04-19T12:17:38Z</time></trkpt><trkpt lat="49.200521906022075" lon="6.569829683089939"><ele>321.0</ele><time>2026-04-19T12:17:39Z</time></trkpt><trkpt lat="49.20049231297304" lon="6.570022632503601"><ele>321.25</ele><time>2026-04-19T12:17:40Z</time></trkpt><trkpt lat="49.20046469531862" lon="6.570217674556035"><ele>321.5</ele><time>2026-04-19T12:17:41Z</time></trkpt><trkpt lat="49.2004385135203" lon="6.570407058907882"><ele>321.75</ele><time>2026-04-19T12:17:42Z</time></trkpt><trkpt lat="49.200413759436536" lon="6.570572218525301"><ele>322.0</ele><time>2026-04-19T12:17:43Z</time></trkpt><trkpt lat="49.20039383265181" lon="6.570727978725604"><ele>322.0</ele><time>2026-04-19T12:17:44Z</time></trkpt><trkpt lat="49.20037288541906" lon="6.570846317626556"><ele>322.0</ele><time>2026-04-19T12:17:45Z</time></trkpt><trkpt lat="49.20034987270617" lon="6.570969182322871"><ele>322.0</ele><time>2026-04-19T12:17:47Z</time></trkpt><trkpt lat="49.2003389031525" lon="6.5711135607644975"><ele>322.0</ele><time>2026-04-19T12:18:30Z</time></trkpt><trkpt lat="49.20029527061183" lon="6.571306518964685"><ele>322.0</ele><time>2026-04-19T12:18:32Z</time></trkpt><trkpt lat="49.2002672984812" lon="6.571442841180611"><ele>321.8333333333333</ele><time>2026-04-19T12:18:33Z</time></trkpt><trkpt lat="49.20024321514322" lon="6.571554793939974"><ele>321.66666666666663</ele><time>2026-04-19T12:18:34Z</time></trkpt><trkpt lat="49.20021492986838" lon="6.57166635851684"><ele>321.5</ele><time>2026-04-19T12:18:35Z</time></trkpt><trkpt lat="49.20018921594738" lon="6.5717662130794245"><ele>321.3333333333333</ele><time>2026-04-19T12:18:36Z</time></trkpt><trkpt lat="49.20015449398129" lon="6.571879618014931"><ele>321.1666666666667</ele><time>2026-04-19T12:18:37Z</time></trkpt><trkpt lat="49.20010326388521" lon="6.571996304234703"><ele>321.0</ele><time>2026-04-19T12:18:38Z</time></trkpt><trkpt lat="49.20003569664885" lon="6.572087961430359"><ele>321.0</ele><time>2026-04-19T12:18:39Z</time></trkpt><trkpt lat="49.1999527452358" lon="6.572162571532497"><ele>321.0</ele><time>2026-04-19T12:18:40Z</time></trkpt><trkpt lat="49.199871397402646" lon="6.572229209855651"><ele>321.0</ele><time>2026-04-19T12:18:41Z</time></trkpt><trkpt lat="49.19978969454204" lon="6.572285430744045"><ele>321.0</ele><time>2026-04-19T12:18:42Z</time></trkpt><trkpt lat="49.19970467736715" lon="6.572338281062626"><ele>321.0</ele><time>2026-04-19T12:18:43Z</time></trkpt><trkpt lat="49.199610766978864" lon="6.572400250314967"><ele>320.25</ele><time>2026-04-19T12:18:44Z</time></trkpt><trkpt lat="49.19951061144477" lon="6.57246769094656"><ele>319.5</ele><time>2026-04-19T12:18:45Z</time></trkpt><trkpt lat="49.19940828367788" lon="6.5725496788468805"><ele>318.75</ele><time>2026-04-19T12:18:46Z</time></trkpt><trkpt lat="49.19931113604001" lon="6.572649943410699"><ele>318.0</ele><time>2026-04-19T12:18:47Z</time></trkpt><trkpt lat="49.199213175493455" lon="6.572771022573195"><ele>318.6</ele><time>2026-04-19T12:18:48Z</time></trkpt><trkpt lat="49.19912433739069" lon="6.572884123637944"><ele>319.20000000000005</ele><time>2026-04-19T12:18:49Z</time></trkpt><trkpt lat="49.19904607724382" lon="6.572977771377851"><ele>319.8</ele><time>2026-04-19T12:18:50Z</time></trkpt><trkpt lat="49.19896607450983" lon="6.573072607173441"><ele>320.40000000000003</ele><time>2026-04-19T12:18:51Z</time></trkpt><trkpt lat="49.19888432724269" lon="6.573173034650695"><ele>321.0</ele><time>2026-04-19T12:18:52Z</time></trkpt><trkpt lat="49.1987993560956" lon="6.57328254916339"><ele>321.0</ele><time>2026-04-19T12:18:53Z</time></trkpt><trkpt lat="49.198731048452345" lon="6.573392930582907"><ele>321.0</ele><time>2026-04-19T12:18:54Z</time></trkpt><trkpt lat="49.198695587867185" lon="6.573512240296019"><ele>321.0</ele><time>2026-04-19T12:18:55Z</time></trkpt><trkpt lat="49.19875260565719" lon="6.57377555417147"><ele>321.0</ele><time>2026-04-19T12:18:57Z</time></trkpt><trkpt lat="49.198809454392695" lon="6.573945943150799"><ele>321.75</ele><time>2026-04-19T12:18:58Z</time></trkpt><trkpt lat="49.198853580980966" lon="6.574125163016136"><ele>322.5</ele><time>2026-04-19T12:18:59Z</time></trkpt><trkpt lat="49.198894349807404" lon="6.57431310267494"><ele>323.25</ele><time>2026-04-19T12:19:00Z</time></trkpt><trkpt lat="49.198928669952764" lon="6.574498407632028"><ele>324.0</ele><time>2026-04-19T12:19:01Z</time></trkpt><trkpt lat="49.19893090269499" lon="6.574687447756171"><ele>324.2</ele><time>2026-04-19T12:19:02Z</time></trkpt><trkpt lat="49.198898085885524" lon="6.5748685575614"><ele>324.4</ele><time>2026-04-19T12:19:03Z</time></trkpt><trkpt lat="49.1988539471437" lon="6.575029090878734"><ele>324.6</ele><time>2026-04-19T12:19:04Z</time></trkpt><trkpt lat="49.198811838568204" lon="6.5751661991823"><ele>324.8</ele><time>2026-04-19T12:19:05Z</time></trkpt><trkpt lat="49.198770034793235" lon="6.575271578092875"><ele>325.0</ele><time>2026-04-19T12:19:06Z</time></trkpt><trkpt lat="49.19871368544064" lon="6.575364771061117"><ele>325.4</ele><time>2026-04-19T12:19:08Z</time></trkpt><trkpt lat="49.19867533538789" lon="6.575471659873732"><ele>325.8</ele><time>2026-04-19T12:19:11Z</time></trkpt><trkpt lat="49.198737936632966" lon="6.575631239055103"><ele>326.20000000000005</ele><time>2026-04-19T12:19:12Z</time></trkpt><trkpt lat="49.198779486729094" lon="6.57574463363024"><ele>326.6</ele><time>2026-04-19T12:19:13Z</time></trkpt><trkpt lat="49.198830930522874" lon="6.5758997239586785"><ele>327.0</ele><time>2026-04-19T12:19:14Z</time></trkpt><trkpt lat="49.198879528002315" lon="6.576052315615107"><ele>327.0</ele><time>2026-04-19T12:19:15Z</time></trkpt><trkpt lat="49.198934333650925" lon="6.576211996593306"><ele>327.0</ele><time>2026-04-19T12:19:16Z</time></trkpt><trkpt lat="49.1989989746761" lon="6.576400961048557"><ele>327.0</ele><time>2026-04-19T12:19:17Z</time></trkpt><trkpt lat="49.1990615798027" lon="6.576575431489726"><ele>327.0</ele><time>2026-04-19T12:19:18Z</time></trkpt><trkpt lat="49.19912573892116" lon="6.5767565172186195"><ele>327.25</ele><time>2026-04-19T12:19:19Z</time></trkpt><trkpt lat="49.19918921713135" lon="6.576946625620025"><ele>327.5</ele><time>2026-04-19T12:19:20Z</time></trkpt><trkpt lat="49.19925056462232" lon="6.57714704737637"><ele>327.75</ele><time>2026-04-19T12:19:21Z</time></trkpt><trkpt lat="49.199316612198146" lon="6.577356275719496"><ele>328.0</ele><time>2026-04-19T12:19:22Z</time></trkpt><trkpt lat="49.1993898008461" lon="6.577573264349426"><ele>328.25</ele><time>2026-04-19T12:19:23Z</time></trkpt><trkpt lat="49.19945771890264" lon="6.57777740471847"><ele>328.5</ele><time>2026-04-19T12:19:24Z</time></trkpt><trkpt lat="49.199525448358315" lon="6.577980357389956"><ele>328.75</ele><time>2026-04-19T12:19:25Z</time></trkpt><trkpt lat="49.19959814098373" lon="6.57817965660981"><ele>329.0</ele><time>2026-04-19T12:19:26Z</time></trkpt><trkpt lat="49.19968070705327" lon="6.578375557186422"><ele>329.0</ele><time>2026-04-19T12:19:27Z</time></trkpt><trkpt lat="49.19977908949005" lon="6.578567160394325"><ele>329.0</ele><time>2026-04-19T12:19:28Z</time></trkpt><trkpt lat="49.19988758761082" lon="6.5787482687793775"><ele>329.0</ele><time>2026-04-19T12:19:29Z</time></trkpt><trkpt lat="49.20000050758794" lon="6.578937102893259"><ele>329.6666666666667</ele><time>2026-04-19T12:19:30Z</time></trkpt><trkpt lat="49.20011202634602" lon="6.579133626738716"><ele>330.3333333333333</ele><time>2026-04-19T12:19:31Z</time></trkpt><trkpt lat="49.20021657376445" lon="6.579333899275015"><ele>331.0</ele><time>2026-04-19T12:19:32Z</time></trkpt><trkpt lat="49.200318630485754" lon="6.579508159330632"><ele>331.5</ele><time>2026-04-19T12:19:33Z</time></trkpt><trkpt lat="49.200409703882094" lon="6.579676286209389"><ele>332.0</ele><time>2026-04-19T12:19:34Z</time></trkpt><trkpt lat="49.20049108522832" lon="6.57983921016243"><ele>332.5</ele><time>2026-04-19T12:19:35Z</time></trkpt><trkpt lat="49.20057398187026" lon="6.579980709311912"><ele>333.0</ele><time>2026-04-19T12:19:36Z</time></trkpt><trkpt lat="49.200657142449465" lon="6.5801025116456735"><ele>333.2</ele><time>2026-04-19T12:19:37Z</time></trkpt><trkpt lat="49.200736239450045" lon="6.580230126478053"><ele>333.4</ele><time>2026-04-19T12:19:38Z</time></trkpt><trkpt lat="49.20080093581546" lon="6.580346606804762"><ele>333.59999999999997</ele><time>2026-04-19T12:19:39Z</time></trkpt><trkpt lat="49.200863733185884" lon="6.580459970361306"><ele>333.79999999999995</ele><time>2026-04-19T12:19:40Z</time></trkpt><trkpt lat="49.20092859113428" lon="6.580575492741463"><ele>334.0</ele><time>2026-04-19T12:19:41Z</time></trkpt><trkpt lat="49.20099020730757" lon="6.580690104933077"><ele>334.3333333333333</ele><time>2026-04-19T12:19:42Z</time></trkpt><trkpt lat="49.20104830127363" lon="6.580792916042538"><ele>334.66666666666663</ele><time>2026-04-19T12:19:43Z</time></trkpt><trkpt lat="49.20110396657891" lon="6.580883531603978"><ele>335.0</ele><time>2026-04-19T12:19:44Z</time></trkpt><trkpt lat="49.201158553936416" lon="6.5809712735588946"><ele>335.3333333333333</ele><time>2026-04-19T12:19:45Z</time></trkpt><trkpt lat="49.20120679327385" lon="6.581054841546849"><ele>335.6666666666667</ele><time>2026-04-19T12:19:46Z</time></trkpt><trkpt lat="49.201248385306506" lon="6.581135826159127"><ele>336.0</ele><time>2026-04-19T12:19:47Z</time></trkpt><trkpt lat="49.20129771952704" lon="6.581226317037362"><ele>336.0</ele><time>2026-04-19T12:19:48Z</time></trkpt><trkpt lat="49.20136064971918" lon="6.5813304236425525"><ele>336.0</ele><time>2026-04-19T12:19:49Z</time></trkpt><trkpt lat="49.20143138519983" lon="6.581465708084519"><ele>336.0</ele><time>2026-04-19T12:19:50Z</time></trkpt><trkpt lat="49.20150452530052" lon="6.581604068103408"><ele>336.0</ele><time>2026-04-19T12:19:51Z</time></trkpt><trkpt lat="49.20158380032852" lon="6.581751853667771"><ele>336.0</ele><time>2026-04-19T12:19:52Z</time></trkpt><trkpt lat="49.20167110528414" lon="6.5819116360866"><ele>337.3333333333333</ele><time>2026-04-19T12:19:53Z</time></trkpt><trkpt lat="49.201759139193115" lon="6.582089912347129"><ele>338.66666666666663</ele><time>2026-04-19T12:19:54Z</time></trkpt><trkpt lat="49.20183526696611" lon="6.5822946908922395"><ele>340.0</ele><time>2026-04-19T12:19:55Z</time></trkpt><trkpt lat="49.20189411517907" lon="6.582533706655749"><ele>340.0</ele><time>2026-04-19T12:19:56Z</time></trkpt><trkpt lat="49.2019383319445" lon="6.582803597116663"><ele>340.0</ele><time>2026-04-19T12:19:57Z</time></trkpt><trkpt lat="49.20197159850572" lon="6.5831139917833665"><ele>340.0</ele><time>2026-04-19T12:19:58Z</time></trkpt><trkpt lat="49.202000428216465" lon="6.583477568200831"><ele>341.0</ele><time>2026-04-19T12:19:59Z</time></trkpt><trkpt lat="49.20202948216993" lon="6.5838226234100565"><ele>342.0</ele><time>2026-04-19T12:20:00Z</time></trkpt><trkpt lat="49.20207080459679" lon="6.584142369900418"><ele>343.0</ele><time>2026-04-19T12:20:01Z</time></trkpt><trkpt lat="49.20213587284286" lon="6.584458895685559"><ele>343.3333333333333</ele><time>2026-04-19T12:20:02Z</time></trkpt><trkpt lat="49.20222558122974" lon="6.58474348750294"><ele>343.6666666666667</ele><time>2026-04-19T12:20:03Z</time></trkpt><trkpt lat="49.20234133710951" lon="6.5850048226795"><ele>344.0</ele><time>2026-04-19T12:20:04Z</time></trkpt><trkpt lat="49.202448335158394" lon="6.58531156924592"><ele>346.33333333333337</ele><time>2026-04-19T12:20:05Z</time></trkpt><trkpt lat="49.20251357839641" lon="6.5856193188799415"><ele>348.6666666666667</ele><time>2026-04-19T12:20:06Z</time></trkpt><trkpt lat="49.2025423163903" lon="6.585929360637217"><ele>351.0</ele><time>2026-04-19T12:20:07Z</time></trkpt><trkpt lat="49.20254556861176" lon="6.586248052455956"><ele>351.3333333333333</ele><time>2026-04-19T12:20:08Z</time></trkpt><trkpt lat="49.2025398385624" lon="6.5865689812802275"><ele>351.66666666666663</ele><time>2026-04-19T12:20:09Z</time></trkpt><trkpt lat="49.20253571011862" lon="6.586869736260057"><ele>352.0</ele><time>2026-04-19T12:20:10Z</time></trkpt><trkpt lat="49.20252041623871" lon="6.587168368167143"><ele>352.3333333333333</ele><time>2026-04-19T12:20:11Z</time></trkpt><trkpt lat="49.20248276162256" lon="6.58745701992243"><ele>352.6666666666667</ele><time>2026-04-19T12:20:12Z</time></trkpt><trkpt lat="49.20241564423729" lon="6.5877327872976235"><ele>353.0</ele><time>2026-04-19T12:20:13Z</time></trkpt><trkpt lat="49.202316606446864" lon="6.587989024985568"><ele>352.0</ele><time>2026-04-19T12:20:14Z</time></trkpt><trkpt lat="49.2021856417507" lon="6.588220110309976"><ele>351.0</ele><time>2026-04-19T12:20:15Z</time></trkpt><trkpt lat="49.20202675028025" lon="6.588435627316748"><ele>350.0</ele><time>2026-04-19T12:20:16Z</time></trkpt><trkpt lat="49.20184672833394" lon="6.588630179560889"><ele>350.5</ele><time>2026-04-19T12:20:17Z</time></trkpt><trkpt lat="49.20165029855492" lon="6.588826990977861"><ele>351.0</ele><time>2026-04-19T12:20:18Z</time></trkpt><trkpt lat="49.201459466479534" lon="6.589027803801234"><ele>350.6666666666667</ele><time>2026-04-19T12:20:19Z</time></trkpt><trkpt lat="49.20127931929758" lon="6.5892092520946335"><ele>350.33333333333337</ele><time>2026-04-19T12:20:20Z</time></trkpt><trkpt lat="49.2010937172369" lon="6.589378487953661"><ele>350.0</ele><time>2026-04-19T12:20:21Z</time></trkpt><trkpt lat="49.200897661984285" lon="6.5895425647160035"><ele>350.0</ele><time>2026-04-19T12:20:22Z</time></trkpt><trkpt lat="49.20069654346073" lon="6.589696523019798"><ele>350.0</ele><time>2026-04-19T12:20:23Z</time></trkpt><trkpt lat="49.20050282315565" lon="6.589865492300906"><ele>350.0</ele><time>2026-04-19T12:20:24Z</time></trkpt><trkpt lat="49.20032849278654" lon="6.590070693804189"><ele>349.6666666666667</ele><time>2026-04-19T12:20:25Z</time></trkpt><trkpt lat="49.200175754029715" lon="6.590305040184171"><ele>349.3333333333333</ele><time>2026-04-19T12:20:26Z</time></trkpt><trkpt lat="49.20004474653653" lon="6.590561660179335"><ele>349.0</ele><time>2026-04-19T12:20:27Z</time></trkpt><trkpt lat="49.19992546890616" lon="6.590824110953909"><ele>349.0</ele><time>2026-04-19T12:20:28Z</time></trkpt><trkpt lat="49.19979797547041" lon="6.591094210432384"><ele>349.0</ele><time>2026-04-19T12:20:29Z</time></trkpt><trkpt lat="49.19966480913988" lon="6.59135484622389"><ele>349.0</ele><time>2026-04-19T12:20:30Z</time></trkpt><trkpt lat="49.19952659815628" lon="6.591604665233931"><ele>349.66666666666663</ele><time>2026-04-19T12:20:31Z</time></trkpt><trkpt lat="49.199384248126094" lon="6.591849703365089"><ele>350.3333333333333</ele><time>2026-04-19T12:20:32Z</time></trkpt><trkpt lat="49.19924018817896" lon="6.592095055278768"><ele>351.0</ele><time>2026-04-19T12:20:33Z</time></trkpt><trkpt lat="49.19909328601479" lon="6.592342371982618"><ele>352.3333333333333</ele><time>2026-04-19T12:20:34Z</time></trkpt><trkpt lat="49.198935389795714" lon="6.592573068015549"><ele>353.66666666666663</ele><time>2026-04-19T12:20:35Z</time></trkpt><trkpt lat="49.19875174913246" lon="6.592786520539154"><ele>355.0</ele><time>2026-04-19T12:20:36Z</time></trkpt><trkpt lat="49.19853216500017" lon="6.592986770820752"><ele>355.5</ele><time>2026-04-19T12:20:37Z</time></trkpt><trkpt lat="49.19830365422492" lon="6.593178350688977"><ele>356.0</ele><time>2026-04-19T12:20:38Z</time></trkpt><trkpt lat="49.1980863378405" lon="6.593369184476028"><ele>356.0</ele><time>2026-04-19T12:20:39Z</time></trkpt><trkpt lat="49.19788468277615" lon="6.5935541399374795"><ele>356.0</ele><time>2026-04-19T12:20:40Z</time></trkpt><trkpt lat="49.19770762973403" lon="6.593728089812636"><ele>356.0</ele><time>2026-04-19T12:20:41Z</time></trkpt><trkpt lat="49.19755630083774" lon="6.593936245064256"><ele>356.33333333333337</ele><time>2026-04-19T12:20:42Z</time></trkpt><trkpt lat="49.19743034160374" lon="6.594192482435308"><ele>356.6666666666667</ele><time>2026-04-19T12:20:43Z</time></trkpt><trkpt lat="49.197322516474976" lon="6.5944814608701305"><ele>357.0</ele><time>2026-04-19T12:20:44Z</time></trkpt><trkpt lat="49.19724295032627" lon="6.59479086657377"><ele>356.0</ele><time>2026-04-19T12:20:45Z</time></trkpt><trkpt lat="49.197197485759155" lon="6.595120369599184"><ele>355.0</ele><time>2026-04-19T12:20:46Z</time></trkpt><trkpt lat="49.19716737620007" lon="6.5954634943036865"><ele>354.0</ele><time>2026-04-19T12:20:47Z</time></trkpt><trkpt lat="49.1971251812382" lon="6.595816671482395"><ele>354.0</ele><time>2026-04-19T12:20:48Z</time></trkpt><trkpt lat="49.19707978670193" lon="6.596161570726744"><ele>354.0</ele><time>2026-04-19T12:20:49Z</time></trkpt><trkpt lat="49.19704040288" lon="6.596500808613601"><ele>353.0</ele><time>2026-04-19T12:20:50Z</time></trkpt><trkpt lat="49.19701316716609" lon="6.596855143193559"><ele>352.0</ele><time>2026-04-19T12:20:51Z</time></trkpt><trkpt lat="49.19700473225301" lon="6.597212865548128"><ele>351.0</ele><time>2026-04-19T12:20:52Z</time></trkpt><trkpt lat="49.19701698795301" lon="6.597581426261111"><ele>350.0</ele><time>2026-04-19T12:20:53Z</time></trkpt><trkpt lat="49.197035936801775" lon="6.597958833317465"><ele>348.0</ele><time>2026-04-19T12:20:54Z</time></trkpt><trkpt lat="49.19703573073851" lon="6.598339943787299"><ele>346.0</ele><time>2026-04-19T12:20:55Z</time></trkpt><trkpt lat="49.197012095377104" lon="6.5987340816456275"><ele>345.5</ele><time>2026-04-19T12:20:56Z</time></trkpt><trkpt lat="49.1969774741761" lon="6.599120056732627"><ele>345.0</ele><time>2026-04-19T12:20:57Z</time></trkpt><trkpt lat="49.19693527559134" lon="6.599506721357674"><ele>343.0</ele><time>2026-04-19T12:20:58Z</time></trkpt><trkpt lat="49.19688441249108" lon="6.599894217267644"><ele>341.0</ele><time>2026-04-19T12:20:59Z</time></trkpt><trkpt lat="49.19681996894166" lon="6.6002764962076"><ele>339.0</ele><time>2026-04-19T12:21:00Z</time></trkpt><trkpt lat="49.196713068571704" lon="6.60062577918157"><ele>337.0</ele><time>2026-04-19T12:21:01Z</time></trkpt><trkpt lat="49.19659790421567" lon="6.600967044087344"><ele>338.5</ele><time>2026-04-19T12:21:02Z</time></trkpt><trkpt lat="49.19646031445489" lon="6.60129057623792"><ele>340.0</ele><time>2026-04-19T12:21:03Z</time></trkpt><trkpt lat="49.19630537236274" lon="6.601594757689481"><ele>340.0</ele><time>2026-04-19T12:21:04Z</time></trkpt><trkpt lat="49.196129394469516" lon="6.601901759651733"><ele>340.0</ele><time>2026-04-19T12:21:05Z</time></trkpt><trkpt lat="49.19595957458626" lon="6.602213509901832"><ele>341.5</ele><time>2026-04-19T12:21:06Z</time></trkpt><trkpt lat="49.1957805472968" lon="6.6025033871122645"><ele>343.0</ele><time>2026-04-19T12:21:07Z</time></trkpt><trkpt lat="49.19561238676702" lon="6.602795774453289"><ele>339.0</ele><time>2026-04-19T12:21:08Z</time></trkpt><trkpt lat="49.19546433442302" lon="6.603079073495953"><ele>335.0</ele><time>2026-04-19T12:21:09Z</time></trkpt><trkpt lat="49.19530437466128" lon="6.6033259311431385"><ele>335.0</ele><time>2026-04-19T12:21:10Z</time></trkpt><trkpt lat="49.1951558213913" lon="6.603596437648036"><ele>335.0</ele><time>2026-04-19T12:21:11Z</time></trkpt><trkpt lat="49.19511952170309" lon="6.604026008172285"><ele>330.5</ele><time>2026-04-19T12:21:12Z</time></trkpt><trkpt lat="49.19503717394677" lon="6.604394024349017"><ele>326.0</ele><time>2026-04-19T12:21:13Z</time></trkpt><trkpt lat="49.194961872973856" lon="6.604771875361891"><ele>324.5</ele><time>2026-04-19T12:21:14Z</time></trkpt><trkpt lat="49.19488858807536" lon="6.605143498016351"><ele>323.0</ele><time>2026-04-19T12:21:15Z</time></trkpt><trkpt lat="49.194807177532475" lon="6.605495470670521"><ele>322.0</ele><time>2026-04-19T12:21:16Z</time></trkpt><trkpt lat="49.19472747808995" lon="6.6058271483706665"><ele>321.0</ele><time>2026-04-19T12:21:17Z</time></trkpt><trkpt lat="49.194642073780976" lon="6.60614445891153"><ele>319.3333333333333</ele><time>2026-04-19T12:21:18Z</time></trkpt><trkpt lat="49.19453319307896" lon="6.606430758813256"><ele>317.66666666666663</ele><time>2026-04-19T12:21:19Z</time></trkpt><trkpt lat="49.194401418062895" lon="6.6066833639617375"><ele>316.0</ele><time>2026-04-19T12:21:20Z</time></trkpt><trkpt lat="49.194258963678436" lon="6.606914210658725"><ele>314.3333333333333</ele><time>2026-04-19T12:21:21Z</time></trkpt><trkpt lat="49.19410128907339" lon="6.607109283238453"><ele>312.6666666666667</ele><time>2026-04-19T12:21:22Z</time></trkpt><trkpt lat="49.19393673824845" lon="6.607268374023402"><ele>311.0</ele><time>2026-04-19T12:21:23Z</time></trkpt><trkpt lat="49.193777936136456" lon="6.607414555624966"><ele>311.0</ele><time>2026-04-19T12:21:24Z</time></trkpt><trkpt lat="49.193631320628114" lon="6.6075831335082755"><ele>311.0</ele><time>2026-04-19T12:21:25Z</time></trkpt><trkpt lat="49.193491356985696" lon="6.607818770194579"><ele>311.0</ele><time>2026-04-19T12:21:26Z</time></trkpt><trkpt lat="49.19335241231953" lon="6.608091926903398"><ele>311.0</ele><time>2026-04-19T12:21:27Z</time></trkpt><trkpt lat="49.19324186353978" lon="6.60834109757478"><ele>311.0</ele><time>2026-04-19T12:21:28Z</time></trkpt><trkpt lat="49.19313949236712" lon="6.608573664874723"><ele>311.0</ele><time>2026-04-19T12:21:29Z</time></trkpt><trkpt lat="49.193033430478785" lon="6.608796404832996"><ele>311.25</ele><time>2026-04-19T12:21:30Z</time></trkpt><trkpt lat="49.19293407369888" lon="6.608991955237566"><ele>311.5</ele><time>2026-04-19T12:21:31Z</time></trkpt><trkpt lat="49.19284933430239" lon="6.609155522701213"><ele>311.75</ele><time>2026-04-19T12:21:32Z</time></trkpt><trkpt lat="49.19278854873019" lon="6.609293866111025"><ele>312.0</ele><time>2026-04-19T12:21:33Z</time></trkpt><trkpt lat="49.192760129559964" lon="6.609394864332321"><ele>312.4</ele><time>2026-04-19T12:21:34Z</time></trkpt><trkpt lat="49.19278859606404" lon="6.609505062139696"><ele>312.79999999999995</ele><time>2026-04-19T12:21:36Z</time></trkpt><trkpt lat="49.19285963900686" lon="6.609624242032878"><ele>313.2</ele><time>2026-04-19T12:21:38Z</time></trkpt><trkpt lat="49.19288508054912" lon="6.60974325671415"><ele>313.59999999999997</ele><time>2026-04-19T12:21:39Z</time></trkpt><trkpt lat="49.19292545015281" lon="6.6098832440060855"><ele>314.0</ele><time>2026-04-19T12:21:40Z</time></trkpt><trkpt lat="49.19296291662031" lon="6.6100180233267025"><ele>314.0</ele><time>2026-04-19T12:21:41Z</time></trkpt><trkpt lat="49.192997424607555" lon="6.610133749964848"><ele>314.0</ele><time>2026-04-19T12:21:42Z</time></trkpt><trkpt lat="49.19302807189234" lon="6.610244266491839"><ele>314.0</ele><time>2026-04-19T12:21:43Z</time></trkpt><trkpt lat="49.19305682706236" lon="6.610374184852307"><ele>314.0</ele><time>2026-04-19T12:21:44Z</time></trkpt><trkpt lat="49.193088621451764" lon="6.610506611650425"><ele>314.0</ele><time>2026-04-19T12:21:45Z</time></trkpt><trkpt lat="49.1931294855286" lon="6.6106421413091025"><ele>314.0</ele><time>2026-04-19T12:21:46Z</time></trkpt><trkpt lat="49.193174634299034" lon="6.610782192326272"><ele>314.25</ele><time>2026-04-19T12:21:47Z</time></trkpt><trkpt lat="49.193224242441524" lon="6.610933555173012"><ele>314.5</ele><time>2026-04-19T12:21:48Z</time></trkpt><trkpt lat="49.19328021460488" lon="6.611092596826829"><ele>314.75</ele><time>2026-04-19T12:21:49Z</time></trkpt><trkpt lat="49.193337484476366" lon="6.6112564859063925"><ele>315.0</ele><time>2026-04-19T12:21:50Z</time></trkpt><trkpt lat="49.19339746429174" lon="6.611434681632748"><ele>315.0</ele><time>2026-04-19T12:21:51Z</time></trkpt><trkpt lat="49.193464557234975" lon="6.61161528539384"><ele>315.0</ele><time>2026-04-19T12:21:52Z</time></trkpt><trkpt lat="49.193528049224355" lon="6.611796968969152"><ele>315.0</ele><time>2026-04-19T12:21:53Z</time></trkpt><trkpt lat="49.193586275206" lon="6.61197016975533"><ele>315.0</ele><time>2026-04-19T12:21:54Z</time></trkpt><trkpt lat="49.19364170854495" lon="6.612123064197461"><ele>314.5</ele><time>2026-04-19T12:21:55Z</time></trkpt><trkpt lat="49.193706491690094" lon="6.612271476459257"><ele>314.0</ele><time>2026-04-19T12:21:56Z</time></trkpt><trkpt lat="49.19378278766345" lon="6.612415900284718"><ele>313.5</ele><time>2026-04-19T12:21:57Z</time></trkpt><trkpt lat="49.19387903209944" lon="6.612543765987508"><ele>313.0</ele><time>2026-04-19T12:21:58Z</time></trkpt><trkpt lat="49.193988176915454" lon="6.612653463045569"><ele>313.25</ele><time>2026-04-19T12:21:59Z</time></trkpt><trkpt lat="49.19410033140595" lon="6.612763422360971"><ele>313.5</ele><time>2026-04-19T12:22:00Z</time></trkpt><trkpt lat="49.19420999035001" lon="6.612880448971844"><ele>313.75</ele><time>2026-04-19T12:22:01Z</time></trkpt><trkpt lat="49.19432549923981" lon="6.613000832683295"><ele>314.0</ele><time>2026-04-19T12:22:02Z</time></trkpt><trkpt lat="49.1944408347453" lon="6.613118172769691"><ele>313.25</ele><time>2026-04-19T12:22:03Z</time></trkpt><trkpt lat="49.194554507216544" lon="6.613240365819491"><ele>312.5</ele><time>2026-04-19T12:22:04Z</time></trkpt><trkpt lat="49.19466619978916" lon="6.613365540157218"><ele>311.75</ele><time>2026-04-19T12:22:05Z</time></trkpt><trkpt lat="49.19477999422458" lon="6.613499177432473"><ele>311.0</ele><time>2026-04-19T12:22:06Z</time></trkpt><trkpt lat="49.19488643607907" lon="6.613643826134484"><ele>310.25</ele><time>2026-04-19T12:22:07Z</time></trkpt><trkpt lat="49.19498474989247" lon="6.61379757442577"><ele>309.5</ele><time>2026-04-19T12:22:08Z</time></trkpt><trkpt lat="49.19507485739277" lon="6.613960551578995"><ele>308.75</ele><time>2026-04-19T12:22:09Z</time></trkpt><trkpt lat="49.195159856265334" lon="6.6141328344872665"><ele>308.0</ele><time>2026-04-19T12:22:10Z</time></trkpt><trkpt lat="49.19523756806811" lon="6.6143132985316235"><ele>307.5</ele><time>2026-04-19T12:22:11Z</time></trkpt><trkpt lat="49.19531264216452" lon="6.614499899049151"><ele>307.0</ele><time>2026-04-19T12:22:12Z</time></trkpt><trkpt lat="49.195388496021785" lon="6.614685795891481"><ele>306.5</ele><time>2026-04-19T12:22:13Z</time></trkpt><trkpt lat="49.19546405250831" lon="6.614873755997707"><ele>306.0</ele><time>2026-04-19T12:22:14Z</time></trkpt><trkpt lat="49.19553775517639" lon="6.615063175254199"><ele>306.0</ele><time>2026-04-19T12:22:15Z</time></trkpt><trkpt lat="49.19561481026023" lon="6.615253678948105"><ele>306.0</ele><time>2026-04-19T12:22:16Z</time></trkpt><trkpt lat="49.19569201900973" lon="6.615445671867259"><ele>306.0</ele><time>2026-04-19T12:22:17Z</time></trkpt><trkpt lat="49.19577095256217" lon="6.615639569872735"><ele>306.0</ele><time>2026-04-19T12:22:18Z</time></trkpt><trkpt lat="49.19584713532963" lon="6.615827426190288"><ele>307.25</ele><time>2026-04-19T12:22:19Z</time></trkpt><trkpt lat="49.19592401644661" lon="6.616019496959632"><ele>308.5</ele><time>2026-04-19T12:22:20Z</time></trkpt><trkpt lat="49.195998966244446" lon="6.616211561396805"><ele>309.75</ele><time>2026-04-19T12:22:21Z</time></trkpt><trkpt lat="49.19607594971102" lon="6.616401670596131"><ele>311.0</ele><time>2026-04-19T12:22:22Z</time></trkpt><trkpt lat="49.19615132785162" lon="6.616588898187307"><ele>311.25</ele><time>2026-04-19T12:22:23Z</time></trkpt><trkpt lat="49.19622677215775" lon="6.616774947160158"><ele>311.5</ele><time>2026-04-19T12:22:24Z</time></trkpt><trkpt lat="49.19630058728551" lon="6.616960143113375"><ele>311.75</ele><time>2026-04-19T12:22:25Z</time></trkpt><trkpt lat="49.19637488204525" lon="6.617143881962864"><ele>312.0</ele><time>2026-04-19T12:22:26Z</time></trkpt><trkpt lat="49.19645069887313" lon="6.617324456903425"><ele>313.0</ele><time>2026-04-19T12:22:27Z</time></trkpt><trkpt lat="49.196526620557" lon="6.617507458030125"><ele>314.0</ele><time>2026-04-19T12:22:28Z</time></trkpt><trkpt lat="49.19659847663785" lon="6.617685955952544"><ele>315.0</ele><time>2026-04-19T12:22:29Z</time></trkpt><trkpt lat="49.196670670403456" lon="6.6178695416470825"><ele>316.0</ele><time>2026-04-19T12:22:30Z</time></trkpt><trkpt lat="49.19674682838248" lon="6.618049668422059"><ele>316.5</ele><time>2026-04-19T12:22:31Z</time></trkpt><trkpt lat="49.19682342777199" lon="6.6182297448457845"><ele>317.0</ele><time>2026-04-19T12:22:32Z</time></trkpt><trkpt lat="49.19689868287786" lon="6.618413139207717"><ele>317.5</ele><time>2026-04-19T12:22:33Z</time></trkpt><trkpt lat="49.196968562744644" lon="6.618598918964216"><ele>318.0</ele><time>2026-04-19T12:22:34Z</time></trkpt><trkpt lat="49.19704258506273" lon="6.618784008994177"><ele>318.25</ele><time>2026-04-19T12:22:35Z</time></trkpt><trkpt lat="49.1971136600742" lon="6.6189692390807195"><ele>318.5</ele><time>2026-04-19T12:22:36Z</time></trkpt><trkpt lat="49.19717678294886" lon="6.6191634256890515"><ele>318.75</ele><time>2026-04-19T12:22:37Z</time></trkpt><trkpt lat="49.19724275941114" lon="6.619358416256119"><ele>319.0</ele><time>2026-04-19T12:22:38Z</time></trkpt><trkpt lat="49.19730909164986" lon="6.619551643928569"><ele>318.75</ele><time>2026-04-19T12:22:39Z</time></trkpt><trkpt lat="49.19737626345498" lon="6.619744133621895"><ele>318.5</ele><time>2026-04-19T12:22:40Z</time></trkpt><trkpt lat="49.197444574742704" lon="6.619934094344633"><ele>318.25</ele><time>2026-04-19T12:22:41Z</time></trkpt><trkpt lat="49.19751100441512" lon="6.620124615964"><ele>318.0</ele><time>2026-04-19T12:22:42Z</time></trkpt><trkpt lat="49.19757782443696" lon="6.620316094149344"><ele>318.0</ele><time>2026-04-19T12:22:43Z</time></trkpt><trkpt lat="49.197644572647754" lon="6.620508202352614"><ele>318.0</ele><time>2026-04-19T12:22:44Z</time></trkpt><trkpt lat="49.197712909049756" lon="6.620707588643917"><ele>318.0</ele><time>2026-04-19T12:22:45Z</time></trkpt><trkpt lat="49.197779902729565" lon="6.620903609706978"><ele>318.0</ele><time>2026-04-19T12:22:46Z</time></trkpt><trkpt lat="49.19785093670156" lon="6.6211078070017715"><ele>318.6666666666667</ele><time>2026-04-19T12:22:47Z</time></trkpt><trkpt lat="49.19792485268954" lon="6.621314155430692"><ele>319.33333333333337</ele><time>2026-04-19T12:22:48Z</time></trkpt><trkpt lat="49.197999689288196" lon="6.621528109860696"><ele>320.0</ele><time>2026-04-19T12:22:49Z</time></trkpt><trkpt lat="49.1980730506863" lon="6.621734467727717"><ele>320.0</ele><time>2026-04-19T12:22:50Z</time></trkpt><trkpt lat="49.198146307511756" lon="6.621944812038895"><ele>320.0</ele><time>2026-04-19T12:22:51Z</time></trkpt><trkpt lat="49.19821857718651" lon="6.622149335514384"><ele>320.0</ele><time>2026-04-19T12:22:52Z</time></trkpt><trkpt lat="49.198291990149635" lon="6.6223560830511845"><ele>319.75</ele><time>2026-04-19T12:22:53Z</time></trkpt><trkpt lat="49.19836505904395" lon="6.62255538994973"><ele>319.5</ele><time>2026-04-19T12:22:54Z</time></trkpt><trkpt lat="49.19842827953715" lon="6.622735357533442"><ele>319.25</ele><time>2026-04-19T12:22:55Z</time></trkpt><trkpt lat="49.19848358440504" lon="6.622898444045244"><ele>319.0</ele><time>2026-04-19T12:22:56Z</time></trkpt><trkpt lat="49.19853423484377" lon="6.623051628427647"><ele>319.0</ele><time>2026-04-19T12:22:57Z</time></trkpt><trkpt lat="49.19858513352186" lon="6.623207410319621"><ele>319.0</ele><time>2026-04-19T12:22:58Z</time></trkpt><trkpt lat="49.19862770129196" lon="6.623390843640703"><ele>319.0</ele><time>2026-04-19T12:22:59Z</time></trkpt><trkpt lat="49.19865023899016" lon="6.623591341994771"><ele>319.0</ele><time>2026-04-19T12:23:00Z</time></trkpt><trkpt lat="49.19866477359775" lon="6.623802555155929"><ele>319.25</ele><time>2026-04-19T12:23:01Z</time></trkpt><trkpt lat="49.19868981587428" lon="6.62401875729153"><ele>319.5</ele><time>2026-04-19T12:23:02Z</time></trkpt><trkpt lat="49.19870957226837" lon="6.624217349726753"><ele>319.75</ele><time>2026-04-19T12:23:03Z</time></trkpt><trkpt lat="49.198725554934306" lon="6.624390200070451"><ele>320.0</ele><time>2026-04-19T12:23:04Z</time></trkpt><trkpt lat="49.19874435328452" lon="6.624543387850329"><ele>321.0</ele><time>2026-04-19T12:23:05Z</time></trkpt><trkpt lat="49.1987597878274" lon="6.624687683716429"><ele>322.0</ele><time>2026-04-19T12:23:06Z</time></trkpt><trkpt lat="49.198773203116176" lon="6.624821007016386"><ele>323.0</ele><time>2026-04-19T12:23:07Z</time></trkpt><trkpt lat="49.198783931082936" lon="6.624939207455688"><ele>324.0</ele><time>2026-04-19T12:23:08Z</time></trkpt><trkpt lat="49.19878719357422" lon="6.625102496612676"><ele>325.0</ele><time>2026-04-19T12:23:10Z</time></trkpt><trkpt lat="49.19880039292605" lon="6.625209970838079"><ele>326.0</ele><time>2026-04-19T12:23:36Z</time></trkpt><trkpt lat="49.198819795337435" lon="6.625375884747267"><ele>326.6</ele><time>2026-04-19T12:23:38Z</time></trkpt><trkpt lat="49.19883489521783" lon="6.625585815530363"><ele>327.20000000000005</ele><time>2026-04-19T12:23:40Z</time></trkpt><trkpt lat="49.19884865779359" lon="6.625700902957754"><ele>327.79999999999995</ele><time>2026-04-19T12:23:41Z</time></trkpt><trkpt lat="49.19888386250133" lon="6.625826577014513"><ele>328.4</ele><time>2026-04-19T12:23:42Z</time></trkpt><trkpt lat="49.19892983081309" lon="6.625949358262589"><ele>329.0</ele><time>2026-04-19T12:23:43Z</time></trkpt><trkpt lat="49.198984048747604" lon="6.626059363853874"><ele>329.83333333333337</ele><time>2026-04-19T12:23:44Z</time></trkpt><trkpt lat="49.19903793970927" lon="6.626162075242501"><ele>330.6666666666667</ele><time>2026-04-19T12:23:45Z</time></trkpt><trkpt lat="49.19908463549365" lon="6.626258194560247"><ele>331.5</ele><time>2026-04-19T12:23:46Z</time></trkpt><trkpt lat="49.19912669741281" lon="6.626350350447986"><ele>332.3333333333333</ele><time>2026-04-19T12:23:47Z</time></trkpt><trkpt lat="49.19917154600649" lon="6.626454060460912"><ele>333.16666666666663</ele><time>2026-04-19T12:23:48Z</time></trkpt><trkpt lat="49.19922220295561" lon="6.626564359419616"><ele>334.0</ele><time>2026-04-19T12:23:49Z</time></trkpt><trkpt lat="49.19925830961222" lon="6.626693266068947"><ele>334.0</ele><time>2026-04-19T12:23:50Z</time></trkpt><trkpt lat="49.199319170869124" lon="6.626802865260778"><ele>334.0</ele><time>2026-04-19T12:23:51Z</time></trkpt><trkpt lat="49.19936036357848" lon="6.626951252314234"><ele>334.0</ele><time>2026-04-19T12:23:52Z</time></trkpt><trkpt lat="49.199397609447914" lon="6.627096429043866"><ele>334.0</ele><time>2026-04-19T12:23:53Z</time></trkpt><trkpt lat="49.199427048419714" lon="6.627257681702305"><ele>334.0</ele><time>2026-04-19T12:23:54Z</time></trkpt><trkpt lat="49.19944712133475" lon="6.6274275947260275"><ele>333.0</ele><time>2026-04-19T12:23:55Z</time></trkpt><trkpt lat="49.19946888705654" lon="6.627599752711561"><ele>332.0</ele><time>2026-04-19T12:23:56Z</time></trkpt><trkpt lat="49.19948876254709" lon="6.6277814992924595"><ele>331.0</ele><time>2026-04-19T12:23:57Z</time></trkpt><trkpt lat="49.19950395597711" lon="6.627970309728965"><ele>330.0</ele><time>2026-04-19T12:23:58Z</time></trkpt><trkpt lat="49.199519009376" lon="6.628175325515716"><ele>328.25</ele><time>2026-04-19T12:23:59Z</time></trkpt><trkpt lat="49.19954167976061" lon="6.628393759301652"><ele>326.5</ele><time>2026-04-19T12:24:00Z</time></trkpt><trkpt lat="49.199571804839486" lon="6.628604427147352"><ele>324.75</ele><time>2026-04-19T12:24:01Z</time></trkpt><trkpt lat="49.199602012631196" lon="6.628798749549664"><ele>323.0</ele><time>2026-04-19T12:24:02Z</time></trkpt><trkpt lat="49.199642560593574" lon="6.628992948144262"><ele>321.25</ele><time>2026-04-19T12:24:03Z</time></trkpt><trkpt lat="49.199684249527294" lon="6.629183069292458"><ele>319.5</ele><time>2026-04-19T12:24:04Z</time></trkpt><trkpt lat="49.19972067898271" lon="6.629376643245399"><ele>317.75</ele><time>2026-04-19T12:24:05Z</time></trkpt><trkpt lat="49.19975520939935" lon="6.629558039785929"><ele>316.0</ele><time>2026-04-19T12:24:06Z</time></trkpt><trkpt lat="49.199789323618454" lon="6.629723710591432"><ele>313.75</ele><time>2026-04-19T12:24:07Z</time></trkpt><trkpt lat="49.19982367669998" lon="6.62988940145324"><ele>311.5</ele><time>2026-04-19T12:24:08Z</time></trkpt><trkpt lat="49.19986538295293" lon="6.6300654677367605"><ele>309.25</ele><time>2026-04-19T12:24:09Z</time></trkpt><trkpt lat="49.199911049537974" lon="6.630240553317206"><ele>307.0</ele><time>2026-04-19T12:24:10Z</time></trkpt><trkpt lat="49.19994919309789" lon="6.630413386533282"><ele>311.75</ele><time>2026-04-19T12:24:11Z</time></trkpt><trkpt lat="49.199984644416695" lon="6.630586904427679"><ele>316.5</ele><time>2026-04-19T12:24:12Z</time></trkpt><trkpt lat="49.20001572969012" lon="6.630755854070461"><ele>321.25</ele><time>2026-04-19T12:24:13Z</time></trkpt><trkpt lat="49.20004986128276" lon="6.630926548105831"><ele>326.0</ele><time>2026-04-19T12:24:14Z</time></trkpt><trkpt lat="49.20008417759764" lon="6.631090712454504"><ele>324.8</ele><time>2026-04-19T12:24:15Z</time></trkpt><trkpt lat="49.200120269503074" lon="6.63125365794992"><ele>323.6</ele><time>2026-04-19T12:24:16Z</time></trkpt><trkpt lat="49.200155430765705" lon="6.63141255794517"><ele>322.4</ele><time>2026-04-19T12:24:17Z</time></trkpt><trkpt lat="49.20018793492783" lon="6.631575459226187"><ele>321.2</ele><time>2026-04-19T12:24:18Z</time></trkpt><trkpt lat="49.20022917034547" lon="6.631739972144178"><ele>320.0</ele><time>2026-04-19T12:24:19Z</time></trkpt><trkpt lat="49.20027253542833" lon="6.631907282764217"><ele>317.75</ele><time>2026-04-19T12:24:20Z</time></trkpt><trkpt lat="49.20032116333006" lon="6.632075098276311"><ele>315.5</ele><time>2026-04-19T12:24:21Z</time></trkpt><trkpt lat="49.200375254855516" lon="6.63224797427449"><ele>313.25</ele><time>2026-04-19T12:24:22Z</time></trkpt><trkpt lat="49.20043100709712" lon="6.632403323760011"><ele>311.0</ele><time>2026-04-19T12:24:23Z</time></trkpt><trkpt lat="49.20047561111339" lon="6.632564191414145"><ele>311.0</ele><time>2026-04-19T12:24:24Z</time></trkpt><trkpt lat="49.20050610253243" lon="6.632710415397918"><ele>311.0</ele><time>2026-04-19T12:24:25Z</time></trkpt><trkpt lat="49.20051351116821" lon="6.63283941942807"><ele>311.0</ele><time>2026-04-19T12:24:26Z</time></trkpt><trkpt lat="49.2004820437472" lon="6.632958028203763"><ele>311.0</ele><time>2026-04-19T12:24:27Z</time></trkpt><trkpt lat="49.20041178528536" lon="6.633039143477449"><ele>311.0</ele><time>2026-04-19T12:24:28Z</time></trkpt><trkpt lat="49.20033087828807" lon="6.633048915945768"><ele>311.0</ele><time>2026-04-19T12:24:29Z</time></trkpt><trkpt lat="49.20025547400558" lon="6.633003515145481"><ele>311.0</ele><time>2026-04-19T12:24:30Z</time></trkpt><trkpt lat="49.20021348818208" lon="6.632869312449504"><ele>311.0</ele><time>2026-04-19T12:24:31Z</time></trkpt><trkpt lat="49.200219396934116" lon="6.632705762548731"><ele>311.0</ele><time>2026-04-19T12:24:32Z</time></trkpt><trkpt lat="49.20019171208512" lon="6.632518302422943"><ele>311.0</ele><time>2026-04-19T12:24:33Z</time></trkpt><trkpt lat="49.20015212608077" lon="6.632315498517355"><ele>311.0</ele><time>2026-04-19T12:24:34Z</time></trkpt><trkpt lat="49.20007702003842" lon="6.632118062510235"><ele>311.0</ele><time>2026-04-19T12:24:35Z</time></trkpt><trkpt lat="49.19998847485476" lon="6.631936520835966"><ele>311.0</ele><time>2026-04-19T12:24:36Z</time></trkpt><trkpt lat="49.19990384112753" lon="6.631765004695127"><ele>311.0</ele><time>2026-04-19T12:24:37Z</time></trkpt><trkpt lat="49.199831776650434" lon="6.631601538061101"><ele>308.25</ele><time>2026-04-19T12:24:38Z</time></trkpt><trkpt lat="49.19977496786652" lon="6.6314416643099525"><ele>305.5</ele><time>2026-04-19T12:24:39Z</time></trkpt><trkpt lat="49.19973289925961" lon="6.6312851188387185"><ele>302.75</ele><time>2026-04-19T12:24:40Z</time></trkpt><trkpt lat="49.19969253021743" lon="6.631109889060515"><ele>300.0</ele><time>2026-04-19T12:24:41Z</time></trkpt><trkpt lat="49.199649295995144" lon="6.63092342793097"><ele>300.0</ele><time>2026-04-19T12:24:42Z</time></trkpt><trkpt lat="49.19958291588536" lon="6.630737260511953"><ele>300.0</ele><time>2026-04-19T12:24:43Z</time></trkpt><trkpt lat="49.1995318061623" lon="6.630554382487036"><ele>300.0</ele><time>2026-04-19T12:24:44Z</time></trkpt><trkpt lat="49.19947448264529" lon="6.63039455866269"><ele>300.0</ele><time>2026-04-19T12:24:45Z</time></trkpt><trkpt lat="49.1994245953288" lon="6.63024869209898"><ele>301.75</ele><time>2026-04-19T12:24:46Z</time></trkpt><trkpt lat="49.19937525723151" lon="6.630116252124005"><ele>303.5</ele><time>2026-04-19T12:24:47Z</time></trkpt><trkpt lat="49.19933518765282" lon="6.629970393128465"><ele>305.25</ele><time>2026-04-19T12:24:48Z</time></trkpt><trkpt lat="49.199279950483685" lon="6.629798151943154"><ele>307.0</ele><time>2026-04-19T12:24:49Z</time></trkpt><trkpt lat="49.199224081437634" lon="6.629617613367558"><ele>309.25</ele><time>2026-04-19T12:24:50Z</time></trkpt><trkpt lat="49.199160361839134" lon="6.629433799500791"><ele>311.5</ele><time>2026-04-19T12:24:51Z</time></trkpt><trkpt lat="49.19909116619468" lon="6.629261545677991"><ele>313.75</ele><time>2026-04-19T12:24:52Z</time></trkpt><trkpt lat="49.19902441068033" lon="6.6291052145418305"><ele>316.0</ele><time>2026-04-19T12:24:53Z</time></trkpt><trkpt lat="49.198961667347" lon="6.6289369863378145"><ele>311.25</ele><time>2026-04-19T12:24:54Z</time></trkpt><trkpt lat="49.19889872904738" lon="6.628766159706957"><ele>306.5</ele><time>2026-04-19T12:24:55Z</time></trkpt><trkpt lat="49.19883226111435" lon="6.62859697700974"><ele>301.75</ele><time>2026-04-19T12:24:56Z</time></trkpt><trkpt lat="49.1987706964425" lon="6.628428195726304"><ele>297.0</ele><time>2026-04-19T12:24:57Z</time></trkpt><trkpt lat="49.19870170003514" lon="6.628266904133925"><ele>297.0</ele><time>2026-04-19T12:24:58Z</time></trkpt><trkpt lat="49.198637030406935" lon="6.628119164241367"><ele>297.0</ele><time>2026-04-19T12:24:59Z</time></trkpt><trkpt lat="49.19857528809314" lon="6.627984826288165"><ele>297.0</ele><time>2026-04-19T12:25:00Z</time></trkpt><trkpt lat="49.19850810028715" lon="6.627834318408277"><ele>297.0</ele><time>2026-04-19T12:25:01Z</time></trkpt><trkpt lat="49.19843074617368" lon="6.627703476259413"><ele>295.25</ele><time>2026-04-19T12:25:02Z</time></trkpt><trkpt lat="49.19834570241827" lon="6.627575289078766"><ele>293.5</ele><time>2026-04-19T12:25:03Z</time></trkpt><trkpt lat="49.19825147873041" lon="6.627465674227509"><ele>291.75</ele><time>2026-04-19T12:25:04Z</time></trkpt><trkpt lat="49.1981756980384" lon="6.627342502047325"><ele>290.0</ele><time>2026-04-19T12:25:05Z</time></trkpt><trkpt lat="49.19808788903117" lon="6.627239955274154"><ele>290.0</ele><time>2026-04-19T12:25:06Z</time></trkpt><trkpt lat="49.197992302779944" lon="6.627162302594805"><ele>290.0</ele><time>2026-04-19T12:25:07Z</time></trkpt><trkpt lat="49.19788235003668" lon="6.6271173115540405"><ele>290.0</ele><time>2026-04-19T12:25:08Z</time></trkpt><trkpt lat="49.19777008487382" lon="6.627121315293324"><ele>290.0</ele><time>2026-04-19T12:25:09Z</time></trkpt><trkpt lat="49.197665030836575" lon="6.627166716507206"><ele>290.0</ele><time>2026-04-19T12:25:10Z</time></trkpt><trkpt lat="49.1975703064938" lon="6.6272508696500925"><ele>290.0</ele><time>2026-04-19T12:25:11Z</time></trkpt><trkpt lat="49.19749221470609" lon="6.627365633919365"><ele>290.0</ele><time>2026-04-19T12:25:12Z</time></trkpt><trkpt lat="49.197442273047486" lon="6.627497326327693"><ele>290.0</ele><time>2026-04-19T12:25:13Z</time></trkpt><trkpt lat="49.197411014781316" lon="6.627634570163288"><ele>290.0</ele><time>2026-04-19T12:25:14Z</time></trkpt><trkpt lat="49.19740244928212" lon="6.627786293318622"><ele>290.0</ele><time>2026-04-19T12:25:15Z</time></trkpt><trkpt lat="49.19740765685872" lon="6.627960221271525"><ele>289.25</ele><time>2026-04-19T12:25:16Z</time></trkpt><trkpt lat="49.19741263004233" lon="6.628154154178028"><ele>288.5</ele><time>2026-04-19T12:25:17Z</time></trkpt><trkpt lat="49.19744280598294" lon="6.628349173596019"><ele>287.75</ele><time>2026-04-19T12:25:18Z</time></trkpt><trkpt lat="49.19747708681481" lon="6.628538098723145"><ele>287.0</ele><time>2026-04-19T12:25:19Z</time></trkpt><trkpt lat="49.19751304780291" lon="6.628713312630908"><ele>285.8</ele><time>2026-04-19T12:25:20Z</time></trkpt><trkpt lat="49.197538736240666" lon="6.628880399147173"><ele>284.6</ele><time>2026-04-19T12:25:21Z</time></trkpt><trkpt lat="49.19757135945887" lon="6.629050219773114"><ele>283.40000000000003</ele><time>2026-04-19T12:25:22Z</time></trkpt><trkpt lat="49.197600378953155" lon="6.629214972212338"><ele>282.2</ele><time>2026-04-19T12:25:23Z</time></trkpt><trkpt lat="49.19763346206898" lon="6.6293737897815275"><ele>281.0</ele><time>2026-04-19T12:25:24Z</time></trkpt><trkpt lat="49.19766540795696" lon="6.6295232983376495"><ele>280.2</ele><time>2026-04-19T12:25:25Z</time></trkpt><trkpt lat="49.197690977199414" lon="6.6296906572142955"><ele>279.40000000000003</ele><time>2026-04-19T12:25:26Z</time></trkpt><trkpt lat="49.19771415354793" lon="6.629858505421131"><ele>278.6</ele><time>2026-04-19T12:25:27Z</time></trkpt><trkpt lat="49.19771108624393" lon="6.630020348436745"><ele>277.8</ele><time>2026-04-19T12:25:28Z</time></trkpt><trkpt lat="49.19769377881945" lon="6.6301695335873365"><ele>277.0</ele><time>2026-04-19T12:25:29Z</time></trkpt><trkpt lat="49.19765668664039" lon="6.630312625124441"><ele>276.5</ele><time>2026-04-19T12:25:30Z</time></trkpt><trkpt lat="49.197603892969155" lon="6.630465559297753"><ele>276.0</ele><time>2026-04-19T12:25:31Z</time></trkpt><trkpt lat="49.197536470927204" lon="6.630615494353469"><ele>275.5</ele><time>2026-04-19T12:25:32Z</time></trkpt><trkpt lat="49.19746127445459" lon="6.630752909279071"><ele>275.0</ele><time>2026-04-19T12:25:33Z</time></trkpt><trkpt lat="49.19739994393293" lon="6.630888825494262"><ele>275.0</ele><time>2026-04-19T12:25:34Z</time></trkpt><trkpt lat="49.197367072328355" lon="6.631030514765867"><ele>275.0</ele><time>2026-04-19T12:25:35Z</time></trkpt><trkpt lat="49.1973510692675" lon="6.6312023614114075"><ele>275.0</ele><time>2026-04-19T12:25:36Z</time></trkpt><trkpt lat="49.19734103204278" lon="6.631390179184738"><ele>275.0</ele><time>2026-04-19T12:25:37Z</time></trkpt><trkpt lat="49.19734989496749" lon="6.631574101124637"><ele>274.0</ele><time>2026-04-19T12:25:38Z</time></trkpt><trkpt lat="49.197362806127614" lon="6.631741881327382"><ele>273.0</ele><time>2026-04-19T12:25:39Z</time></trkpt><trkpt lat="49.19742612489768" lon="6.631881568713308"><ele>272.0</ele><time>2026-04-19T12:25:40Z</time></trkpt><trkpt lat="49.197505837992956" lon="6.632021996999781"><ele>271.0</ele><time>2026-04-19T12:25:41Z</time></trkpt><trkpt lat="49.197605684018626" lon="6.632130135737863"><ele>271.0</ele><time>2026-04-19T12:25:42Z</time></trkpt><trkpt lat="49.19770139578474" lon="6.632262355079653"><ele>271.0</ele><time>2026-04-19T12:25:43Z</time></trkpt><trkpt lat="49.19779264894264" lon="6.632386887252334"><ele>271.0</ele><time>2026-04-19T12:25:44Z</time></trkpt><trkpt lat="49.19787587065447" lon="6.6325117241033045"><ele>271.0</ele><time>2026-04-19T12:25:45Z</time></trkpt><trkpt lat="49.19795811855644" lon="6.632648877273269"><ele>271.75</ele><time>2026-04-19T12:25:46Z</time></trkpt><trkpt lat="49.1980289921159" lon="6.632808013378631"><ele>272.5</ele><time>2026-04-19T12:25:47Z</time></trkpt><trkpt lat="49.19807543145044" lon="6.633008102639258"><ele>273.25</ele><time>2026-04-19T12:25:48Z</time></trkpt><trkpt lat="49.19812456698422" lon="6.633188032978022"><ele>274.0</ele><time>2026-04-19T12:25:49Z</time></trkpt><trkpt lat="49.19815533146641" lon="6.63334502962197"><ele>273.75</ele><time>2026-04-19T12:25:50Z</time></trkpt><trkpt lat="49.198196684192105" lon="6.633525528485519"><ele>273.5</ele><time>2026-04-19T12:25:51Z</time></trkpt><trkpt lat="49.19821362491996" lon="6.6336844274601034"><ele>273.25</ele><time>2026-04-19T12:25:52Z</time></trkpt><trkpt lat="49.19823499597633" lon="6.6338573849819165"><ele>273.0</ele><time>2026-04-19T12:25:53Z</time></trkpt><trkpt lat="49.1982419878904" lon="6.6340203233509705"><ele>272.25</ele><time>2026-04-19T12:25:54Z</time></trkpt><trkpt lat="49.19824479193356" lon="6.634189664917979"><ele>271.5</ele><time>2026-04-19T12:25:55Z</time></trkpt><trkpt lat="49.19821321920908" lon="6.634353707877922"><ele>270.75</ele><time>2026-04-19T12:25:56Z</time></trkpt><trkpt lat="49.19817413406796" lon="6.634527999950099"><ele>270.0</ele><time>2026-04-19T12:25:57Z</time></trkpt><trkpt lat="49.198133067796036" lon="6.6347112329285105"><ele>269.8</ele><time>2026-04-19T12:25:58Z</time></trkpt><trkpt lat="49.19809261716266" lon="6.634876235433124"><ele>269.6</ele><time>2026-04-19T12:25:59Z</time></trkpt><trkpt lat="49.19804472310923" lon="6.635035202757502"><ele>269.4</ele><time>2026-04-19T12:26:00Z</time></trkpt><trkpt lat="49.19800522044248" lon="6.635187682374269"><ele>269.2</ele><time>2026-04-19T12:26:01Z</time></trkpt><trkpt lat="49.19797567166938" lon="6.635342865601256"><ele>269.0</ele><time>2026-04-19T12:26:02Z</time></trkpt><trkpt lat="49.197947565081535" lon="6.635500355255761"><ele>266.8</ele><time>2026-04-19T12:26:03Z</time></trkpt><trkpt lat="49.19793080803114" lon="6.635664249881582"><ele>264.59999999999997</ele><time>2026-04-19T12:26:04Z</time></trkpt><trkpt lat="49.19793334790811" lon="6.635838578953348"><ele>262.4</ele><time>2026-04-19T12:26:05Z</time></trkpt><trkpt lat="49.19792934594164" lon="6.6359988308028734"><ele>260.2</ele><time>2026-04-19T12:26:06Z</time></trkpt><trkpt lat="49.197939171984366" lon="6.636152825322749"><ele>258.0</ele><time>2026-04-19T12:26:07Z</time></trkpt><trkpt lat="49.19792612681979" lon="6.636291540294868"><ele>255.75</ele><time>2026-04-19T12:26:08Z</time></trkpt><trkpt lat="49.1979012429047" lon="6.636410520099626"><ele>253.5</ele><time>2026-04-19T12:26:09Z</time></trkpt><trkpt lat="49.19789705166139" lon="6.636531158472242"><ele>251.25</ele><time>2026-04-19T12:26:10Z</time></trkpt><trkpt lat="49.19767165880358" lon="6.636593008787099"><ele>249.0</ele><time>2026-04-19T12:26:12Z</time></trkpt><trkpt lat="49.19758224340592" lon="6.636676581757722"><ele>249.0</ele><time>2026-04-19T12:26:13Z</time></trkpt><trkpt lat="49.19750504327086" lon="6.6367835853111945"><ele>249.0</ele><time>2026-04-19T12:26:14Z</time></trkpt><trkpt lat="49.19742509150508" lon="6.636908083441401"><ele>249.0</ele><time>2026-04-19T12:26:15Z</time></trkpt><trkpt lat="49.19734988021075" lon="6.6370700038980495"><ele>249.0</ele><time>2026-04-19T12:26:16Z</time></trkpt><trkpt lat="49.19727556881457" lon="6.637244151284359"><ele>251.39999999999998</ele><time>2026-04-19T12:26:17Z</time></trkpt><trkpt lat="49.197225683408604" lon="6.637401925697363"><ele>253.79999999999998</ele><time>2026-04-19T12:26:18Z</time></trkpt><trkpt lat="49.19718800538396" lon="6.637546202225217"><ele>256.20000000000005</ele><time>2026-04-19T12:26:19Z</time></trkpt><trkpt lat="49.197169455207636" lon="6.637696779776843"><ele>258.6</ele><time>2026-04-19T12:26:20Z</time></trkpt><trkpt lat="49.197174982090495" lon="6.637859494427476"><ele>261.0</ele><time>2026-04-19T12:26:21Z</time></trkpt><trkpt lat="49.19717967129504" lon="6.637990114601308"><ele>261.8333333333333</ele><time>2026-04-19T12:26:22Z</time></trkpt><trkpt lat="49.19718590340803" lon="6.638117845633232"><ele>262.6666666666667</ele><time>2026-04-19T12:26:23Z</time></trkpt><trkpt lat="49.19719394010181" lon="6.638228781725065"><ele>263.5</ele><time>2026-04-19T12:26:24Z</time></trkpt><trkpt lat="49.19721983509687" lon="6.638350191617147"><ele>264.33333333333337</ele><time>2026-04-19T12:26:25Z</time></trkpt><trkpt lat="49.197228307129635" lon="6.638479423774338"><ele>265.1666666666667</ele><time>2026-04-19T12:26:26Z</time></trkpt><trkpt lat="49.19723365285997" lon="6.638614083401818"><ele>266.0</ele><time>2026-04-19T12:26:27Z</time></trkpt><trkpt lat="49.19724362578886" lon="6.638739046296284"><ele>266.1666666666667</ele><time>2026-04-19T12:26:28Z</time></trkpt><trkpt lat="49.1972540847694" lon="6.638854733168406"><ele>266.33333333333337</ele><time>2026-04-19T12:26:29Z</time></trkpt><trkpt lat="49.197263569172506" lon="6.63895596596863"><ele>266.5</ele><time>2026-04-19T12:26:30Z</time></trkpt><trkpt lat="49.19727167540936" lon="6.639054973464033"><ele>266.6666666666667</ele><time>2026-04-19T12:26:31Z</time></trkpt><trkpt lat="49.197286710955176" lon="6.639158328956665"><ele>266.8333333333333</ele><time>2026-04-19T12:26:32Z</time></trkpt><trkpt lat="49.197300663708596" lon="6.639264536944183"><ele>267.0</ele><time>2026-04-19T12:26:33Z</time></trkpt><trkpt lat="49.19733149281382" lon="6.639449864746317"><ele>267.5</ele><time>2026-04-19T12:26:35Z</time></trkpt><trkpt lat="49.197333033861696" lon="6.639553268452955"><ele>268.0</ele><time>2026-04-19T12:26:36Z</time></trkpt><trkpt lat="49.1973435235121" lon="6.6396577112409885"><ele>268.5</ele><time>2026-04-19T12:26:37Z</time></trkpt><trkpt lat="49.197356901643325" lon="6.639761627270162"><ele>269.0</ele><time>2026-04-19T12:26:38Z</time></trkpt><trkpt lat="49.197385515570105" lon="6.639891853185321"><ele>269.5</ele><time>2026-04-19T12:26:39Z</time></trkpt><trkpt lat="49.1974167972589" lon="6.640037761204013"><ele>270.0</ele><time>2026-04-19T12:26:40Z</time></trkpt><trkpt lat="49.19743571883089" lon="6.640166376267395"><ele>268.0</ele><time>2026-04-19T12:26:41Z</time></trkpt><trkpt lat="49.19745833406505" lon="6.6402691068773665"><ele>266.0</ele><time>2026-04-19T12:26:42Z</time></trkpt><trkpt lat="49.19747625435019" lon="6.6403661770963085"><ele>264.0</ele><time>2026-04-19T12:26:43Z</time></trkpt><trkpt lat="49.197497201234725" lon="6.640473309163678"><ele>262.0</ele><time>2026-04-19T12:26:44Z</time></trkpt><trkpt lat="49.19752355662058" lon="6.6405927113110685"><ele>260.0</ele><time>2026-04-19T12:26:45Z</time></trkpt><trkpt lat="49.19754321616866" lon="6.640708827342201"><ele>258.0</ele><time>2026-04-19T12:26:46Z</time></trkpt><trkpt lat="49.19756875182466" lon="6.640822660942278"><ele>256.0</ele><time>2026-04-19T12:26:47Z</time></trkpt><trkpt lat="49.19759714364506" lon="6.6409390315600705"><ele>256.0</ele><time>2026-04-19T12:26:48Z</time></trkpt><trkpt lat="49.19763170930764" lon="6.641058343106432"><ele>256.0</ele><time>2026-04-19T12:26:49Z</time></trkpt><trkpt lat="49.19765273190788" lon="6.641194550162804"><ele>256.0</ele><time>2026-04-19T12:26:50Z</time></trkpt><trkpt lat="49.19768571316003" lon="6.641323260468313"><ele>256.0</ele><time>2026-04-19T12:26:51Z</time></trkpt><trkpt lat="49.197738290080935" lon="6.64145663067348"><ele>256.0</ele><time>2026-04-19T12:26:52Z</time></trkpt><trkpt lat="49.19777268417179" lon="6.6415956169313555"><ele>257.40000000000003</ele><time>2026-04-19T12:26:53Z</time></trkpt><trkpt lat="49.19780917613354" lon="6.6417268770302815"><ele>258.8</ele><time>2026-04-19T12:26:54Z</time></trkpt><trkpt lat="49.19783931605218" lon="6.641857943439806"><ele>260.20000000000005</ele><time>2026-04-19T12:26:55Z</time></trkpt><trkpt lat="49.1978843653193" lon="6.641968497997123"><ele>261.6</ele><time>2026-04-19T12:26:56Z</time></trkpt><trkpt lat="49.19793032594468" lon="6.642106364133897"><ele>263.0</ele><time>2026-04-19T12:26:57Z</time></trkpt><trkpt lat="49.197977104183124" lon="6.642239633906508"><ele>261.6</ele><time>2026-04-19T12:26:58Z</time></trkpt><trkpt lat="49.1980280482153" lon="6.642377754282955"><ele>260.20000000000005</ele><time>2026-04-19T12:26:59Z</time></trkpt><trkpt lat="49.19807419671671" lon="6.6425088249475035"><ele>258.8</ele><time>2026-04-19T12:27:00Z</time></trkpt><trkpt lat="49.19812009330876" lon="6.642648243878146"><ele>257.40000000000003</ele><time>2026-04-19T12:27:01Z</time></trkpt><trkpt lat="49.19817076203139" lon="6.642796353395556"><ele>256.0</ele><time>2026-04-19T12:27:02Z</time></trkpt><trkpt lat="49.19820335615256" lon="6.6429621895183555"><ele>256.0</ele><time>2026-04-19T12:27:03Z</time></trkpt><trkpt lat="49.198256741295594" lon="6.643116502680503"><ele>256.0</ele><time>2026-04-19T12:27:04Z</time></trkpt><trkpt lat="49.19829863031781" lon="6.6432740358609825"><ele>256.0</ele><time>2026-04-19T12:27:05Z</time></trkpt><trkpt lat="49.198328077439186" lon="6.643433547953874"><ele>256.0</ele><time>2026-04-19T12:27:06Z</time></trkpt><trkpt lat="49.198344006138676" lon="6.643576792381149"><ele>256.0</ele><time>2026-04-19T12:27:07Z</time></trkpt><trkpt lat="49.198353854027985" lon="6.643736707789651"><ele>255.83333333333331</ele><time>2026-04-19T12:27:08Z</time></trkpt><trkpt lat="49.198366130210864" lon="6.643887781585009"><ele>255.66666666666666</ele><time>2026-04-19T12:27:09Z</time></trkpt><trkpt lat="49.19836644314063" lon="6.644021040107698"><ele>255.5</ele><time>2026-04-19T12:27:10Z</time></trkpt><trkpt lat="49.1983648159319" lon="6.64414602034789"><ele>255.33333333333331</ele><time>2026-04-19T12:27:11Z</time></trkpt><trkpt lat="49.19835901228749" lon="6.644298864855693"><ele>255.16666666666666</ele><time>2026-04-19T12:27:13Z</time></trkpt><trkpt lat="49.1983301332104" lon="6.644409083380887"><ele>255.0</ele><time>2026-04-19T12:27:15Z</time></trkpt><trkpt lat="49.19828360444205" lon="6.644538430663909"><ele>254.6</ele><time>2026-04-19T12:27:31Z</time></trkpt><trkpt lat="49.198247082585645" lon="6.644681231239658"><ele>254.2</ele><time>2026-04-19T12:27:33Z</time></trkpt><trkpt lat="49.19818178850572" lon="6.644819924884741"><ele>253.8</ele><time>2026-04-19T12:27:35Z</time></trkpt><trkpt lat="49.198142249917666" lon="6.6448985497820825"><ele>253.4</ele><time>2026-04-19T12:27:36Z</time></trkpt><trkpt lat="49.19806641205438" lon="6.645025704235835"><ele>253.0</ele><time>2026-04-19T12:27:38Z</time></trkpt><trkpt lat="49.1980004906537" lon="6.645159301864796"><ele>254.66666666666666</ele><time>2026-04-19T12:27:40Z</time></trkpt><trkpt lat="49.19794270772584" lon="6.645283097054575"><ele>256.3333333333333</ele><time>2026-04-19T12:27:42Z</time></trkpt><trkpt lat="49.19787928545373" lon="6.645419543374185"><ele>258.0</ele><time>2026-04-19T12:27:44Z</time></trkpt><trkpt lat="49.19783646768503" lon="6.645506052631704"><ele>259.6666666666667</ele><time>2026-04-19T12:27:45Z</time></trkpt><trkpt lat="49.19778845462589" lon="6.645578307155801"><ele>261.33333333333337</ele><time>2026-04-19T12:27:46Z</time></trkpt><trkpt lat="49.19774996136087" lon="6.645663244173075"><ele>263.0</ele><time>2026-04-19T12:27:47Z</time></trkpt><trkpt lat="49.1977133370029" lon="6.64574446833085"><ele>263.0</ele><time>2026-04-19T12:27:48Z</time></trkpt><trkpt lat="49.197671675310595" lon="6.645838451295627"><ele>263.0</ele><time>2026-04-19T12:27:49Z</time></trkpt><trkpt lat="49.197630361904764" lon="6.645931648642349"><ele>263.0</ele><time>2026-04-19T12:27:50Z</time></trkpt><trkpt lat="49.197584840187126" lon="6.64603615096693"><ele>263.0</ele><time>2026-04-19T12:27:51Z</time></trkpt><trkpt lat="49.197544190651485" lon="6.646129979888961"><ele>263.0</ele><time>2026-04-19T12:27:52Z</time></trkpt><trkpt lat="49.197501243687654" lon="6.646232208686757"><ele>263.0</ele><time>2026-04-19T12:27:53Z</time></trkpt><trkpt lat="49.1974600594532" lon="6.646333538635701"><ele>262.5</ele><time>2026-04-19T12:27:54Z</time></trkpt><trkpt lat="49.19742017008949" lon="6.6464347210215085"><ele>262.0</ele><time>2026-04-19T12:27:55Z</time></trkpt><trkpt lat="49.197386345970386" lon="6.646522478273237"><ele>261.5</ele><time>2026-04-19T12:27:56Z</time></trkpt><trkpt lat="49.19734369508933" lon="6.646629458250884"><ele>261.0</ele><time>2026-04-19T12:27:57Z</time></trkpt><trkpt lat="49.19729075802866" lon="6.646756404741855"><ele>260.5</ele><time>2026-04-19T12:27:58Z</time></trkpt><trkpt lat="49.1972625534313" lon="6.646880361034753"><ele>260.0</ele><time>2026-04-19T12:27:59Z</time></trkpt><trkpt lat="49.19722914563328" lon="6.64699212866938"><ele>259.0</ele><time>2026-04-19T12:28:00Z</time></trkpt><trkpt lat="49.197206625365524" lon="6.647121041779502"><ele>258.0</ele><time>2026-04-19T12:28:01Z</time></trkpt><trkpt lat="49.197189707157854" lon="6.647246622817322"><ele>257.0</ele><time>2026-04-19T12:28:02Z</time></trkpt><trkpt lat="49.19719252943244" lon="6.647376377833016"><ele>256.0</ele><time>2026-04-19T12:28:03Z</time></trkpt><trkpt lat="49.19720344172973" lon="6.647507377918114"><ele>255.00000000000003</ele><time>2026-04-19T12:28:04Z</time></trkpt><trkpt lat="49.19722836254653" lon="6.647623364232155"><ele>254.0</ele><time>2026-04-19T12:28:05Z</time></trkpt><trkpt lat="49.19724952052667" lon="6.647739223063873"><ele>254.33333333333334</ele><time>2026-04-19T12:28:06Z</time></trkpt><trkpt lat="49.197270032950094" lon="6.647852429398087"><ele>254.66666666666669</ele><time>2026-04-19T12:28:07Z</time></trkpt><trkpt lat="49.19729994269632" lon="6.6479699029204244"><ele>255.0</ele><time>2026-04-19T12:28:08Z</time></trkpt><trkpt lat="49.19733041960334" lon="6.64808219410177"><ele>255.33333333333331</ele><time>2026-04-19T12:28:09Z</time></trkpt><trkpt lat="49.197353855204554" lon="6.6481987432875815"><ele>255.66666666666666</ele><time>2026-04-19T12:28:10Z</time></trkpt><trkpt lat="49.19737859201623" lon="6.648314072674434"><ele>256.0</ele><time>2026-04-19T12:28:11Z</time></trkpt><trkpt lat="49.197393452469086" lon="6.648430236044418"><ele>255.99999999999997</ele><time>2026-04-19T12:28:12Z</time></trkpt><trkpt lat="49.197400389445804" lon="6.648544881353425"><ele>256.0</ele><time>2026-04-19T12:28:13Z</time></trkpt><trkpt lat="49.19739722956253" lon="6.648663234090037"><ele>256.0</ele><time>2026-04-19T12:28:14Z</time></trkpt><trkpt lat="49.19738447593253" lon="6.648780696873076"><ele>256.0</ele><time>2026-04-19T12:28:15Z</time></trkpt><trkpt lat="49.197360856540755" lon="6.648909626039798"><ele>255.99999999999997</ele><time>2026-04-19T12:28:16Z</time></trkpt><trkpt lat="49.19732184283961" lon="6.649050208798877"><ele>256.0</ele><time>2026-04-19T12:28:17Z</time></trkpt><trkpt lat="49.19725096359643" lon="6.649162966570726"><ele>256.6</ele><time>2026-04-19T12:28:18Z</time></trkpt><trkpt lat="49.197197531646275" lon="6.6493046956344966"><ele>257.20000000000005</ele><time>2026-04-19T12:28:19Z</time></trkpt><trkpt lat="49.19713734996811" lon="6.649426920815254"><ele>257.79999999999995</ele><time>2026-04-19T12:28:20Z</time></trkpt><trkpt lat="49.19707717779637" lon="6.6495409704202935"><ele>258.4</ele><time>2026-04-19T12:28:21Z</time></trkpt><trkpt lat="49.197025369483775" lon="6.649656511679419"><ele>259.0</ele><time>2026-04-19T12:28:22Z</time></trkpt><trkpt lat="49.19698693740433" lon="6.649780825736563"><ele>259.3333333333333</ele><time>2026-04-19T12:28:23Z</time></trkpt><trkpt lat="49.19696323210956" lon="6.64991625468685"><ele>259.66666666666663</ele><time>2026-04-19T12:28:24Z</time></trkpt><trkpt lat="49.19694466946527" lon="6.650047065225268"><ele>260.0</ele><time>2026-04-19T12:28:25Z</time></trkpt><trkpt lat="49.19692417466959" lon="6.65017438204458"><ele>260.3333333333333</ele><time>2026-04-19T12:28:26Z</time></trkpt><trkpt lat="49.19691107905661" lon="6.650300136839728"><ele>260.6666666666667</ele><time>2026-04-19T12:28:27Z</time></trkpt><trkpt lat="49.19689265836803" lon="6.650401648320946"><ele>261.0</ele><time>2026-04-19T12:28:28Z</time></trkpt><trkpt lat="49.19688446257239" lon="6.650497366392813"><ele>260.0</ele><time>2026-04-19T12:28:30Z</time></trkpt><trkpt lat="49.1969749963448" lon="6.650536036645692"><ele>259.0</ele><time>2026-04-19T12:28:33Z</time></trkpt><trkpt lat="49.19707823758478" lon="6.650515496751837"><ele>258.0</ele><time>2026-04-19T12:28:35Z</time></trkpt><trkpt lat="49.1971733600049" lon="6.650494643543729"><ele>257.0</ele><time>2026-04-19T12:28:37Z</time></trkpt><trkpt lat="49.19727720115514" lon="6.6505141854108905"><ele>256.0</ele><time>2026-04-19T12:28:39Z</time></trkpt><trkpt lat="49.19737013270744" lon="6.650568920643353"><ele>253.49999999999997</ele><time>2026-04-19T12:28:41Z</time></trkpt><trkpt lat="49.197449865322305" lon="6.6506109861278695"><ele>251.0</ele><time>2026-04-19T12:28:43Z</time></trkpt><trkpt lat="49.19751099200104" lon="6.65070102348728"><ele>248.5</ele><time>2026-04-19T12:28:46Z</time></trkpt><trkpt lat="49.19753535445715" lon="6.650822733418464"><ele>246.0</ele><time>2026-04-19T12:28:48Z</time></trkpt><trkpt lat="49.19757565173646" lon="6.6509159190322995"><ele>243.49999999999997</ele><time>2026-04-19T12:28:51Z</time></trkpt><trkpt lat="49.19768478997435" lon="6.650860822343673"><ele>241.0</ele><time>2026-04-19T12:28:53Z</time></trkpt><trkpt lat="49.1977767874125" lon="6.650792340928749"><ele>241.0</ele><time>2026-04-19T12:28:55Z</time></trkpt><trkpt lat="49.19786091280613" lon="6.6508127402596555"><ele>241.00000000000003</ele><time>2026-04-19T12:28:57Z</time></trkpt><trkpt lat="49.197976733438246" lon="6.650831104709284"><ele>241.00000000000003</ele><time>2026-04-19T12:28:59Z</time></trkpt><trkpt lat="49.19808449081991" lon="6.650764105490714"><ele>241.0</ele><time>2026-04-19T12:29:01Z</time></trkpt><trkpt lat="49.19815396489586" lon="6.650725463264536"><ele>241.0</ele><time>2026-04-19T12:29:03Z</time></trkpt><trkpt lat="49.198190427682135" lon="6.650638698364725"><ele>240.33333333333331</ele><time>2026-04-19T12:29:05Z</time></trkpt><trkpt lat="49.198208163967266" lon="6.650545585561781"><ele>239.66666666666666</ele><time>2026-04-19T12:29:06Z</time></trkpt><trkpt lat="49.19821832142757" lon="6.65040557061924"><ele>239.0</ele><time>2026-04-19T12:29:43Z</time></trkpt><trkpt lat="49.1982359417607" lon="6.650257742946201"><ele>238.33333333333331</ele><time>2026-04-19T12:29:45Z</time></trkpt><trkpt lat="49.19827454222892" lon="6.650077671361744"><ele>237.66666666666666</ele><time>2026-04-19T12:29:47Z</time></trkpt><trkpt lat="49.19830543012765" lon="6.649979677342028"><ele>237.0</ele><time>2026-04-19T12:29:48Z</time></trkpt><trkpt lat="49.19833953532591" lon="6.649876428026423"><ele>237.0</ele><time>2026-04-19T12:29:49Z</time></trkpt><trkpt lat="49.198368427953184" lon="6.649783070470761"><ele>237.0</ele><time>2026-04-19T12:29:50Z</time></trkpt><trkpt lat="49.19839626217178" lon="6.6496931329996345"><ele>237.0</ele><time>2026-04-19T12:29:51Z</time></trkpt><trkpt lat="49.198423666219604" lon="6.649604585510316"><ele>237.0</ele><time>2026-04-19T12:29:52Z</time></trkpt><trkpt lat="49.19848003624585" lon="6.649430913288243"><ele>237.0</ele><time>2026-04-19T12:29:54Z</time></trkpt><trkpt lat="49.19853561713607" lon="6.649261560013494"><ele>237.0</ele><time>2026-04-19T12:29:56Z</time></trkpt><trkpt lat="49.198568866514265" lon="6.649160250238858"><ele>237.5</ele><time>2026-04-19T12:29:57Z</time></trkpt><trkpt lat="49.1986009587724" lon="6.649062466127304"><ele>238.0</ele><time>2026-04-19T12:29:58Z</time></trkpt><trkpt lat="49.198633391837426" lon="6.648960884156907"><ele>238.5</ele><time>2026-04-19T12:29:59Z</time></trkpt><trkpt lat="49.198661054288365" lon="6.648871898953124"><ele>239.0</ele><time>2026-04-19T12:30:00Z</time></trkpt><trkpt lat="49.19871201032205" lon="6.648702590508932"><ele>239.5</ele><time>2026-04-19T12:30:02Z</time></trkpt><trkpt lat="49.1987551217652" lon="6.648559346711657"><ele>240.0</ele><time>2026-04-19T12:30:04Z</time></trkpt><trkpt lat="49.1988020691803" lon="6.6484075250326145"><ele>240.5</ele><time>2026-04-19T12:30:06Z</time></trkpt><trkpt lat="49.19883566682383" lon="6.648304225742902"><ele>241.0</ele><time>2026-04-19T12:30:07Z</time></trkpt><trkpt lat="49.198869797242864" lon="6.648209357822952"><ele>241.5</ele><time>2026-04-19T12:30:08Z</time></trkpt><trkpt lat="49.1989060907883" lon="6.648114152367316"><ele>242.0</ele><time>2026-04-19T12:30:09Z</time></trkpt><trkpt lat="49.19896664640071" lon="6.648006244187197"><ele>242.5</ele><time>2026-04-19T12:30:10Z</time></trkpt><trkpt lat="49.19902353457318" lon="6.64792146097797"><ele>243.0</ele><time>2026-04-19T12:30:11Z</time></trkpt><trkpt lat="49.19908980809094" lon="6.647853984529716"><ele>241.0</ele><time>2026-04-19T12:30:12Z</time></trkpt><trkpt lat="49.19915152008377" lon="6.647792109061222"><ele>239.0</ele><time>2026-04-19T12:30:13Z</time></trkpt><trkpt lat="49.19922242309499" lon="6.647698925786329"><ele>237.0</ele><time>2026-04-19T12:30:14Z</time></trkpt><trkpt lat="49.19908631774312" lon="6.647165970236479"><ele>237.0</ele><time>2026-04-19T12:30:15Z</time></trkpt><trkpt lat="49.199116772815145" lon="6.647006142855191"><ele>237.0</ele><time>2026-04-19T12:30:16Z</time></trkpt><trkpt lat="49.199135369456535" lon="6.646865925788441"><ele>237.0</ele><time>2026-04-19T12:30:17Z</time></trkpt><trkpt lat="49.19915627962693" lon="6.646773656849279"><ele>237.0</ele><time>2026-04-19T12:30:18Z</time></trkpt><trkpt lat="49.19917914494756" lon="6.646681115511319"><ele>237.0</ele><time>2026-04-19T12:30:19Z</time></trkpt><trkpt lat="49.19920836162276" lon="6.646539177870137"><ele>237.0</ele><time>2026-04-19T12:30:20Z</time></trkpt><trkpt lat="49.199242420756704" lon="6.646392942971835"><ele>237.33333333333334</ele><time>2026-04-19T12:30:21Z</time></trkpt><trkpt lat="49.19926456917769" lon="6.646256190559902"><ele>237.66666666666669</ele><time>2026-04-19T12:30:22Z</time></trkpt><trkpt lat="49.19929585420311" lon="6.646112443071411"><ele>238.0</ele><time>2026-04-19T12:30:23Z</time></trkpt><trkpt lat="49.199305197348764" lon="6.645984481860579"><ele>238.33333333333334</ele><time>2026-04-19T12:30:24Z</time></trkpt><trkpt lat="49.1993155723221" lon="6.645882356598259"><ele>238.66666666666669</ele><time>2026-04-19T12:30:25Z</time></trkpt><trkpt lat="49.19933423101778" lon="6.645777576854254"><ele>239.0</ele><time>2026-04-19T12:30:26Z</time></trkpt><trkpt lat="49.19935984234872" lon="6.645638127016082"><ele>239.66666666666669</ele><time>2026-04-19T12:30:27Z</time></trkpt><trkpt lat="49.1993857479837" lon="6.645502968974542"><ele>240.33333333333334</ele><time>2026-04-19T12:30:28Z</time></trkpt><trkpt lat="49.199417291769066" lon="6.645351324536598"><ele>241.0</ele><time>2026-04-19T12:30:29Z</time></trkpt><trkpt lat="49.199449182570994" lon="6.645217143143531"><ele>241.66666666666669</ele><time>2026-04-19T12:30:30Z</time></trkpt><trkpt lat="49.199480294837876" lon="6.645099367658685"><ele>242.33333333333334</ele><time>2026-04-19T12:30:31Z</time></trkpt><trkpt lat="49.199511959656455" lon="6.645004449312716"><ele>243.0</ele><time>2026-04-19T12:30:32Z</time></trkpt><trkpt lat="49.19953356511712" lon="6.644891299752088"><ele>243.0</ele><time>2026-04-19T12:30:34Z</time></trkpt><trkpt lat="49.19955876138471" lon="6.644745143015867"><ele>243.0</ele><time>2026-04-19T12:31:02Z</time></trkpt><trkpt lat="49.199570778261936" lon="6.644626564205367"><ele>243.0</ele><time>2026-04-19T12:31:03Z</time></trkpt><trkpt lat="49.19960340291026" lon="6.644476209199569"><ele>243.0</ele><time>2026-04-19T12:31:05Z</time></trkpt><trkpt lat="49.199633337260714" lon="6.644333098887551"><ele>243.0</ele><time>2026-04-19T12:31:07Z</time></trkpt><trkpt lat="49.19965548556374" lon="6.644242760664685"><ele>243.0</ele><time>2026-04-19T12:31:08Z</time></trkpt><trkpt lat="49.19967731683048" lon="6.644147012351294"><ele>243.0</ele><time>2026-04-19T12:31:09Z</time></trkpt><trkpt lat="49.199707012667545" lon="6.644011945213513"><ele>243.0</ele><time>2026-04-19T12:31:11Z</time></trkpt><trkpt lat="49.19974182472139" lon="6.643883743697138"><ele>243.0</ele><time>2026-04-19T12:31:13Z</time></trkpt><trkpt lat="49.199790028220704" lon="6.643782024304657"><ele>243.0</ele><time>2026-04-19T12:31:15Z</time></trkpt><trkpt lat="49.199889955201385" lon="6.643649272098241"><ele>243.0</ele><time>2026-04-19T12:31:17Z</time></trkpt><trkpt lat="49.19995714206468" lon="6.643571924352326"><ele>243.83333333333334</ele><time>2026-04-19T12:31:18Z</time></trkpt><trkpt lat="49.20002041083129" lon="6.643514134017755"><ele>244.66666666666669</ele><time>2026-04-19T12:31:19Z</time></trkpt><trkpt lat="49.20011316250567" lon="6.643468365652334"><ele>245.5</ele><time>2026-04-19T12:31:20Z</time></trkpt><trkpt lat="49.200205883540036" lon="6.643408690638819"><ele>246.33333333333334</ele><time>2026-04-19T12:31:21Z</time></trkpt><trkpt lat="49.20028199466031" lon="6.643340110680359"><ele>247.16666666666669</ele><time>2026-04-19T12:31:22Z</time></trkpt><trkpt lat="49.200355634263246" lon="6.643288267657856"><ele>248.0</ele><time>2026-04-19T12:31:23Z</time></trkpt><trkpt lat="49.20043669919597" lon="6.6432421978799745"><ele>248.0</ele><time>2026-04-19T12:31:24Z</time></trkpt><trkpt lat="49.20052832948286" lon="6.643193313468532"><ele>248.0</ele><time>2026-04-19T12:31:25Z</time></trkpt><trkpt lat="49.20062783808803" lon="6.643150186083555"><ele>248.0</ele><time>2026-04-19T12:31:26Z</time></trkpt><trkpt lat="49.2007295122428" lon="6.643123976565279"><ele>248.0</ele><time>2026-04-19T12:31:27Z</time></trkpt><trkpt lat="49.20082511654695" lon="6.643112558628733"><ele>248.0</ele><time>2026-04-19T12:31:28Z</time></trkpt><trkpt lat="49.20092154593326" lon="6.643115934253465"><ele>250.2</ele><time>2026-04-19T12:31:29Z</time></trkpt><trkpt lat="49.20101780161767" lon="6.643136079606753"><ele>252.4</ele><time>2026-04-19T12:31:30Z</time></trkpt><trkpt lat="49.201106628575424" lon="6.643176120006659"><ele>254.59999999999997</ele><time>2026-04-19T12:31:31Z</time></trkpt><trkpt lat="49.201193553009404" lon="6.643228094594678"><ele>256.8</ele><time>2026-04-19T12:31:32Z</time></trkpt><trkpt lat="49.20127921150489" lon="6.643290435104232"><ele>259.0</ele><time>2026-04-19T12:31:33Z</time></trkpt><trkpt lat="49.201369641432876" lon="6.643356611583276"><ele>259.0</ele><time>2026-04-19T12:31:34Z</time></trkpt><trkpt lat="49.201457767217626" lon="6.643417624696038"><ele>259.0</ele><time>2026-04-19T12:31:35Z</time></trkpt><trkpt lat="49.2015444028038" lon="6.643450384781228"><ele>260.0</ele><time>2026-04-19T12:31:36Z</time></trkpt></trkseg></trk></gpx>